GFSCGP_sfc_dewp_000.txt.gz
Dewpoint
41 34 29 28 30 27 29 25 22 23 30 28 26 26 26 24 24 30 22 26 27 27 30 32 35 37 36 35 39 43 46 51 53 56 57 59 59 59 60 60 59 58 57 56
37 30 28 28 31 32 28 25 24 28 29 29 26 27 23 22 22 23 26 29 32 32 32 34 37 41 41 42 42 41 43 47 51 54 57 58 59 59 59 60 60 59 59 58
30 27 29 34 33 31 28 27 28 28 29 30 28 27 23 24 27 28 30 33 34 34 35 37 38 41 45 46 45 45 44 45 49 52 55 56 57 58 58 58 59 59 59 59
27 32 32 32 30 30 27 31 31 30 28 26 27 23 23 25 29 29 32 34 35 35 36 38 40 41 44 46 48 46 44 44 45 49 53 54 55 56 57 57 58 59 59 59
29 30 31 31 30 32 32 35 30 29 27 26 25 24 22 26 28 30 31 35 36 36 36 38 41 43 45 46 46 45 45 44 45 44 45 49 54 56 57 57 56 56 57 59
29 30 30 31 31 32 33 28 28 27 26 24 21 21 21 24 27 31 33 34 36 36 36 38 41 43 44 46 45 44 42 41 42 46 49 49 48 49 51 53 54 54 55 56
27 25 24 27 26 29 28 27 26 26 25 23 20 22 22 23 29 31 33 35 36 37 36 38 41 42 43 43 44 42 43 42 42 42 42 42 46 51 54 54 54 55 55 55
29 27 26 26 28 27 25 28 28 26 25 22 22 23 24 23 26 29 33 36 37 36 36 39 41 42 42 43 44 44 44 43 43 43 42 42 42 44 46 48 48 51 53 55
30 29 28 28 26 24 29 30 27 27 31 25 25 28 25 23 24 26 31 35 36 36 35 38 41 41 41 42 43 43 42 43 43 43 43 42 42 42 42 42 43 45 45 45
35 29 30 29 27 26 22 22 24 26 22 21 23 25 23 22 23 25 31 34 36 36 36 38 39 41 41 41 42 42 41 42 43 43 42 42 43 43 43 42 42 42 42 42
37 35 33 31 30 28 25 24 23 22 22 21 20 22 24 25 24 24 32 36 36 36 37 39 39 40 40 40 41 40 41 41 42 42 43 43 44 44 44 43 44 44 43 43
40 37 33 33 32 34 28 27 25 24 23 23 21 21 27 27 32 33 35 36 35 37 39 39 39 39 39 40 40 39 40 40 42 43 44 44 44 45 44 44 44 45 45 45
40 36 32 33 34 34 34 32 28 29 29 29 21 21 28 29 32 35 35 36 35 37 38 38 38 38 37 38 41 41 42 43 44 45 45 45 45 45 45 45 45 45 45 44
42 35 32 27 27 30 32 33 33 31 27 26 25 25 26 28 31 32 30 36 35 36 37 36 36 35 36 37 41 42 44 44 44 44 44 43 44 43 42 42 42 42 42 42
39 32 30 30 30 28 28 29 29 30 30 27 24 25 25 25 27 28 35 36 35 36 36 35 35 35 36 41 43 43 43 41 38 39 40 41 42 40 40 39 39 39 40 40
36 30 29 26 24 21 22 23 22 25 27 27 27 26 28 28 36 35 35 35 37 36 34 34 34 35 40 43 42 40 39 37 37 36 37 38 38 38 38 37 37 38 38 38
32 28 25 21 23 25 24 25 25 25 25 25 23 25 28 30 35 36 36 37 37 36 33 34 39 42 41 39 39 36 34 33 33 34 34 33 31 31 33 34 33 34 33 32
31 30 28 25 26 22 26 29 28 29 28 27 28 29 31 36 37 37 35 37 37 35 37 40 40 39 39 38 35 31 29 28 28 28 28 27 28 27 27 28 27 28 28 29
27 29 27 27 27 28 29 30 29 29 29 30 30 30 33 36 34 34 36 36 38 39 39 39 38 36 34 31 28 27 26 26 25 24 21 23 24 23 23 24 23 22 24 26
34 29 29 29 25 27 29 31 32 31 27 36 34 34 37 34 31 33 35 39 39 39 39 36 33 32 29 26 25 24 22 18 17 15 16 17 19 19 19 19 18 18 21 20
32 31 28 28 28 30 32 32 33 28 30 37 37 37 38 35 34 35 36 38 37 36 34 32 30 27 23 21 19 16 12 9 10 12 12 13 14 14 14 15 16 16 15 19
32 31 31 31 28 25 34 33 31 33 36 37 39 35 33 32 36 37 37 36 35 35 31 26 25 22 17 12 9 8 8 10 11 12 12 12 12 11 10 12 13 13 13 14
28 31 31 33 33 36 35 34 35 34 36 36 36 34 34 34 35 36 35 35 34 30 25 20 18 14 9 9 9 8 8 10 11 11 11 12 12 11 11 12 12 12 13 12
33 33 32 32 31 33 33 34 34 35 35 36 37 37 36 36 36 36 37 36 33 26 19 16 16 11 9 8 8 9 9 11 12 11 12 13 13 14 13 15 14 13 12 14
35 35 34 34 35 35 35 35 35 35 35 35 34 34 34 35 36 36 36 33 25 19 16 14 12 11 9 9 10 10 11 13 13 13 13 13 15 14 14 15 14 14 15 21
37 35 34 32 33 34 34 36 35 35 35 34 33 33 36 37 37 36 32 23 17 14 14 13 12 11 11 11 11 12 14 15 14 13 14 16 16 15 16 16 15 22 26 29

GFSCGP_sfc_dewp_003.txt.gz
Dewpoint
49 44 39 35 31 30 29 27 24 25 30 28 28 28 28 25 22 27 28 30 31 33 35 39 42 45 45 45 44 43 44 52 53 57 59 59 59 60 60 59 58 58 57 56
43 40 36 32 32 31 28 26 25 27 30 27 27 28 25 22 24 29 33 34 34 36 38 39 42 44 46 47 46 45 44 45 52 54 57 59 60 60 60 61 60 60 59 58
41 38 35 32 31 30 28 27 29 29 30 29 31 28 22 25 28 32 34 34 36 37 38 40 41 43 45 45 46 46 44 44 47 53 56 57 58 58 58 59 59 60 60 60
37 31 32 32 32 29 25 30 31 30 27 26 28 23 23 27 29 32 33 34 35 36 38 41 42 43 45 45 44 43 44 45 47 47 49 53 54 55 56 57 58 58 60 60
31 30 30 31 30 29 31 34 30 30 26 27 25 24 24 29 29 31 34 35 35 36 38 41 42 44 45 45 43 42 42 43 43 44 48 49 49 52 54 55 55 56 56 58
29 32 31 31 31 31 32 29 29 28 26 24 24 23 23 27 30 31 33 35 35 35 38 41 43 43 43 44 43 43 43 43 43 43 42 42 43 48 51 53 53 54 55 56
25 23 22 27 26 26 27 27 26 25 24 24 22 21 22 25 31 32 34 35 36 36 38 40 42 42 43 43 43 44 43 43 43 43 42 41 41 42 43 45 48 47 51 54
27 24 23 25 26 26 25 27 28 26 25 24 22 21 22 25 32 35 36 37 36 36 39 40 41 41 42 42 42 42 42 42 43 42 42 42 42 43 43 43 43 44 45 46
28 28 28 28 25 26 27 28 29 26 29 25 26 28 23 27 31 34 36 36 36 35 38 40 40 41 41 41 42 42 41 42 43 43 43 43 43 44 44 43 43 44 44 44
33 28 29 29 28 26 23 25 25 26 22 21 23 26 23 24 25 29 35 36 36 36 38 39 40 40 40 41 41 40 41 41 42 43 44 44 44 45 45 45 45 45 45 45
38 34 32 31 29 28 27 24 22 24 24 21 20 21 25 24 24 28 33 36 36 37 38 39 39 40 40 40 40 41 42 43 44 45 45 45 45 46 46 45 45 45 45 45
40 35 32 33 31 33 29 27 25 23 24 24 21 21 26 32 29 35 36 36 36 38 39 39 39 39 39 41 42 43 44 44 45 45 45 45 46 45 44 43 43 42 43 43
39 35 32 31 31 33 33 32 29 29 29 26 21 22 28 33 33 35 36 35 36 39 39 38 36 36 39 42 43 43 43 41 39 40 42 42 43 42 41 41 39 38 38 39
41 33 29 27 27 31 32 32 32 30 26 25 26 26 26 29 31 33 33 37 37 38 37 35 35 36 42 43 41 41 39 37 36 37 38 37 40 38 37 37 37 37 37 38
36 28 29 28 29 27 27 28 29 31 30 26 22 24 25 26 28 30 35 36 36 35 34 34 36 41 42 40 38 37 35 35 35 35 35 35 34 31 31 32 34 34 35 35
34 29 26 23 24 23 21 22 23 25 27 29 29 27 29 30 30 36 36 36 36 33 33 38 43 41 38 37 35 33 31 30 30 29 28 29 28 28 29 29 29 30 30 31
31 26 24 20 25 25 24 25 25 25 24 23 23 24 27 30 33 36 37 36 35 32 39 41 39 38 37 35 31 28 26 26 25 24 25 22 23 24 24 24 25 26 25 25
31 28 28 24 26 22 26 29 28 27 29 28 28 28 31 34 37 36 36 36 34 39 39 38 36 34 33 28 26 25 24 23 20 23 16 16 18 18 19 19 20 20 21 20
29 29 26 26 26 27 29 30 30 29 29 31 31 33 37 35 34 34 37 38 39 39 38 36 33 31 27 24 23 20 19 17 14 14 11 12 13 13 14 15 15 16 16 18
32 30 27 24 22 24 29 31 32 31 26 35 35 35 37 36 32 33 38 39 39 37 35 32 30 28 23 20 17 13 12 8 8 11 12 12 12 13 12 12 12 13 14 14
30 30 27 28 26 28 32 32 33 26 26 36 38 37 39 36 36 36 38 37 36 34 31 29 27 23 19 15 10 7 8 8 9 13 13 13 13 12 12 12 11 12 13 13
31 28 29 29 26 24 34 33 31 32 35 36 36 38 35 37 38 38 37 36 35 33 28 24 22 19 14 9 8 7 7 9 11 13 13 13 13 13 13 12 13 13 14 13
27 31 32 32 30 34 34 34 34 35 34 35 34 35 34 36 37 36 36 35 33 29 23 18 16 14 10 10 9 8 9 11 12 13 13 13 14 14 13 14 14 14 14 14
33 35 32 32 33 34 35 34 34 34 34 36 36 36 36 35 36 36 37 35 34 26 19 16 15 11 10 10 10 10 11 12 14 13 14 14 14 15 15 16 16 15 15 16
34 35 34 33 34 34 34 34 35 35 35 35 34 34 34 35 35 35 36 35 28 20 16 14 12 12 11 11 11 12 12 14 14 14 14 14 15 15 15 16 16 16 17 21
36 34 33 32 35 34 34 35 36 35 35 35 33 33 35 35 36 36 34 24 18 14 15 14 13 13 12 12 12 13 15 16 16 14 15 16 16 16 17 16 15 22 25 27

GFSCGP_sfc_dewp_006.txt.gz
Dewpoint
52 47 43 42 34 33 30 28 26 26 28 28 28 28 29 28 26 27 30 32 34 36 38 41 43 44 46 46 45 44 44 46 55 59 58 58 59 59 59 58 57 56 56 55
48 44 45 42 37 31 29 27 26 27 29 28 26 25 28 23 27 31 33 34 36 38 39 41 42 43 43 43 45 44 44 45 50 56 58 59 59 59 60 60 60 59 58 57
44 44 45 38 32 32 30 28 27 29 30 29 33 28 23 27 31 33 34 35 37 38 39 41 42 43 44 43 42 42 44 46 47 53 57 57 58 58 58 59 59 60 60 60
43 39 40 38 32 29 27 29 30 30 27 25 28 24 23 26 30 32 33 34 35 38 40 41 43 43 43 43 42 42 43 43 43 48 49 50 52 52 55 56 57 57 58 59
40 36 36 32 31 30 28 32 30 29 26 26 25 24 24 27 28 32 33 34 35 37 40 42 42 43 43 43 43 43 43 43 43 42 43 45 44 50 51 51 49 50 52 54
35 34 33 31 31 31 33 28 29 28 26 24 24 25 23 26 28 31 34 34 35 37 40 41 42 43 43 43 43 43 43 43 43 43 42 42 41 42 43 43 45 46 48 51
35 26 24 30 26 27 28 27 25 24 24 23 25 23 24 25 30 31 34 34 35 37 40 41 41 42 42 42 42 42 43 43 43 43 43 43 43 43 43 43 43 44 44 45
31 24 23 24 27 26 26 27 26 23 24 24 23 20 21 26 31 34 35 36 35 38 39 40 40 41 41 41 42 41 42 43 43 43 43 44 45 45 45 44 44 44 44 45
26 26 28 28 24 28 26 27 29 27 27 24 26 26 24 32 34 35 36 35 35 37 39 40 40 41 41 41 40 41 42 43 44 44 45 45 45 45 45 45 45 45 44 43
31 26 29 27 27 25 27 27 25 26 23 21 23 22 23 28 33 35 35 35 35 35 39 40 40 40 40 40 41 42 44 44 44 45 45 44 45 45 45 44 43 42 42 42
34 30 32 28 28 27 26 24 22 25 25 22 20 21 25 25 30 34 35 36 36 36 38 39 39 40 41 42 43 44 44 42 41 43 43 43 44 44 43 41 41 39 39 38
39 33 30 31 31 31 29 27 24 22 21 23 21 22 25 29 26 31 34 36 37 37 39 39 39 41 42 43 43 42 40 38 38 40 40 40 42 39 37 35 35 35 34 35
38 35 31 31 32 33 32 30 27 28 28 26 22 23 27 32 28 33 35 36 36 38 39 36 38 41 43 42 41 39 37 36 36 37 37 36 37 33 30 30 30 31 31 32
40 32 31 29 29 32 32 33 31 27 25 23 26 26 27 29 31 34 35 37 36 39 36 35 39 42 41 39 38 35 34 33 34 34 33 35 30 28 28 28 27 27 28 28
33 28 29 28 28 28 29 30 32 30 28 24 24 25 26 27 27 28 30 34 38 36 34 36 41 41 39 36 34 31 29 28 30 28 30 28 28 25 25 25 24 24 24 23
33 28 25 21 23 24 22 23 24 26 30 30 29 26 28 29 30 37 36 36 36 34 35 42 41 37 36 34 30 27 26 26 26 25 25 22 19 18 19 19 19 19 19 19
30 25 22 17 26 25 23 25 25 22 23 22 19 22 28 29 34 35 37 36 34 33 41 40 37 36 34 29 26 25 24 23 19 22 16 14 14 14 15 15 16 16 15 17
29 28 27 23 25 21 25 28 28 26 27 27 27 29 32 35 35 35 36 37 33 40 39 37 35 32 30 26 24 22 20 16 13 15 11 12 13 13 13 13 13 13 13 13
30 28 27 25 25 26 28 30 29 28 30 33 33 34 36 35 35 35 38 37 38 39 37 35 32 30 26 21 19 14 11 9 9 10 11 12 13 12 13 12 12 12 12 12
30 30 27 25 23 23 27 31 32 30 24 35 36 35 37 37 33 34 38 39 39 36 34 32 30 26 21 16 10 7 8 8 8 10 12 13 14 13 12 13 13 13 13 13
27 27 26 28 25 27 30 32 32 25 23 36 37 36 36 36 36 37 38 36 35 33 32 28 25 21 16 9 7 8 9 8 9 12 13 14 14 14 13 13 14 14 14 14
28 27 27 28 25 22 33 34 31 32 36 34 34 34 35 37 38 37 37 35 34 32 27 24 21 16 10 9 9 8 8 9 11 13 14 14 14 14 13 14 14 15 15 15
28 32 31 29 28 33 34 34 34 35 33 34 35 34 34 37 37 37 37 36 35 29 22 18 16 14 11 11 10 9 10 12 12 13 14 14 14 14 14 15 15 15 16 16
31 33 32 31 33 34 33 34 34 35 34 35 35 35 35 34 36 36 36 35 32 26 18 17 14 11 10 11 10 11 12 13 14 14 14 15 14 16 16 16 16 15 16 17
32 34 33 33 34 34 34 34 35 35 35 36 36 35 34 34 34 34 35 35 28 21 17 15 13 12 11 11 11 12 13 14 14 15 15 14 16 16 16 16 16 16 17 21
35 34 33 32 34 34 34 35 36 35 35 35 34 33 34 34 34 35 34 27 21 16 15 13 13 12 12 12 13 14 15 16 16 15 15 16 17 16 17 16 15 22 24 26

GFSCGP_sfc_dewp_009.txt.gz
Dewpoint
52 47 43 42 40 38 33 28 27 27 27 27 28 28 29 29 26 26 30 33 36 38 40 41 42 43 42 43 44 44 45 47 55 58 57 57 58 58 58 58 56 55 55 54
49 44 45 44 38 33 31 29 29 28 30 28 27 28 29 26 26 29 32 34 36 38 40 41 43 43 42 41 41 42 44 47 51 57 58 58 58 58 59 60 59 59 58 57
43 45 47 43 42 36 32 30 29 27 30 29 28 28 28 27 31 33 34 36 38 39 40 41 42 42 42 42 42 42 42 42 46 51 56 56 56 56 55 56 57 57 58 59
45 45 46 43 37 40 38 32 31 29 28 26 31 25 26 25 31 33 34 36 37 39 41 41 42 42 42 42 42 43 43 42 42 43 45 47 49 49 51 53 51 50 51 52
41 43 44 44 39 32 33 30 29 30 27 26 25 25 26 26 29 31 33 34 37 40 41 41 42 42 43 43 43 43 43 43 43 43 43 43 43 44 46 45 44 45 46 48
38 42 44 42 37 31 32 28 29 29 26 24 25 25 25 25 26 31 33 34 37 40 41 41 42 42 42 42 42 43 43 43 43 44 44 43 43 43 44 44 44 45 45 46
34 35 33 31 28 30 28 27 26 24 24 24 25 25 24 25 27 31 33 34 36 39 40 40 41 41 41 41 41 42 43 43 44 44 44 45 45 45 44 44 44 43 43 43
31 32 27 26 28 27 27 28 26 21 23 22 24 21 22 27 29 32 35 34 36 38 40 40 41 41 41 41 41 43 44 44 44 44 45 45 45 45 44 44 44 43 43 43
30 28 27 26 26 28 26 27 29 27 26 25 25 25 26 33 33 34 35 35 35 38 39 40 40 40 40 41 42 43 44 44 44 44 44 44 44 43 43 42 42 41 40 38
30 24 28 26 26 24 27 28 25 27 24 21 22 23 25 29 32 35 35 34 35 37 39 40 40 40 41 42 43 43 42 41 41 41 42 42 43 41 41 39 38 37 36 36
30 27 30 27 27 25 23 22 24 26 25 21 20 22 25 25 32 34 35 35 35 36 39 40 40 40 42 43 42 41 39 38 38 39 39 39 39 37 35 32 32 32 32 31
37 30 27 28 33 30 28 25 23 23 22 22 21 22 26 30 31 35 35 36 36 36 38 39 40 42 42 42 39 37 36 35 36 36 35 36 32 28 27 27 27 26 25 26
37 33 30 30 32 34 32 28 25 27 27 24 21 22 27 29 28 32 35 36 36 37 39 38 41 42 41 40 37 34 33 32 33 32 33 30 26 25 25 25 24 22 22 22
39 33 29 25 29 32 31 31 28 27 25 24 24 26 26 30 31 34 35 36 36 38 37 38 42 41 39 37 33 31 29 28 29 28 28 23 22 22 22 22 21 20 20 18
31 28 28 28 28 31 31 32 30 27 26 24 24 26 25 27 29 28 31 33 37 38 35 39 41 40 37 34 30 28 26 26 25 25 22 20 20 19 19 19 18 17 17 16
31 28 25 21 25 23 22 25 32 31 30 28 29 27 29 29 30 33 36 35 37 35 35 41 40 37 35 32 28 25 24 23 19 20 15 16 16 16 16 15 15 15 15 14
27 24 20 18 25 25 20 24 23 22 24 24 19 21 29 33 35 36 37 36 36 34 39 41 37 36 33 27 25 23 20 14 11 15 13 14 15 15 15 15 14 14 14 13
28 26 26 21 25 19 22 29 28 25 28 26 31 32 34 35 36 36 37 37 35 36 40 37 35 32 27 24 22 17 13 9 10 12 12 14 15 14 14 14 13 13 13 13
30 29 27 26 23 24 28 29 27 28 31 33 33 34 35 35 34 34 38 37 36 38 37 35 32 29 23 19 15 9 8 8 10 11 12 13 14 14 14 13 13 13 13 14
30 29 28 27 24 23 27 31 32 28 30 35 36 36 37 36 32 34 37 38 37 36 34 32 29 24 20 13 8 7 8 8 8 11 12 13 14 14 14 13 13 14 14 15
26 27 26 28 26 27 29 31 32 25 23 35 34 36 34 33 36 37 38 37 36 34 32 28 26 21 14 8 8 9 9 8 10 12 14 15 15 14 14 14 14 15 15 15
25 25 26 28 26 24 33 33 30 31 36 34 33 33 34 36 37 38 38 36 34 31 28 25 21 15 9 10 10 9 8 10 12 14 14 15 15 15 14 14 15 15 16 16
29 30 28 28 28 32 34 33 34 34 33 34 34 35 34 36 37 38 37 36 35 30 22 19 17 14 11 12 11 9 10 12 13 14 14 15 15 15 15 15 15 16 16 15
31 33 31 31 32 34 33 34 35 36 36 36 35 35 35 34 35 36 36 35 31 25 20 17 14 11 10 11 11 11 12 13 14 14 14 15 15 16 16 17 17 16 15 16
32 34 33 33 33 34 34 35 35 35 35 35 35 34 34 33 33 33 34 34 30 23 19 15 13 11 11 11 11 12 13 14 14 14 15 15 16 16 16 17 16 15 16 20
35 34 32 31 34 33 34 35 35 35 34 35 34 33 33 33 33 34 34 33 24 20 16 14 12 11 11 12 13 13 15 15 15 15 15 16 17 17 17 16 15 21 23 25

GFSCGP_sfc_dewp_012.txt.gz
Dewpoint
50 47 42 42 42 39 34 31 32 28 29 27 27 28 28 29 28 27 29 34 37 38 40 42 42 41 41 41 42 43 46 50 56 57 56 56 56 57 57 58 58 56 55 55
49 43 44 43 41 38 32 30 29 32 30 27 28 27 29 29 27 26 30 34 37 39 40 41 41 41 41 41 41 41 42 44 51 56 57 57 57 58 58 57 55 55 58 58
43 44 45 43 38 37 34 33 33 33 30 29 28 27 28 27 30 32 33 36 38 39 40 40 41 41 42 42 42 42 42 42 43 46 51 51 52 51 50 50 48 49 49 47
45 48 45 43 42 40 39 35 32 30 28 26 28 24 27 25 29 32 34 37 38 40 41 41 41 42 42 42 42 43 43 43 43 43 44 44 45 45 46 47 45 45 46 46
43 46 45 43 42 42 40 35 33 32 29 25 27 25 25 26 28 31 33 35 38 40 41 41 42 42 42 42 42 43 43 44 44 44 44 44 44 44 44 44 43 44 43 45
41 45 46 46 44 39 36 30 29 29 26 24 25 24 24 25 26 30 34 34 38 40 41 41 42 41 41 42 43 43 44 44 45 45 45 44 44 43 42 42 42 42 42 43
37 41 40 38 38 33 33 29 26 25 24 24 26 24 25 26 27 30 32 34 37 40 40 41 40 41 41 41 43 44 44 44 45 44 44 44 44 43 42 42 41 39 38 38
35 34 35 31 38 36 32 28 26 22 22 22 25 22 22 30 32 30 33 34 37 40 40 40 40 40 40 42 43 43 43 43 43 43 43 42 41 41 40 39 39 38 38 38
32 34 30 32 29 38 27 28 29 26 25 25 26 25 27 32 33 33 34 34 37 39 39 40 40 40 41 43 43 42 41 41 41 40 41 40 38 37 36 36 35 33 33 31
32 25 29 26 25 26 28 29 26 27 24 22 24 22 24 24 30 34 33 34 36 38 39 40 40 40 42 43 41 39 39 38 38 38 38 36 34 32 31 30 29 29 28 28
29 27 28 26 25 24 24 24 25 27 26 22 20 21 25 25 27 33 34 34 36 38 39 40 39 42 43 41 39 37 36 36 35 35 34 30 27 26 25 25 25 24 25 24
33 28 26 26 32 28 25 24 24 25 22 23 22 22 26 29 31 34 35 35 35 37 39 39 40 42 41 38 36 33 32 32 32 32 29 25 24 22 22 22 22 21 20 20
35 31 29 30 32 33 30 27 24 26 26 22 21 22 28 28 32 35 35 36 36 36 39 39 41 41 40 37 33 30 29 28 28 28 23 19 19 18 18 18 18 18 18 17
39 32 28 27 28 31 30 29 27 26 25 24 24 26 30 30 31 32 34 36 36 37 38 40 41 40 37 34 30 27 26 25 25 21 17 17 17 16 16 17 17 17 17 16
31 29 29 27 31 31 30 31 28 26 26 25 27 25 27 31 33 34 34 34 36 38 36 41 41 38 35 31 28 25 23 20 20 15 15 16 17 16 16 17 17 16 16 15
31 28 25 22 25 24 26 30 29 28 28 26 27 27 28 30 34 36 36 35 35 38 36 41 40 37 33 29 26 23 20 14 14 14 13 15 16 16 17 16 15 15 15 14
27 24 23 22 25 24 18 22 31 30 29 30 28 27 29 35 35 36 36 36 36 36 36 40 38 35 31 26 24 20 13 9 10 12 13 14 15 16 16 15 15 14 14 15
27 25 24 20 24 14 19 30 25 25 26 25 30 31 33 35 35 36 36 37 36 36 39 39 36 31 26 24 19 14 10 9 11 11 12 14 15 15 15 15 14 14 14 14
29 28 26 23 20 21 28 28 28 28 31 33 33 35 35 35 34 34 37 37 36 37 38 36 33 29 23 18 12 8 8 8 9 11 12 13 14 15 15 14 14 14 14 14
29 30 26 27 24 20 25 31 31 31 30 35 35 36 36 35 31 33 36 37 37 37 35 32 28 24 18 10 7 7 8 8 9 11 13 13 15 15 14 14 14 15 15 15
27 28 25 28 26 27 29 32 32 26 26 37 36 35 35 34 34 36 38 36 35 33 31 28 24 19 12 8 8 8 9 8 11 13 14 15 15 15 14 14 15 15 15 16
25 25 26 28 26 24 32 32 29 31 34 34 33 33 34 34 36 37 37 36 33 30 28 24 19 13 9 10 9 9 8 10 12 14 14 15 15 14 14 15 15 16 16 16
27 27 27 28 28 32 34 33 35 35 34 33 34 33 34 35 35 36 36 35 33 29 24 20 18 13 10 11 11 9 10 12 13 13 14 14 14 15 15 15 16 16 16 15
30 32 31 31 32 33 33 34 34 34 34 35 35 35 35 34 34 34 35 35 33 26 21 18 15 10 10 11 10 11 12 13 14 13 14 14 15 16 16 17 17 17 16 16
31 33 32 32 33 34 34 35 34 35 35 35 35 34 34 33 32 32 34 34 30 25 20 17 13 11 10 11 11 12 13 14 14 14 14 15 15 16 17 17 17 16 16 20
34 33 32 30 34 33 33 35 35 35 34 34 34 32 32 32 32 33 33 33 26 22 17 14 12 10 10 12 12 13 14 15 15 14 14 15 16 17 17 16 16 21 23 24

GFSCGP_sfc_dewp_015.txt.gz
Dewpoint
45 46 43 42 42 39 33 33 35 35 31 29 29 28 30 31 30 30 29 35 38 39 41 41 41 42 42 43 43 45 50 54 57 58 58 58 58 56 53 52 52 52 54 55
43 43 44 43 42 37 34 33 31 33 31 29 30 29 30 31 31 29 29 35 38 39 40 41 41 42 42 42 43 43 44 46 53 58 59 58 54 50 49 48 47 46 43 44
40 42 44 43 42 39 35 34 33 35 33 30 29 29 29 29 29 31 32 37 38 39 39 40 41 42 43 43 43 44 44 45 45 47 48 47 48 48 46 45 44 44 43 42
41 47 43 42 40 41 38 36 36 34 35 31 29 26 28 28 28 32 34 37 38 40 41 41 41 42 43 43 45 45 46 45 45 46 46 46 45 44 44 44 43 42 42 41
41 46 43 42 41 40 40 40 38 36 32 26 26 26 27 26 26 31 34 37 39 40 41 41 42 43 43 45 45 46 46 46 46 45 45 44 43 43 42 41 40 40 39 40
44 49 45 43 43 42 33 31 31 29 27 25 26 26 26 25 26 30 33 36 39 40 41 42 42 43 43 45 46 46 45 45 44 44 43 43 42 39 38 38 35 35 34 35
40 45 47 46 37 38 35 36 33 27 25 25 26 25 26 27 27 31 33 35 39 41 41 41 41 42 43 44 45 45 44 43 42 41 40 40 38 37 34 33 30 28 27 30
35 35 40 40 42 39 39 36 28 23 23 23 26 24 23 27 32 32 33 35 39 40 41 41 41 42 43 44 44 42 41 41 40 39 36 34 33 31 28 28 26 25 25 26
33 33 37 33 36 42 36 36 31 27 26 25 27 27 28 30 32 33 34 36 39 40 40 41 41 41 43 43 42 40 39 39 39 36 31 27 25 24 24 23 22 23 22 18
33 27 31 27 29 29 35 33 32 27 24 23 25 23 26 26 27 33 33 35 38 40 40 40 40 42 43 41 39 38 37 35 35 30 25 22 21 19 19 19 19 20 18 19
29 28 28 28 28 26 30 31 28 28 27 24 21 22 26 26 27 30 34 35 38 39 40 40 40 43 41 38 36 35 33 33 31 25 21 18 17 17 16 16 17 17 17 17
29 29 30 27 31 31 28 28 27 26 23 23 22 23 26 29 29 32 35 35 37 39 40 40 42 41 38 35 32 31 29 29 27 21 17 15 15 15 13 14 15 15 15 15
33 31 29 29 31 33 28 25 26 26 25 22 22 24 28 31 34 35 35 35 36 38 40 40 42 40 36 32 29 27 26 26 21 16 13 13 13 13 13 13 14 14 14 14
38 31 29 29 29 31 29 27 26 26 24 24 23 24 27 31 33 35 36 36 36 37 39 40 41 39 35 31 27 25 22 22 17 14 13 13 13 14 14 15 14 14 14 14
34 30 29 27 30 30 30 29 26 25 26 24 25 25 26 29 31 33 34 36 36 37 38 41 40 37 32 28 26 23 17 15 13 12 13 14 15 15 15 16 15 15 15 14
32 29 26 24 28 30 30 31 28 26 27 26 26 27 28 30 33 34 35 34 35 37 38 41 40 36 31 28 25 22 15 10 12 12 12 15 15 15 16 16 15 15 15 14
31 25 26 25 25 23 23 25 30 29 29 27 26 28 30 34 35 35 36 36 36 37 37 41 39 35 30 27 24 18 8 9 10 11 11 13 14 15 16 15 15 14 14 14
31 25 26 21 22 17 24 28 31 30 28 29 28 28 32 35 35 35 36 36 36 36 38 40 37 32 27 24 19 11 9 9 10 10 11 13 14 14 15 14 13 14 14 14
29 28 26 23 20 22 28 28 27 27 29 28 33 35 35 35 34 34 37 37 37 37 39 38 33 27 23 18 12 8 7 8 9 11 11 13 14 14 14 13 13 14 14 14
29 33 30 28 24 17 24 31 30 32 27 35 35 35 34 34 31 33 37 38 37 37 35 32 27 22 15 9 7 7 7 7 8 11 13 13 14 14 13 13 14 15 15 15
28 27 23 27 24 26 29 32 31 25 26 37 36 37 36 33 33 36 38 37 35 33 30 26 23 19 12 8 8 8 7 8 10 13 14 14 14 13 14 14 15 15 15 15
26 27 26 28 25 22 32 32 28 31 34 35 34 34 34 35 37 37 37 36 33 30 29 23 17 12 10 10 9 8 7 10 12 14 14 13 13 13 13 15 16 16 16 16
26 27 27 28 28 33 34 34 35 34 33 34 34 34 34 35 36 37 37 36 33 30 26 22 18 13 10 11 9 8 9 12 13 13 13 13 13 13 15 16 16 16 16 16
31 33 31 29 32 33 34 34 34 34 34 35 35 34 35 35 35 35 36 35 33 27 22 19 16 12 10 11 10 10 12 13 13 12 12 13 13 16 15 16 17 16 16 16
31 32 31 31 33 33 33 34 35 35 35 35 35 34 34 34 34 34 35 35 31 25 21 19 14 11 10 10 11 12 13 14 13 13 12 13 14 15 16 17 16 16 17 20
33 32 31 30 33 33 33 34 35 35 35 35 34 33 34 34 33 34 34 34 28 22 18 15 12 10 10 11 11 12 14 14 14 12 12 14 16 17 16 16 16 21 23 24

GFSCGP_sfc_dewp_018.txt.gz
Dewpoint
43 41 40 43 41 38 35 33 34 35 36 33 34 35 33 33 34 31 31 32 35 37 40 41 42 43 44 46 48 53 56 57 56 57 57 56 52 51 48 47 44 43 43 43
38 38 42 44 42 37 35 34 33 35 33 32 34 35 36 34 32 31 31 32 36 38 38 40 41 42 42 43 44 46 51 56 58 58 56 50 48 46 46 45 44 42 40 40
36 38 43 43 38 37 37 34 33 33 34 36 33 33 32 30 29 30 29 33 36 37 37 39 41 43 44 45 45 45 46 48 48 48 47 47 47 47 45 43 42 41 39 38
35 40 42 42 38 37 36 36 36 37 38 34 33 29 31 28 29 30 31 35 36 38 38 39 41 43 45 46 47 47 46 46 47 47 46 46 44 43 42 41 40 39 38 35
36 41 43 41 39 39 34 39 38 39 37 34 34 30 29 28 26 29 32 36 37 39 39 40 42 44 45 47 47 47 46 45 44 44 43 42 42 41 40 37 36 35 34 32
34 45 45 41 40 39 40 38 34 31 30 31 31 28 27 23 25 28 33 36 38 38 39 41 43 44 46 47 47 46 44 43 43 42 41 41 39 36 34 33 29 28 26 26
33 37 47 43 40 39 38 36 36 33 32 27 26 26 27 26 27 29 32 36 38 40 40 41 42 43 44 46 46 44 42 40 39 38 37 35 34 32 29 26 23 21 19 21
33 35 44 43 41 38 37 36 30 25 26 26 26 26 23 26 30 30 32 36 39 40 40 41 42 44 44 45 43 42 40 39 36 34 31 29 28 26 22 20 19 16 16 17
32 35 43 44 41 40 39 36 32 27 27 24 25 27 28 29 30 31 31 37 39 40 41 41 42 43 43 42 41 40 39 37 34 30 26 22 20 19 18 16 15 15 15 12
31 34 39 40 44 39 40 38 34 29 24 22 24 25 25 26 26 31 32 36 38 40 40 41 41 43 42 40 40 38 36 33 30 25 21 18 15 12 13 13 13 14 12 13
35 32 31 34 40 38 37 37 37 31 28 23 20 22 26 26 28 29 32 35 38 40 40 40 41 43 40 39 37 34 34 31 26 21 18 16 13 10 10 10 11 11 11 11
37 29 30 36 32 36 38 36 37 31 26 26 24 23 25 28 29 31 33 35 38 40 40 40 42 41 38 37 34 31 31 28 23 18 14 13 12 11 10 10 11 10 9 10
33 30 29 30 32 30 33 36 37 33 27 26 25 24 27 32 34 34 34 35 38 39 40 40 42 40 37 34 31 29 28 25 19 15 12 11 11 11 10 10 11 10 10 10
39 31 27 26 27 30 32 33 32 33 29 27 25 26 26 31 33 35 35 35 37 39 40 40 41 40 37 33 29 26 25 21 15 12 12 12 12 12 12 12 12 11 11 11
37 30 30 29 31 29 30 31 30 31 31 28 28 27 27 27 32 35 36 35 36 37 39 40 41 39 36 32 28 25 21 17 12 10 12 13 13 13 13 13 13 12 13 12
37 32 29 26 29 30 28 29 31 33 33 31 28 28 29 29 32 32 35 36 36 36 38 40 41 40 35 31 27 25 18 13 11 10 10 12 12 13 15 14 13 13 13 13
36 33 29 28 26 28 27 29 29 28 28 28 27 29 30 31 31 33 35 35 36 37 38 40 41 39 34 30 28 23 14 10 9 9 9 10 11 13 13 13 12 13 13 13
35 31 29 27 25 28 28 28 30 30 29 29 29 29 31 32 35 36 36 36 37 37 38 41 40 37 32 28 24 15 11 9 8 9 8 10 12 11 11 10 10 12 12 12
38 33 32 26 24 25 23 28 28 30 30 31 31 30 34 35 35 36 37 37 37 38 39 40 39 33 28 24 18 14 9 7 7 8 8 10 10 10 10 10 11 11 12 12
34 42 37 32 27 23 23 30 29 30 24 31 31 33 34 35 32 34 37 38 38 39 39 37 32 28 25 18 13 12 8 5 6 8 10 10 10 10 9 11 12 12 12 12
30 34 35 35 33 24 29 31 32 24 27 35 34 35 35 33 35 37 37 37 37 36 34 30 27 25 20 14 10 8 7 6 8 10 11 11 10 10 10 11 12 12 12 12
32 32 33 33 28 27 32 31 28 33 37 37 37 36 36 36 37 37 37 36 34 32 30 27 25 21 15 12 10 8 5 9 10 11 11 11 10 10 10 12 12 11 11 11
29 32 26 28 28 34 34 34 36 37 36 35 35 35 36 36 36 37 37 36 34 31 28 26 24 18 13 11 8 6 8 11 11 11 10 10 10 10 12 11 11 10 10 10
30 32 30 30 32 33 34 35 35 35 35 35 35 36 36 36 37 37 37 37 34 31 28 25 21 17 13 11 10 9 11 11 11 9 9 10 10 12 11 12 11 10 10 12
32 33 32 32 33 34 34 35 35 35 36 35 35 35 36 36 35 36 36 36 35 30 26 24 23 19 12 9 9 10 11 12 10 9 9 10 11 11 11 10 10 12 14 19
33 32 31 30 33 34 34 35 36 36 36 36 35 35 35 36 36 35 36 36 33 29 25 23 19 12 9 9 9 11 12 12 12 10 10 11 13 11 10 10 11 18 21 23

GFSCGP_sfc_dewp_021.txt.gz
Dewpoint
39 39 37 37 43 38 37 36 35 35 33 34 34 34 32 32 33 33 32 29 32 36 39 41 43 44 45 49 53 55 55 56 56 57 57 54 51 49 47 45 43 42 41 41
37 36 36 35 39 43 37 35 34 32 34 34 33 31 33 33 34 35 33 30 32 37 38 40 40 41 41 44 48 53 55 56 57 53 52 50 47 46 45 45 42 40 38 38
34 34 36 32 40 41 38 36 31 30 33 34 33 33 34 35 35 34 31 30 33 37 37 39 40 43 44 44 45 47 48 48 49 49 49 48 47 47 43 42 41 39 36 33
35 36 36 34 38 42 38 35 34 31 34 31 35 27 29 29 31 30 29 30 35 37 37 38 41 43 45 46 46 46 46 46 46 47 46 45 43 41 40 40 39 37 35 31
33 36 36 36 38 43 35 36 34 35 34 35 35 33 29 30 27 29 29 32 36 37 37 39 42 44 45 47 47 46 44 43 43 42 42 41 40 39 38 36 34 32 31 28
32 38 38 37 40 44 40 36 36 35 35 32 32 31 26 27 27 26 30 34 36 36 38 41 43 45 47 47 46 45 43 41 41 41 40 39 38 36 35 33 30 28 25 25
34 35 41 43 42 45 39 37 35 32 31 26 28 29 27 25 27 28 31 34 36 38 39 41 42 44 45 45 45 42 40 38 38 37 35 35 34 33 30 27 24 22 21 21
33 31 38 40 44 41 40 37 27 25 24 24 27 25 25 27 28 28 32 35 37 38 40 41 42 44 45 45 42 41 39 36 34 33 31 30 30 27 24 21 20 18 17 17
33 33 37 45 46 41 39 33 33 27 27 25 27 27 26 28 30 30 31 35 37 38 40 40 42 43 44 43 42 41 38 35 32 30 27 24 22 21 20 18 17 17 15 11
36 33 36 44 42 42 39 36 32 29 24 22 24 24 24 26 26 30 30 35 37 38 39 40 42 43 42 41 40 39 36 33 30 27 25 21 18 15 15 15 14 13 11 11
40 36 35 41 42 39 38 36 36 31 28 23 22 22 26 26 27 29 31 35 37 38 39 40 41 42 41 40 39 36 33 30 27 25 22 20 16 14 14 13 11 10 9 9
40 38 34 37 36 39 40 36 35 30 28 26 24 23 25 28 30 30 32 34 37 39 40 40 41 42 40 39 36 34 33 29 27 22 19 18 17 16 14 11 10 9 8 9
38 33 34 34 36 38 38 38 38 35 31 28 23 24 28 32 32 32 33 35 38 39 40 40 41 40 39 37 34 32 31 27 23 19 18 17 16 15 12 10 10 9 10 10
39 32 28 27 31 36 36 38 36 35 31 29 27 25 26 31 33 33 34 35 37 39 40 40 41 40 38 36 33 30 29 25 20 18 17 16 15 13 13 12 12 11 11 12
38 31 29 27 29 33 34 35 36 35 34 30 28 27 26 28 31 33 34 35 37 38 39 40 41 40 38 35 32 29 27 21 17 15 15 15 15 13 12 13 13 12 13 13
39 31 30 28 30 29 28 30 33 33 33 31 29 29 31 30 29 33 34 35 36 37 39 39 41 40 38 34 31 27 23 19 16 13 12 13 12 12 14 13 13 13 14 14
37 35 31 27 28 29 28 29 29 30 31 30 29 31 32 30 31 32 35 35 35 36 38 40 41 41 38 34 30 26 21 16 14 12 10 9 10 11 12 12 12 13 14 14
36 35 34 32 27 28 29 28 30 30 29 31 32 31 30 31 31 33 35 35 36 37 38 40 41 40 36 32 29 22 17 14 12 11 9 9 10 9 10 10 10 13 12 13
38 37 33 29 27 27 28 26 27 29 30 31 30 30 30 35 36 36 36 36 37 37 40 41 41 37 33 29 23 19 15 12 10 9 8 8 8 9 9 10 11 12 12 13
42 40 37 33 28 26 25 29 28 31 27 30 32 31 33 36 32 34 37 38 39 40 40 40 37 32 29 24 20 18 13 9 8 8 8 8 9 9 9 10 11 13 13 13
37 38 37 37 33 33 29 30 31 24 30 31 32 33 35 34 36 37 37 37 38 38 36 33 31 29 24 19 18 15 10 9 7 9 9 9 9 9 10 12 12 13 12 13
33 36 36 38 36 32 32 31 27 35 36 34 35 36 37 37 37 37 36 36 35 34 32 30 28 23 20 17 17 12 8 8 9 10 10 10 10 10 10 12 12 11 11 11
35 33 32 35 34 34 34 35 36 37 37 37 37 36 36 36 36 36 36 35 33 32 30 28 26 21 18 15 11 10 9 9 9 9 9 9 11 11 11 11 11 11 10 9
31 31 30 28 31 33 34 35 36 37 36 36 36 36 35 36 36 37 36 35 33 31 29 28 25 21 17 14 10 9 9 10 9 8 8 11 11 12 11 13 11 9 9 11
31 31 31 31 33 34 34 36 36 35 36 36 35 35 35 36 36 36 36 36 34 32 30 28 26 22 18 12 9 8 10 10 10 9 10 11 12 11 12 11 9 9 11 17
33 31 29 28 32 33 34 35 36 35 36 36 36 36 37 36 36 36 36 36 34 31 29 28 27 21 13 9 8 9 10 11 11 11 12 12 13 11 11 9 9 17 20 21

GFSCGP_sfc_dewp_024.txt.gz
Dewpoint
37 36 35 36 37 37 35 35 36 36 38 37 36 34 35 36 36 34 34 32 32 37 40 41 44 46 50 54 54 55 56 56 57 57 56 51 49 46 45 44 41 40 40 41
34 34 34 34 35 36 37 38 38 37 37 37 35 34 35 34 34 33 33 33 32 38 39 41 42 43 46 51 54 55 56 54 52 52 50 49 46 46 45 44 40 37 35 35
32 32 35 32 33 33 33 37 37 38 35 35 33 33 33 33 32 33 34 36 34 38 38 39 41 44 44 46 48 48 49 49 49 48 47 46 47 46 43 42 40 37 32 30
31 32 31 35 32 33 32 36 39 40 36 33 34 28 31 32 32 33 34 33 36 37 38 40 42 45 45 46 47 47 47 47 48 48 47 45 43 41 41 40 39 37 31 28
33 33 32 32 34 35 32 38 40 40 38 37 37 33 33 32 30 32 30 30 36 37 38 41 44 45 46 47 46 44 43 43 43 43 42 42 40 40 38 36 33 30 30 27
33 36 37 32 33 35 36 38 40 42 38 34 32 34 30 29 29 29 30 32 36 36 39 42 45 46 47 47 45 43 41 41 41 40 39 38 36 35 34 30 29 28 27 28
33 34 35 38 35 34 36 37 32 33 34 32 32 31 31 26 27 29 30 34 36 37 40 43 44 46 45 45 43 41 40 38 37 36 34 34 32 29 26 25 24 22 22 23
28 23 36 37 37 36 38 35 33 28 29 25 28 29 28 28 28 30 33 36 37 38 41 42 44 45 45 44 41 39 37 34 33 31 29 28 28 27 24 21 21 19 19 18
32 31 37 35 39 40 36 33 38 30 24 25 27 27 25 30 30 30 34 36 37 38 41 41 43 44 44 42 41 38 35 33 30 28 25 21 20 19 19 17 17 18 16 12
32 30 37 39 42 43 41 40 34 33 24 25 27 26 25 27 30 29 34 36 37 39 40 41 43 44 43 42 40 37 34 31 29 26 23 19 16 15 15 15 13 13 11 12
35 33 35 38 37 36 41 39 36 33 31 27 23 24 27 27 30 30 32 36 37 38 39 41 42 42 41 40 39 34 31 29 27 24 21 18 16 16 15 13 12 10 11 10
36 36 33 35 40 43 41 37 36 29 31 31 25 23 28 29 29 31 31 36 38 39 40 41 42 41 40 39 36 33 30 28 25 21 19 19 18 16 13 11 11 11 10 11
39 37 32 34 39 43 40 37 36 35 33 30 24 24 31 32 31 32 33 37 38 39 40 40 42 40 39 37 35 33 29 26 22 20 19 18 16 14 12 12 12 12 12 12
44 38 35 34 36 38 37 37 37 36 32 29 27 25 30 32 32 33 34 37 38 39 39 40 41 39 38 36 33 31 27 23 20 19 18 17 15 14 13 13 14 14 13 13
38 37 37 37 37 37 37 37 37 36 35 31 29 25 28 32 33 34 34 37 38 39 39 40 41 39 37 35 32 29 25 21 18 18 19 17 16 14 14 16 16 15 15 15
35 35 33 29 37 38 35 36 37 36 35 35 34 30 29 30 33 33 34 36 37 38 39 40 41 39 36 33 30 27 23 19 18 16 16 16 14 13 16 15 15 14 15 15
36 36 32 28 29 30 28 30 35 35 36 35 33 32 33 30 33 33 34 35 37 38 39 40 41 39 36 33 27 24 20 17 15 14 12 12 12 13 14 13 13 14 14 14
35 35 37 34 28 25 28 29 30 30 31 34 32 32 32 31 34 36 36 35 36 38 39 41 41 39 34 31 28 20 18 16 15 13 11 12 12 11 12 11 11 12 13 13
37 37 35 31 27 29 28 27 28 30 30 31 31 33 35 36 36 36 37 38 38 39 40 41 39 35 31 26 19 18 15 13 13 12 9 9 10 10 11 11 11 12 13 13
41 41 36 30 27 26 28 29 29 31 28 32 32 32 35 36 33 35 38 39 40 41 40 37 34 30 27 21 19 15 14 11 10 10 10 9 10 10 10 10 12 13 13 13
38 38 36 34 31 33 30 30 31 26 29 33 33 35 36 35 36 37 38 38 38 37 34 32 30 28 22 21 19 14 10 10 9 10 10 11 11 10 10 12 13 13 12 13
36 36 36 36 34 30 32 31 29 35 35 34 37 37 37 37 37 37 37 36 34 33 32 30 23 21 19 19 16 13 9 9 10 11 11 12 11 11 11 12 13 12 12 11
35 36 36 38 37 35 35 35 36 37 36 37 37 37 37 36 36 36 35 34 33 31 30 26 22 20 17 16 13 11 10 10 10 10 9 10 11 12 12 12 12 11 11 10
36 33 31 32 32 33 34 35 36 38 37 37 37 37 37 36 36 35 34 33 31 30 29 25 21 18 15 12 10 10 11 11 10 9 9 11 12 14 12 14 13 11 9 11
32 32 32 31 33 34 35 35 36 36 36 36 36 37 37 37 36 36 35 34 32 31 30 27 24 19 16 12 10 11 11 11 11 10 11 12 14 13 13 13 10 9 11 16
32 31 31 30 33 33 34 36 36 36 36 37 36 36 37 37 36 37 36 35 33 30 29 28 26 17 13 10 9 11 12 12 12 12 14 14 15 14 14 11 10 18 20 22

GFSCGP_sfc_dewp_027.txt.gz
Dewpoint
38 35 32 34 38 36 34 34 35 37 38 38 38 38 39 38 37 36 35 32 34 38 41 43 46 49 53 54 55 56 57 57 57 51 48 45 44 42 41 38 36 35 36 35
35 33 34 35 34 38 35 35 35 36 39 38 38 38 38 37 36 36 36 35 37 39 41 43 44 47 51 53 53 54 53 52 52 51 49 47 44 43 42 40 34 31 30 31
32 31 33 33 33 34 34 34 34 33 37 39 38 37 37 37 36 35 36 35 38 39 40 41 42 45 47 48 49 49 49 48 47 46 45 44 45 43 41 39 36 30 27 27
33 33 31 34 33 32 31 32 31 32 35 34 38 35 34 35 33 33 32 34 37 39 40 41 43 44 45 46 47 47 48 47 47 46 46 44 41 40 40 39 36 31 26 24
34 33 31 30 31 34 31 33 33 33 35 37 36 36 34 32 32 33 33 35 37 39 40 42 44 45 46 45 43 42 42 43 43 42 42 41 39 39 37 33 30 28 25 23
36 37 37 32 31 32 34 33 34 35 35 32 35 37 33 32 32 32 33 36 37 39 42 44 46 46 45 43 42 41 40 39 39 39 38 37 35 31 28 26 26 26 25 25
34 35 36 38 35 36 34 32 26 26 28 27 35 35 35 31 28 32 31 36 37 40 43 45 45 44 44 42 40 39 37 36 34 33 32 30 26 24 23 23 21 20 20 20
26 24 34 35 33 31 33 31 25 20 22 25 36 34 30 36 29 31 35 36 38 42 44 45 45 44 43 41 39 36 34 32 30 28 27 26 24 24 22 20 19 18 17 17
29 29 35 34 34 32 31 30 31 32 33 30 32 29 26 29 31 35 35 37 39 42 43 44 45 44 43 40 37 35 32 30 28 25 22 19 19 18 17 16 16 16 14 12
33 28 31 34 38 35 35 34 30 32 26 28 27 24 24 28 29 34 35 36 39 41 42 44 44 44 42 39 36 33 30 28 26 22 18 16 15 15 14 13 11 11 11 11
36 33 32 36 36 34 35 35 33 34 29 29 25 25 27 29 29 34 35 36 39 41 41 43 44 42 41 38 35 31 28 26 24 20 17 16 16 14 13 11 11 10 11 11
37 36 30 33 39 39 38 35 35 29 32 33 25 23 28 29 30 33 35 37 39 40 41 43 43 41 39 37 32 29 28 25 22 20 18 18 16 13 11 11 11 12 11 12
38 33 31 33 38 41 38 38 37 38 38 32 25 23 32 30 30 31 36 37 39 40 41 42 40 39 38 35 32 29 26 22 21 20 18 17 15 13 12 12 13 13 13 13
39 37 33 33 36 37 35 39 41 38 34 33 28 28 30 30 31 33 36 37 39 40 41 41 40 39 37 35 32 27 24 21 20 19 18 16 14 13 13 14 15 15 14 14
41 35 38 38 36 37 37 38 38 38 38 32 28 29 31 31 32 33 37 38 39 39 40 41 39 38 36 34 30 25 21 20 19 19 19 17 15 14 15 16 15 15 15 15
39 36 37 37 37 36 36 37 38 38 37 36 35 33 30 33 34 33 37 38 38 39 40 41 39 38 35 31 27 22 20 19 19 17 17 16 14 14 15 14 14 14 15 15
35 36 37 31 35 35 32 36 37 37 36 36 34 34 31 33 33 33 36 38 38 39 40 40 39 37 34 29 25 20 18 17 15 15 13 14 14 13 14 13 13 13 13 14
36 35 37 33 28 24 29 30 36 38 37 37 36 34 32 34 36 37 36 38 38 39 40 41 39 36 32 27 22 18 16 15 15 14 13 13 13 11 12 11 11 12 13 13
36 37 35 29 28 29 29 27 28 30 30 33 36 34 35 36 36 36 39 39 38 40 41 41 37 32 28 22 18 16 15 15 14 12 10 10 10 10 11 10 10 12 13 13
39 40 36 28 26 25 27 29 29 30 28 33 32 34 34 35 31 35 39 40 39 38 36 32 29 24 19 18 15 13 13 12 11 10 11 9 10 10 10 10 11 13 13 13
36 38 36 32 31 31 32 30 31 25 26 35 34 35 35 33 34 37 38 36 34 33 31 29 25 21 19 16 15 13 11 10 10 11 11 11 11 10 10 12 12 13 13 13
35 35 35 33 33 28 32 29 26 31 35 37 37 37 37 37 38 37 35 34 33 31 28 25 21 20 19 16 13 12 9 10 11 12 11 11 10 11 12 12 13 13 12 12
34 36 37 36 34 36 35 34 36 37 36 37 37 37 37 37 36 35 33 32 31 28 23 22 19 18 16 14 11 9 9 11 10 10 9 10 12 12 13 12 13 13 12 10
37 38 35 36 34 33 34 35 36 37 37 37 37 37 36 35 34 33 32 31 29 26 23 20 17 15 12 12 11 11 11 11 10 9 10 12 13 16 13 14 13 11 10 12
35 34 33 31 34 33 34 35 37 37 37 37 37 36 36 35 34 33 32 30 29 27 23 20 18 15 12 10 11 11 11 11 10 11 12 13 15 14 14 14 11 13 13 18
32 32 32 32 33 32 33 36 36 36 36 37 37 37 37 36 35 34 32 31 30 28 26 23 20 16 12 10 11 12 13 13 12 12 14 15 16 15 14 12 13 19 20 22

GFSCGP_sfc_dewp_030.txt.gz
Dewpoint
38 35 32 33 37 36 34 32 33 35 37 38 37 37 37 40 40 38 37 37 35 36 40 42 47 51 54 54 55 56 57 55 49 47 44 43 41 38 36 34 33 33 32 32
36 33 34 34 34 36 37 35 33 33 34 35 37 38 38 38 38 39 38 37 34 39 41 44 48 51 54 54 55 55 55 53 50 47 45 42 41 39 35 32 29 28 28 28
33 31 33 34 33 33 33 34 33 32 33 33 30 33 36 38 40 38 38 38 36 39 41 44 47 50 51 51 51 50 50 48 46 44 42 41 39 39 36 34 30 26 25 26
34 34 32 32 32 33 31 34 34 31 30 28 36 30 34 36 37 38 37 36 37 39 42 43 46 47 48 48 48 48 47 46 45 44 41 39 38 37 38 36 30 26 23 23
33 33 32 31 30 33 31 32 31 31 29 30 29 31 33 37 35 37 37 35 36 39 41 43 46 46 46 46 45 45 45 45 45 44 41 40 38 38 36 32 27 23 22 22
37 37 36 33 31 32 35 33 33 33 32 29 27 29 28 34 34 35 36 34 37 39 41 44 45 45 43 42 42 42 42 42 41 40 38 37 34 30 28 27 26 24 23 22
35 35 37 37 33 34 31 31 26 24 24 21 25 29 28 35 37 34 33 34 38 40 43 44 44 42 41 40 39 38 38 36 36 34 32 29 27 24 22 22 21 19 18 19
22 20 34 37 34 31 32 30 26 16 16 17 33 29 30 35 34 34 33 35 38 42 43 44 43 41 40 38 37 35 33 31 30 28 25 23 22 24 22 19 19 17 16 16
25 25 35 33 34 32 31 30 29 28 28 28 29 32 34 36 32 34 35 37 40 42 44 43 42 41 39 37 35 32 30 28 26 24 22 20 19 19 17 15 15 15 13 11
30 25 33 33 36 35 30 31 27 30 15 20 29 28 20 28 31 35 36 38 41 43 44 43 42 41 38 35 33 30 28 25 22 19 17 17 16 15 13 12 10 10 11 11
32 33 30 35 33 31 33 30 29 26 27 25 27 29 28 28 32 34 36 39 42 43 44 43 42 40 37 34 31 28 26 22 19 17 16 16 15 13 12 11 10 10 11 11
36 35 29 30 34 34 32 30 29 24 21 26 30 26 31 29 34 35 36 39 41 43 44 44 42 39 35 32 30 27 24 21 19 18 17 16 14 12 11 11 12 12 11 12
37 34 27 31 34 37 31 33 30 28 34 25 26 26 31 30 33 35 36 39 41 42 43 43 41 38 35 31 28 26 23 20 20 19 17 15 14 13 12 12 13 13 13 13
40 35 32 29 33 37 35 33 33 29 29 25 31 33 31 30 31 36 37 39 40 42 42 42 40 38 34 30 28 25 21 20 19 18 17 15 14 13 13 14 14 15 14 14
38 33 34 34 35 37 35 36 36 32 31 28 27 33 35 30 31 36 37 39 40 41 42 41 39 38 33 30 26 22 20 19 19 18 18 16 15 15 15 15 15 14 15 15
40 33 35 35 39 38 37 37 36 37 36 34 36 34 32 33 34 36 37 38 39 40 41 40 39 37 33 29 25 20 19 20 19 19 18 17 15 15 15 14 14 13 14 14
37 36 35 34 36 37 35 35 39 37 40 41 37 33 33 32 33 36 37 38 39 40 41 40 38 37 33 27 22 19 18 18 17 17 15 14 15 14 14 13 12 12 13 13
33 34 37 35 29 24 29 29 38 37 37 37 36 32 32 34 36 36 37 38 39 40 41 40 38 35 31 25 21 18 17 16 16 14 14 15 14 11 12 11 11 11 12 12
40 35 37 31 28 28 27 27 31 36 35 37 37 34 35 36 36 36 39 39 40 40 41 40 37 31 26 20 18 16 15 15 15 13 12 11 11 10 10 10 10 11 12 13
38 38 37 29 25 25 28 29 29 30 28 33 33 34 35 35 33 34 38 39 39 39 37 33 29 25 20 18 16 15 14 13 12 11 11 10 11 10 10 10 11 12 13 13
36 35 33 30 30 30 33 30 31 25 24 34 34 35 35 32 34 38 35 33 33 31 27 26 24 21 17 15 14 13 12 11 11 11 11 11 11 10 11 12 12 13 13 13
35 33 34 35 29 25 32 28 25 28 36 37 37 37 37 38 36 34 33 31 29 26 24 22 20 17 15 15 14 12 9 11 12 12 11 11 10 11 12 12 13 13 12 11
34 35 35 34 33 35 35 34 36 37 36 37 37 38 38 36 35 34 32 29 26 24 22 21 19 16 15 14 11 10 10 11 11 10 9 11 12 13 13 13 13 12 12 12
35 38 37 36 36 36 34 37 37 37 37 37 37 37 37 35 34 32 30 26 24 22 20 19 16 14 13 11 11 10 11 11 10 9 11 13 13 16 14 14 13 12 13 14
36 37 34 34 33 33 34 35 37 37 37 37 37 36 35 33 32 31 29 27 24 21 19 18 15 12 11 11 11 11 11 11 10 11 12 13 15 15 14 13 12 15 16 19
32 35 35 34 33 33 32 36 37 37 37 37 36 35 35 33 32 31 29 28 24 22 20 18 15 11 11 11 11 12 13 12 12 11 13 15 17 14 14 13 14 19 20 22

GFSCGP_sfc_dewp_033.txt.gz
Dewpoint
37 34 31 31 35 36 35 32 31 33 35 35 35 37 38 39 39 40 40 39 38 38 37 40 42 47 50 52 52 51 54 49 49 47 44 42 40 37 35 33 31 30 30 31
35 32 34 34 34 35 35 34 32 33 34 32 32 32 34 32 33 39 39 40 40 37 39 41 45 51 53 53 54 55 52 49 49 46 43 41 38 34 31 30 27 27 26 27
32 30 33 33 33 32 32 31 30 31 33 33 32 28 25 28 35 38 40 39 39 38 38 41 47 51 52 53 54 54 51 48 45 42 39 36 33 32 29 27 26 25 24 25
34 34 33 32 31 33 30 32 32 32 32 26 32 23 26 29 32 36 38 39 39 37 38 41 48 50 51 52 51 50 48 45 42 41 38 36 34 32 35 30 25 23 22 22
32 34 33 32 31 33 30 32 33 34 31 29 28 25 25 30 29 33 38 39 39 38 40 43 48 50 50 49 48 47 46 44 43 41 39 38 37 35 32 26 22 20 21 20
33 37 36 33 32 32 34 33 34 36 31 25 25 27 21 22 29 35 37 38 38 37 40 44 47 47 45 45 45 45 45 43 42 40 39 37 34 30 27 26 24 22 21 21
34 36 37 37 33 33 31 33 25 24 25 21 24 25 24 24 32 35 36 36 37 38 42 45 46 45 43 43 43 43 43 40 38 36 35 32 29 27 24 23 22 19 17 18
24 20 32 36 34 31 31 31 26 19 19 19 25 23 23 27 27 25 27 35 36 39 43 45 45 44 42 41 41 40 38 35 32 30 27 25 24 24 22 20 19 17 16 16
26 24 33 35 34 33 32 30 30 27 29 26 25 25 25 28 30 34 34 34 37 40 43 45 43 41 40 38 37 36 33 30 27 24 22 21 21 19 17 15 15 15 14 12
27 23 31 34 35 34 31 31 27 29 19 18 21 24 20 21 20 17 32 35 38 41 43 43 41 39 37 35 32 31 29 26 23 20 19 17 15 14 13 12 11 11 11 12
31 31 30 35 33 30 32 31 29 25 25 20 18 21 31 25 22 23 35 38 41 43 43 41 40 38 35 32 30 26 23 21 19 18 16 15 14 12 11 11 11 11 12 12
32 34 28 28 34 34 32 31 30 23 20 23 27 22 30 31 30 35 39 40 43 43 42 41 38 35 33 30 27 24 20 18 17 17 16 15 13 12 11 11 12 12 12 13
36 33 26 28 33 36 34 35 34 28 26 21 17 16 32 27 35 35 40 43 44 43 42 40 37 34 31 29 25 22 19 18 18 17 15 14 13 12 12 13 13 13 13 14
39 35 31 26 30 34 32 33 34 30 24 24 23 21 21 24 34 37 40 43 44 43 42 40 37 34 31 27 25 21 19 18 18 17 16 15 14 13 14 14 14 14 14 14
38 32 34 34 34 35 35 32 31 29 26 24 24 27 28 28 33 38 41 41 42 42 41 40 37 34 30 27 23 20 19 19 18 17 18 17 15 15 15 15 15 14 15 14
40 33 34 32 34 35 35 35 31 31 27 29 33 30 32 33 36 37 39 40 41 42 41 40 37 33 29 26 22 20 19 19 19 18 18 17 16 16 16 15 13 13 13 14
37 35 34 31 36 36 33 36 32 33 32 29 33 33 33 33 34 37 38 40 41 42 41 40 37 33 30 25 21 19 19 19 18 17 16 16 16 16 15 13 12 12 12 13
36 36 35 33 33 28 33 39 38 36 37 38 38 38 38 37 35 37 38 39 40 41 41 40 37 34 28 23 20 19 18 18 17 16 15 16 15 13 12 11 10 11 12 12
38 37 36 33 28 29 28 38 38 36 35 39 39 40 35 37 36 36 39 39 40 41 40 39 36 31 25 21 18 17 17 16 15 14 13 13 12 11 10 10 11 11 12 13
39 40 36 32 26 24 28 29 30 33 33 37 39 37 35 35 33 35 39 40 41 41 39 34 30 25 21 18 17 16 15 14 13 12 12 11 11 10 10 11 12 12 13 13
36 36 34 31 29 30 33 32 31 25 24 34 34 36 35 34 37 36 35 34 36 35 31 28 26 23 18 16 16 14 13 12 12 12 12 12 11 11 12 12 13 13 12 12
33 31 32 33 29 23 33 28 25 28 36 37 36 36 37 35 34 32 31 29 29 28 26 23 19 17 16 16 15 13 12 12 12 13 12 11 12 12 12 13 13 12 12 12
32 34 33 34 32 35 35 34 36 36 36 36 37 38 35 34 32 30 27 26 25 23 22 20 17 15 15 15 13 11 11 12 11 10 11 12 13 13 13 13 12 12 13 14
35 37 36 35 35 35 35 37 37 37 37 37 38 37 35 33 30 26 25 24 23 22 19 18 16 15 12 12 11 11 12 11 10 10 12 13 14 15 14 14 13 13 15 16
36 37 35 34 34 34 34 35 37 37 37 36 36 36 34 32 30 27 25 23 21 20 19 18 16 13 11 11 11 11 11 10 10 11 12 14 16 14 14 13 13 17 17 19
34 36 35 35 35 34 33 36 37 37 37 36 35 34 34 32 30 27 25 22 21 19 17 15 13 11 11 11 11 12 12 12 11 12 13 16 16 14 14 14 14 19 20 22

GFSCGP_sfc_dewp_036.txt.gz
Dewpoint
37 34 32 32 32 32 33 31 31 33 34 34 33 33 34 35 38 39 39 40 40 40 40 39 39 42 44 47 49 52 54 52 51 48 46 44 41 37 35 33 31 31 30 29
35 32 33 33 33 34 34 32 30 30 34 33 31 31 32 32 34 35 36 39 40 40 39 39 41 47 49 50 51 53 51 50 50 49 44 41 45 35 31 30 27 27 26 27
31 30 34 34 33 32 32 31 29 27 30 32 32 27 21 24 27 31 31 33 38 40 40 39 42 48 51 52 53 53 50 48 45 41 37 33 33 29 27 26 26 25 24 25
34 34 33 32 31 32 29 31 32 30 29 24 30 21 21 24 24 24 27 34 39 40 40 39 42 49 51 52 53 51 48 45 42 41 38 36 34 29 29 26 24 22 22 23
31 33 34 32 31 32 29 32 32 32 31 29 28 25 21 25 22 25 34 36 38 40 39 39 43 47 51 51 51 48 45 43 41 39 38 36 34 30 26 23 20 19 20 20
33 36 35 33 33 33 34 32 33 34 33 26 24 25 21 18 19 24 31 34 38 40 39 40 44 50 49 49 48 46 44 42 41 39 38 35 28 24 22 22 20 21 21 21
33 35 36 37 33 34 32 32 23 21 23 19 24 24 23 22 23 26 28 34 37 39 39 44 47 49 47 47 46 45 43 41 40 38 35 31 26 24 22 21 20 18 17 18
26 20 33 36 33 29 30 29 21 12 17 19 24 22 20 26 26 25 25 29 35 37 41 44 47 48 47 47 46 44 42 38 36 34 30 28 26 26 23 21 19 17 16 16
27 23 31 34 35 32 32 29 29 26 23 22 24 26 26 24 22 25 32 29 28 37 42 45 47 47 46 45 43 41 38 33 31 28 26 23 22 21 18 15 16 16 15 13
27 19 28 33 35 35 33 32 28 28 19 16 20 21 20 22 22 20 19 24 34 39 43 45 46 43 43 41 38 36 33 29 25 23 21 18 16 15 14 13 12 12 12 13
31 28 27 34 33 29 33 31 33 28 27 16 14 14 24 27 31 33 31 20 35 40 43 44 42 39 36 35 33 29 26 23 20 18 16 14 13 11 11 11 12 12 13 13
33 33 27 26 29 33 30 31 30 26 21 23 21 16 28 33 34 36 36 37 40 43 42 40 37 35 34 30 28 25 22 20 18 16 14 13 12 12 11 12 12 13 13 14
33 32 23 22 33 33 33 34 34 31 31 22 17 16 21 22 24 37 41 42 42 41 39 37 35 34 30 27 24 21 19 17 17 15 14 13 13 13 12 13 14 13 14 14
36 34 28 24 26 31 31 33 33 32 27 24 22 19 18 20 28 34 40 43 43 41 39 37 34 31 28 25 21 19 17 17 16 15 14 14 14 13 14 14 14 15 14 14
37 32 34 33 33 33 34 34 33 31 30 25 22 22 23 27 29 34 40 44 44 41 39 36 33 29 26 22 19 18 18 17 16 16 17 16 16 16 15 15 15 15 15 14
38 33 35 32 34 35 33 35 35 33 33 29 26 24 27 32 34 35 39 42 44 41 39 36 32 28 25 21 19 18 18 18 18 18 17 17 17 16 16 15 14 14 14 13
37 35 33 29 35 35 33 34 35 34 32 30 27 27 27 32 34 37 39 42 43 42 39 36 32 28 26 21 19 18 18 19 18 17 16 17 17 16 15 14 13 13 12 13
36 36 35 31 35 27 33 39 38 35 33 32 30 31 36 37 38 38 40 41 42 42 40 37 33 29 25 21 20 19 19 19 18 16 15 16 16 14 13 12 12 12 12 12
36 37 35 33 31 32 29 37 36 34 34 37 35 34 35 38 37 37 39 40 42 42 40 37 33 28 23 20 19 18 18 17 16 15 14 13 13 12 12 11 11 12 12 12
38 38 37 34 30 26 29 30 39 38 34 40 39 38 38 36 33 35 39 41 41 41 39 35 29 25 21 19 18 17 16 15 14 13 13 12 12 12 11 12 12 13 12 12
36 37 34 34 31 31 32 33 37 28 25 36 40 40 42 38 38 37 38 39 39 37 33 29 27 24 19 18 17 16 15 14 13 12 12 12 12 12 12 12 12 12 12 12
32 33 31 32 31 24 34 31 28 29 34 36 36 36 39 36 34 34 33 33 32 31 29 25 21 18 17 17 16 15 13 13 12 13 12 13 13 12 12 12 12 11 12 13
31 34 32 33 32 34 35 34 36 36 36 36 36 36 35 33 31 30 29 28 26 25 23 21 19 16 16 17 15 13 12 12 12 11 12 13 14 13 13 12 12 12 14 15
34 37 35 35 34 35 35 36 37 37 37 38 37 35 34 30 28 26 25 24 23 22 20 19 17 15 13 13 12 12 12 11 11 12 12 14 17 14 13 14 13 15 15 16
35 37 35 35 36 35 35 35 37 37 37 36 35 33 30 28 27 25 24 22 21 20 20 18 16 13 11 11 11 11 11 11 11 12 13 15 15 14 13 14 14 16 18 19
36 36 35 33 36 34 33 37 37 36 36 35 34 32 31 29 26 24 22 21 19 18 17 15 13 11 11 11 11 11 12 12 12 12 14 18 15 14 14 14 15 19 20 22

GFSCGP_sfc_dewp_039.txt.gz
Dewpoint
38 35 33 33 33 32 33 33 31 31 33 32 32 32 32 34 34 35 35 35 37 40 41 42 42 42 43 45 49 50 57 60 57 54 53 50 48 50 44 39 34 34 34 30
35 32 33 33 33 33 32 31 29 30 31 32 31 30 30 31 31 31 31 33 35 37 40 42 41 42 44 45 49 53 57 56 55 54 51 48 49 47 46 35 32 32 30 27
32 30 34 33 33 31 32 31 29 28 29 30 29 25 21 22 26 28 30 32 33 35 36 40 41 42 48 49 50 53 53 53 51 45 44 41 42 39 36 30 31 32 26 25
34 35 33 33 32 33 28 31 31 31 30 24 29 20 21 21 21 21 23 27 31 32 34 38 41 42 48 50 53 53 51 49 46 44 44 43 45 40 35 31 29 25 23 23
31 33 34 32 31 33 29 31 31 31 30 30 27 26 22 24 23 24 25 27 28 32 33 38 41 43 47 52 54 52 49 46 44 44 45 45 41 37 28 23 21 20 21 22
33 35 34 33 33 33 33 32 32 33 33 25 24 26 21 20 20 21 22 24 33 34 36 39 42 44 49 53 52 49 47 44 43 42 40 38 32 27 22 21 20 21 19 20
34 35 37 36 33 34 32 33 24 21 22 18 23 25 23 22 23 23 23 25 29 34 39 41 44 48 50 52 50 47 45 42 41 39 37 33 28 23 21 20 20 18 16 17
27 22 33 36 34 28 31 30 23 13 15 18 24 22 21 24 26 26 26 26 27 35 39 40 44 48 50 51 48 46 44 41 39 37 32 27 27 25 23 21 19 17 16 16
28 26 30 35 35 33 30 29 30 24 23 21 19 21 21 22 23 26 25 26 31 30 36 42 46 48 50 50 48 45 42 39 37 33 28 26 24 23 21 19 17 16 16 15
30 26 27 32 35 35 32 32 27 28 19 17 19 19 18 21 20 25 33 35 33 30 36 43 46 48 49 48 45 42 39 35 32 28 25 23 20 18 17 15 15 15 14 15
32 28 25 33 31 28 31 30 32 31 29 20 15 14 19 19 25 33 35 38 38 30 39 44 46 46 45 42 40 36 32 29 26 23 20 18 15 14 13 13 13 14 14 15
33 32 25 25 30 32 30 29 29 26 25 27 24 19 23 30 35 36 37 41 42 41 43 44 41 39 39 36 34 32 28 24 21 19 17 15 14 13 12 12 13 14 14 15
33 32 25 21 29 32 33 32 30 32 31 26 22 18 21 22 25 32 37 42 41 40 39 37 37 37 35 32 29 26 22 19 17 16 14 14 14 13 13 13 14 14 15 15
35 33 25 21 22 28 31 33 33 32 27 24 26 22 21 22 23 31 33 43 41 39 37 37 35 33 30 27 24 21 18 17 15 15 15 15 14 14 14 14 14 15 15 15
36 32 32 30 31 32 33 33 33 31 30 27 23 25 25 25 31 31 34 42 42 39 37 35 32 29 25 22 20 18 17 16 16 16 18 16 16 16 15 16 15 15 15 15
38 33 35 32 33 33 33 35 35 35 32 32 30 28 30 28 34 35 37 42 42 39 36 33 30 26 23 21 19 18 17 17 18 17 17 18 16 16 16 15 15 15 15 14
36 35 33 28 32 33 33 36 35 35 34 32 30 31 31 30 31 34 39 41 43 39 35 31 28 25 22 20 19 18 17 18 17 17 17 16 15 15 15 15 14 14 14 13
35 34 35 30 33 26 32 39 39 37 36 35 33 31 31 34 37 39 40 41 43 39 35 31 29 24 21 20 19 18 18 18 17 16 16 15 15 14 14 14 13 13 13 12
38 35 34 32 31 31 30 31 37 36 34 37 34 33 33 36 38 37 39 42 43 40 36 32 29 24 21 19 19 19 18 17 16 15 15 13 12 13 13 13 12 13 12 12
38 36 34 33 30 27 30 33 38 38 34 38 36 36 38 39 35 36 39 42 41 39 35 31 26 23 20 19 19 18 17 16 15 14 13 12 13 13 13 13 13 13 12 12
35 34 31 32 32 30 34 33 39 28 31 35 39 39 40 39 37 37 39 39 40 37 32 28 25 22 20 19 18 17 16 14 13 13 12 13 13 13 13 13 12 12 12 13
33 34 33 33 31 26 34 31 29 30 35 36 37 40 42 36 36 35 34 34 33 31 29 26 22 20 19 19 18 16 13 13 13 13 14 14 13 12 12 12 12 12 13 14
30 32 31 31 31 34 36 35 35 37 36 36 37 37 39 34 34 33 31 30 28 27 25 22 20 18 18 18 16 13 12 12 12 13 14 13 13 13 12 12 12 13 14 15
33 36 35 35 35 36 36 35 37 37 37 37 37 35 33 30 29 27 26 25 24 23 21 20 18 16 14 15 14 12 12 12 12 13 15 15 14 14 13 14 13 15 15 16
34 36 35 35 36 36 36 36 36 36 36 34 32 31 30 28 27 26 24 23 22 21 20 19 16 14 12 12 11 11 11 12 12 13 14 15 14 13 13 14 14 17 18 19
36 35 35 34 36 35 34 37 37 36 35 33 31 29 29 28 25 23 22 21 20 18 17 15 13 12 11 10 10 11 13 13 13 14 16 15 14 14 14 14 14 19 20 21

GFSCGP_sfc_dewp_042.txt.gz
Dewpoint
38 35 32 31 32 31 30 29 29 28 30 29 27 26 26 27 28 28 29 31 32 33 37 39 41 43 45 44 45 46 48 53 57 59 60 62 60 59 58 56 50 47 42 37
36 32 32 32 32 32 30 29 27 28 28 28 26 25 26 26 27 28 27 25 24 25 28 33 37 41 43 44 45 47 50 55 58 59 58 58 56 54 51 47 43 42 35 32
32 30 32 32 32 31 30 28 27 26 27 28 28 25 23 21 22 24 25 26 26 26 25 26 28 37 43 45 45 48 51 57 58 58 58 53 49 44 40 38 38 35 31 28
33 33 31 31 30 30 27 29 30 29 28 25 28 21 22 22 22 23 22 23 25 27 28 28 29 30 40 44 48 49 52 56 57 55 52 51 52 48 43 38 36 34 31 29
32 33 33 31 30 31 28 30 29 29 28 28 26 27 19 19 20 20 21 22 23 25 27 29 32 32 35 46 49 51 53 55 54 52 53 54 52 47 39 35 30 29 26 26
31 34 33 31 32 32 32 31 30 30 31 25 21 25 17 10 11 15 19 21 22 23 27 29 32 35 37 44 52 53 52 52 52 53 53 54 50 41 35 30 29 29 29 25
32 33 34 34 31 33 32 33 27 24 24 20 18 20 20 16 20 22 21 20 23 25 27 31 35 38 40 44 52 53 51 50 50 51 52 49 43 40 37 28 26 26 22 22
28 27 32 35 32 30 33 29 24 18 15 10 20 20 15 19 23 24 23 21 28 29 30 28 35 41 43 46 51 51 50 48 48 48 47 45 39 30 24 22 21 21 22 23
28 28 30 34 34 31 29 29 29 27 24 21 15 15 16 17 17 19 21 28 31 31 32 33 32 41 43 47 51 50 49 47 47 45 42 36 28 25 23 20 20 20 19 18
30 30 27 31 35 34 30 29 26 30 19 17 16 15 15 17 18 20 21 28 30 34 37 33 31 41 45 49 51 50 48 45 44 39 36 31 24 21 19 20 20 19 17 17
31 29 29 31 31 28 31 31 31 29 28 20 18 17 18 17 17 18 29 30 32 38 39 34 34 42 47 50 50 47 45 42 39 35 30 25 20 19 18 19 19 17 16 16
32 31 27 28 28 28 27 27 27 27 26 28 26 22 22 22 23 31 29 28 33 40 42 41 42 46 48 48 46 43 40 38 34 28 25 20 19 18 18 17 16 15 15 15
32 31 27 28 31 29 31 30 29 33 31 28 24 22 22 24 29 28 27 28 32 40 41 41 42 44 45 44 42 38 34 29 26 23 19 18 18 18 17 16 15 14 14 15
35 32 31 26 23 28 32 33 34 32 29 26 27 25 24 21 24 25 25 28 37 41 40 40 41 42 42 39 34 29 24 20 19 19 18 19 19 17 15 15 15 15 15 15
33 33 31 31 30 30 32 32 34 32 31 29 26 25 25 26 26 27 27 32 39 41 39 39 39 39 35 29 24 21 19 18 18 18 20 20 18 17 16 16 15 15 16 15
36 32 33 32 30 31 34 35 37 37 37 34 33 31 31 31 29 29 33 35 40 42 38 37 36 32 27 24 21 19 18 18 19 20 19 19 17 16 17 16 16 17 16 15
34 33 33 29 30 31 33 36 37 37 35 34 32 31 31 31 33 32 35 37 38 40 37 35 31 28 24 23 21 19 18 19 19 19 18 17 16 16 16 16 16 16 16 15
34 34 35 31 31 26 31 38 39 38 38 36 34 33 33 32 32 36 41 40 42 40 36 33 28 26 24 23 22 20 19 20 20 18 16 15 15 14 15 15 16 16 14 13
36 33 33 30 29 28 30 32 34 37 35 38 37 36 35 35 37 42 43 44 41 38 35 31 28 26 23 21 20 20 20 20 19 17 15 13 13 13 14 14 14 14 13 13
36 36 34 32 27 25 31 34 37 38 36 35 38 37 36 38 36 37 42 42 39 36 34 30 27 25 22 21 20 20 19 18 16 15 13 11 12 13 14 14 14 14 13 13
34 35 31 30 30 30 32 33 39 31 35 37 39 40 40 39 38 39 41 40 38 34 31 28 26 23 21 20 20 19 18 16 14 12 12 13 13 14 14 14 14 13 13 13
33 32 31 32 32 29 35 34 32 32 37 38 39 40 41 38 37 37 37 36 34 30 28 25 22 20 20 20 19 18 14 13 13 13 14 14 14 13 13 14 13 13 13 12
30 33 31 31 31 34 36 37 37 37 37 37 37 39 42 38 36 36 34 33 30 28 27 26 23 21 20 20 16 14 12 13 13 14 14 14 14 13 13 13 14 13 12 11
35 36 34 36 35 37 37 37 37 37 37 36 37 38 39 37 33 31 30 29 28 26 24 23 21 20 18 16 14 13 12 13 13 13 14 14 14 13 13 14 13 12 12 12
35 37 36 36 36 37 36 37 37 36 36 33 32 33 33 33 32 31 29 26 25 24 23 22 19 17 14 13 12 12 13 13 13 14 16 16 15 13 13 13 12 13 15 18
37 36 34 32 36 36 35 37 37 36 34 32 31 30 30 31 29 27 26 24 23 21 20 19 17 15 13 11 11 12 13 14 13 13 14 14 14 13 13 12 10 18 19 19

GFSCGP_sfc_dewp_045.txt.gz
Dewpoint
36 33 30 30 29 29 29 27 26 27 27 27 26 26 26 26 26 26 27 28 29 30 34 35 37 40 40 40 42 44 44 46 49 54 58 60 61 64 64 65 63 60 56 49
35 34 31 31 30 30 30 28 26 26 27 27 25 24 25 26 26 26 26 26 26 27 28 30 33 37 39 41 44 45 45 47 51 55 58 59 62 59 59 59 57 53 49 44
33 30 32 31 31 30 29 27 26 25 26 27 26 25 23 24 26 26 26 26 26 27 25 24 25 32 41 42 43 45 45 49 53 56 58 59 55 50 48 48 46 45 43 40
32 32 29 30 30 29 27 27 27 27 27 24 27 23 23 21 21 22 22 23 24 25 25 26 26 27 33 41 46 47 48 50 54 58 58 57 53 50 46 47 46 43 39 37
32 32 31 30 29 29 28 29 28 28 27 27 26 26 21 17 14 16 19 21 21 23 24 25 28 32 30 37 46 50 49 51 56 57 58 56 53 53 45 43 39 38 38 32
31 32 32 31 31 31 31 29 29 29 29 26 23 23 18 10 9 13 13 18 21 21 23 24 28 32 34 39 46 52 51 53 56 57 54 53 55 45 39 37 38 39 36 32
31 31 32 32 30 32 32 30 27 26 25 21 16 16 18 15 16 17 17 19 19 20 23 25 27 30 33 38 41 51 51 52 54 53 54 54 54 44 40 38 38 33 31 29
28 28 30 34 31 30 31 30 25 20 17 14 17 17 14 15 19 20 21 22 22 22 26 31 32 33 35 41 42 48 51 51 51 53 53 55 47 44 40 36 30 27 28 26
27 28 30 33 33 31 31 30 29 26 23 20 15 11 13 15 16 17 19 21 23 26 29 34 35 34 35 40 42 49 51 50 51 52 54 48 45 39 35 28 27 25 25 23
29 30 28 31 33 33 29 28 26 29 20 17 14 15 16 18 18 19 19 21 24 28 32 35 34 34 32 40 43 50 50 49 50 51 48 43 35 28 24 24 23 23 23 24
31 30 28 30 31 29 30 30 29 26 26 20 18 17 19 20 20 19 20 21 27 29 33 37 35 33 35 42 46 48 49 48 48 46 39 34 28 22 21 21 22 20 21 20
31 31 29 29 28 28 27 27 27 27 24 27 26 22 23 23 22 23 23 26 28 27 36 39 39 38 41 46 49 48 47 46 43 38 33 28 23 22 21 21 20 20 19 17
31 31 27 29 29 28 28 28 27 30 32 29 25 23 22 22 25 24 26 27 25 26 35 40 41 43 45 48 48 46 43 41 36 33 27 23 22 22 21 20 23 20 19 15
34 31 31 27 27 28 32 31 32 33 29 26 27 25 25 26 28 28 25 26 28 28 39 40 40 42 44 45 43 41 38 34 31 27 24 22 21 19 18 18 19 18 16 16
33 32 31 30 29 29 30 31 32 33 33 29 28 28 30 32 32 31 30 28 28 35 41 40 41 41 42 41 38 33 31 28 24 25 23 21 21 19 20 19 18 17 17 16
35 31 31 31 30 30 32 31 31 34 37 36 36 34 36 34 31 33 31 29 35 37 41 40 40 40 35 30 27 25 22 22 22 23 23 21 21 20 20 19 18 18 17 17
35 34 33 28 29 28 32 34 36 38 38 37 33 32 32 32 35 39 39 40 39 40 39 37 37 32 28 23 21 20 20 22 23 24 21 21 20 20 19 18 18 18 17 16
34 34 33 28 28 25 27 35 36 36 38 38 37 36 36 35 37 41 42 43 41 39 36 34 31 29 23 22 22 23 25 22 23 22 21 19 19 17 17 18 17 17 16 15
37 37 31 28 25 25 26 32 32 36 37 37 38 38 37 37 42 41 44 42 40 36 33 30 26 25 25 25 26 26 26 23 21 20 18 17 16 16 16 16 15 15 14 14
35 37 34 30 26 22 29 33 36 39 36 37 39 40 40 39 38 40 42 38 36 31 30 29 29 31 34 34 33 32 29 27 26 20 16 14 15 15 16 16 15 15 15 15
33 34 30 28 28 26 29 34 40 30 35 38 40 40 41 37 39 42 41 36 34 31 32 31 29 32 30 29 25 23 21 18 16 14 14 15 15 15 16 16 15 15 15 16
32 31 30 34 31 26 34 35 34 35 39 38 42 40 39 39 39 38 37 33 31 30 29 27 25 24 23 23 22 20 16 14 14 15 16 15 15 14 14 15 14 14 13 14
29 32 35 31 29 32 36 36 37 38 37 37 38 43 40 38 39 38 35 35 34 29 28 26 23 23 23 22 19 15 13 14 15 15 15 15 15 14 15 14 15 14 13 11
33 34 33 33 34 35 36 37 37 37 37 37 37 38 44 38 37 35 33 30 30 32 32 28 26 21 17 15 14 13 14 14 14 14 15 15 14 13 14 17 15 12 11 11
34 36 34 34 35 36 36 37 37 36 35 34 34 36 40 37 35 34 34 29 28 26 25 24 21 16 14 13 13 13 14 14 14 14 15 16 16 14 14 14 12 11 14 17
36 34 34 31 36 36 36 37 37 35 34 33 33 34 35 36 34 32 29 28 26 25 23 19 16 14 13 12 13 14 16 17 16 15 16 16 15 13 14 13 10 19 18 18

GFSCGP_sfc_dewp_048.txt.gz
Dewpoint
41 37 34 33 34 31 29 28 27 27 27 26 26 26 26 27 27 26 28 29 30 32 33 34 35 37 36 37 41 44 46 46 47 50 59 62 62 63 65 65 62 62 59 51
35 32 32 31 31 30 28 28 28 27 27 26 26 25 26 26 25 25 25 25 26 28 29 30 33 36 38 40 40 41 44 46 47 49 55 60 60 58 58 62 62 58 52 48
32 32 33 32 31 30 30 28 27 25 27 27 26 25 25 25 27 26 27 26 26 27 27 27 27 31 37 38 40 42 45 45 49 53 58 55 55 52 50 49 47 47 46 45
31 32 29 31 30 30 27 29 28 27 27 24 27 23 23 22 22 23 24 26 27 27 27 28 27 27 29 37 40 43 45 45 49 55 57 57 57 54 50 49 48 45 44 44
32 32 31 30 29 30 28 31 29 29 27 26 25 24 24 21 19 17 19 22 24 25 25 26 28 29 30 33 40 41 45 45 49 54 57 57 53 50 48 45 43 42 44 43
32 33 33 31 30 31 32 30 30 29 28 24 25 24 22 17 15 15 15 19 21 21 23 25 27 31 32 34 36 44 47 48 52 56 58 54 50 46 43 40 41 41 40 36
30 31 32 33 30 32 32 29 22 23 23 19 20 23 22 19 18 19 17 18 20 19 20 24 28 30 32 32 38 38 49 49 55 57 56 53 47 44 41 40 39 35 34 33
28 26 31 32 31 30 31 31 24 16 18 20 22 19 16 18 18 21 21 21 23 23 23 26 33 35 36 36 37 38 49 50 55 55 53 52 43 41 40 40 37 36 34 33
28 29 32 32 32 31 30 29 29 26 23 18 18 13 13 13 14 16 19 22 22 23 24 31 35 35 35 36 39 39 49 51 54 53 53 46 43 40 39 36 34 33 31 28
31 29 30 32 34 33 30 29 26 26 12 14 17 14 15 18 20 20 19 20 22 24 28 32 37 37 35 36 41 41 50 51 52 53 47 44 41 38 33 30 30 29 24 24
30 30 29 31 31 29 30 31 29 27 24 17 18 17 20 22 23 23 23 24 24 28 29 34 38 39 37 36 42 46 50 50 51 49 40 32 28 27 27 26 24 23 24 22
30 32 29 29 29 31 30 28 28 21 18 24 22 22 24 24 24 27 27 25 26 28 29 38 39 40 40 40 45 49 50 50 43 34 30 25 24 22 21 21 21 22 21 20
32 31 24 26 28 29 28 29 28 29 29 24 23 21 22 24 27 28 29 29 27 28 29 39 39 40 44 49 50 49 47 38 33 29 25 23 23 23 21 21 22 22 22 19
34 32 27 23 28 31 28 29 29 31 28 25 26 25 27 28 32 35 35 34 31 31 34 40 40 41 47 48 46 42 36 32 28 24 23 23 22 21 20 20 21 20 17 18
33 29 30 31 30 28 29 30 31 32 30 28 26 28 31 36 35 35 36 38 38 32 41 41 41 42 45 45 40 35 31 28 24 23 24 23 21 20 20 19 18 20 20 18
34 30 32 27 29 29 29 30 30 31 32 36 36 36 38 36 33 35 38 40 41 38 41 40 41 41 36 33 32 30 27 25 23 25 27 23 20 19 20 19 20 19 18 18
35 33 31 27 29 28 28 31 32 37 38 38 35 36 37 37 36 39 40 41 41 40 40 41 39 31 27 27 26 27 24 26 27 24 23 22 20 20 21 19 18 18 18 17
33 33 33 27 27 24 27 36 37 35 38 39 39 38 38 38 40 42 43 43 39 39 40 38 30 26 24 23 23 23 24 25 26 25 22 21 20 19 19 19 18 18 17 15
36 37 34 27 24 25 29 33 33 34 37 39 38 40 41 41 43 40 41 36 36 34 32 29 25 23 22 23 25 26 26 26 24 25 24 20 19 19 18 16 16 15 15 15
36 38 34 30 25 22 27 33 36 39 35 39 41 40 40 39 39 39 39 31 29 27 26 26 27 27 29 30 28 28 26 26 26 24 22 22 24 19 18 16 16 17 17 16
34 35 32 30 28 27 27 37 40 34 34 39 41 41 38 38 41 41 36 35 36 36 34 33 34 35 36 37 36 34 34 33 33 33 31 26 18 17 16 16 16 16 16 15
29 30 29 30 29 24 34 35 34 36 40 41 42 41 39 39 38 35 32 35 35 36 36 36 36 37 39 39 36 33 30 28 23 18 16 16 17 18 16 15 14 14 14 13
31 31 30 31 29 31 36 36 38 38 37 38 38 42 40 40 38 35 32 31 29 28 26 26 25 23 21 19 15 14 15 16 16 15 15 16 15 15 16 15 15 14 13 11
32 33 33 34 34 34 37 37 38 37 36 36 37 41 42 40 39 35 36 35 34 32 32 31 27 25 24 22 20 18 16 15 15 15 15 15 15 15 15 16 15 13 13 14
35 35 34 34 34 36 37 37 37 36 35 34 34 38 42 39 35 33 34 31 33 31 31 23 19 16 14 14 14 14 15 15 15 15 16 17 16 15 14 14 13 12 18 18
36 35 34 33 36 36 36 37 36 35 33 34 34 37 38 37 36 34 32 28 26 24 19 17 15 14 13 13 14 16 18 17 16 16 17 17 16 15 14 11 13 19 17 16

GFSCGP_sfc_dewp_051.txt.gz
Dewpoint
45 40 35 36 36 33 32 28 28 29 29 26 28 28 27 28 28 28 28 29 30 32 34 35 34 34 34 37 39 44 46 50 57 64 64 64 63 64 63 64 61 61 57 53
38 35 37 36 36 35 32 28 28 29 28 27 26 26 27 27 27 27 27 27 28 29 30 31 32 34 36 36 37 41 45 45 50 59 64 64 63 60 62 63 62 61 55 49
33 31 34 33 33 30 30 28 28 27 28 27 26 25 25 27 27 27 27 26 26 26 27 29 29 30 33 36 38 40 42 46 46 49 57 57 56 55 55 53 53 52 50 48
33 34 32 32 32 30 28 29 29 28 27 24 27 22 25 24 21 23 26 27 27 27 27 27 27 27 28 32 37 40 42 45 47 52 57 58 59 58 54 52 50 47 46 48
32 32 31 30 31 31 29 31 29 29 27 25 25 23 23 25 20 20 18 21 26 28 28 28 29 29 29 30 33 39 41 45 47 51 56 58 58 52 50 48 46 47 45 44
32 34 33 31 31 31 31 30 29 29 27 21 24 23 19 20 19 16 19 18 23 24 23 26 27 30 31 32 32 39 41 44 46 51 57 57 53 50 49 46 45 45 45 43
31 32 32 33 30 32 30 27 16 24 23 18 24 24 23 24 23 21 20 18 20 20 20 22 32 34 34 34 34 35 38 44 47 53 57 54 52 51 48 46 44 44 38 37
24 23 31 32 31 30 30 27 18 13 15 21 23 22 20 20 23 20 21 20 20 22 22 22 34 34 34 35 36 36 37 43 51 56 55 50 48 49 47 46 43 43 38 37
26 27 32 32 32 32 31 27 29 22 22 16 20 17 16 17 20 17 20 21 21 22 23 28 35 36 36 36 36 37 37 46 55 55 49 46 46 46 45 43 41 40 37 33
31 28 31 33 34 34 29 30 23 20 8 12 18 16 15 20 22 23 24 24 25 26 27 31 37 37 38 38 38 38 39 50 54 53 46 43 44 44 42 39 35 32 28 27
31 29 31 33 31 29 31 31 28 25 22 14 15 18 20 21 23 24 26 27 27 26 27 29 38 39 40 40 40 41 47 52 52 46 43 43 41 40 37 35 31 27 26 26
32 32 27 27 30 31 31 29 27 17 14 19 23 22 25 24 25 27 28 33 33 34 29 31 38 39 39 41 43 43 50 49 41 37 38 36 35 32 33 30 26 24 23 24
32 30 24 28 29 31 30 31 29 27 26 17 18 20 23 25 26 28 35 37 36 36 32 38 39 39 43 47 48 48 39 34 32 32 30 28 26 27 26 28 24 23 21 23
35 31 22 21 25 30 26 28 29 30 24 23 23 23 24 26 28 34 37 37 37 38 41 40 40 41 45 45 41 37 32 30 27 27 26 26 25 25 24 23 23 24 23 23
33 25 28 30 30 31 29 29 29 25 27 27 24 25 27 30 36 38 39 38 38 39 41 43 41 41 44 39 38 34 33 30 28 28 29 27 29 26 23 24 23 21 22 20
34 26 30 26 29 30 29 29 30 30 29 29 28 30 35 38 38 38 40 41 41 41 42 42 40 40 35 34 30 30 34 33 30 26 26 27 23 23 24 21 22 20 18 18
33 30 28 23 28 28 25 29 30 30 33 32 33 36 40 40 39 40 41 41 40 40 42 40 30 28 26 26 27 28 30 29 27 25 22 21 21 23 25 24 22 18 17 16
34 30 30 24 27 22 27 32 34 33 36 39 39 39 40 40 41 40 35 36 35 34 36 29 26 25 24 25 25 26 27 25 24 22 24 26 28 28 25 20 20 21 21 21
35 33 32 26 26 25 29 34 33 33 35 40 39 38 41 40 42 39 32 28 27 26 25 25 24 24 25 26 26 27 28 26 26 25 25 29 28 23 22 21 19 16 15 16
36 36 33 29 22 21 30 34 37 39 35 40 40 41 40 39 39 38 36 29 27 26 26 26 26 27 28 28 29 30 29 31 32 32 31 26 26 27 28 27 27 25 19 16
33 34 31 26 26 27 29 35 40 31 31 38 41 43 39 39 39 36 36 34 33 32 33 34 34 33 33 33 33 32 33 33 34 33 33 33 33 32 29 25 20 17 16 15
29 28 29 30 28 21 31 38 34 35 38 40 41 41 39 38 33 35 35 36 36 34 35 35 35 34 36 36 35 34 33 33 34 33 33 31 26 21 18 17 15 14 14 12
29 30 30 29 27 29 33 35 38 37 37 37 39 41 39 37 32 30 30 33 35 36 35 35 34 35 36 36 35 33 32 32 28 22 20 20 19 16 15 14 14 13 13 13
33 32 32 33 34 33 34 37 37 37 36 35 37 41 42 38 35 33 31 29 29 28 26 27 25 23 19 18 17 17 17 17 19 20 20 16 15 15 15 17 14 14 14 14
35 34 33 33 35 36 36 37 37 35 34 34 34 39 41 39 36 35 35 32 31 30 28 27 26 24 20 20 19 20 19 17 15 15 16 17 17 14 13 13 13 17 18 15
36 35 34 34 36 36 36 37 36 34 33 34 36 38 39 35 36 35 36 34 31 25 21 19 17 15 15 15 15 17 17 17 16 16 16 17 16 14 12 11 11 20 19 19

GFSCGP_sfc_dewp_054.txt.gz
Dewpoint
46 40 38 37 38 32 32 30 28 29 30 27 26 27 29 30 29 29 29 29 30 31 34 35 34 34 35 36 36 41 48 59 63 64 64 64 64 64 64 63 60 59 58 55
41 37 38 38 37 35 34 32 30 29 29 27 26 26 27 27 27 27 27 27 28 28 29 32 34 34 35 34 35 37 44 50 60 63 63 64 64 63 63 63 62 60 57 55
37 37 37 34 33 34 31 28 28 28 28 27 26 21 22 26 27 27 27 28 28 28 27 28 30 31 32 34 36 37 39 46 56 62 62 58 58 57 57 59 60 60 56 54
34 34 33 33 32 30 28 29 29 28 26 23 27 20 24 24 25 23 25 27 28 28 27 27 28 29 29 30 33 37 40 43 46 58 61 61 60 59 59 59 54 53 53 53
33 32 32 31 32 31 29 30 29 29 26 24 25 23 21 23 21 20 18 18 21 28 28 28 29 29 29 29 30 33 38 42 46 54 60 60 60 59 52 52 52 50 51 52
32 34 32 31 32 31 31 29 29 29 25 15 22 23 19 20 19 16 18 20 21 24 26 28 29 29 30 32 32 33 38 41 44 49 56 59 57 51 50 49 50 48 48 50
32 32 32 33 30 32 30 25 14 13 13 14 24 24 23 23 24 23 23 22 20 22 22 27 32 33 34 34 35 35 35 35 42 46 53 57 57 54 52 50 49 47 45 45
27 25 30 32 31 30 28 25 18 9 17 20 23 21 20 23 22 20 20 22 24 25 24 23 33 34 34 36 36 36 36 36 37 46 54 56 55 54 52 50 48 47 45 42
25 25 33 32 32 31 30 24 27 21 18 14 19 19 15 22 22 23 25 27 27 28 27 26 32 35 36 35 36 37 38 38 38 48 54 51 52 50 48 46 47 43 42 39
29 24 32 33 33 34 29 30 23 17 4 9 16 18 15 19 22 23 26 28 30 34 33 30 33 37 37 37 38 39 40 39 40 52 49 49 49 48 46 45 44 42 38 37
30 27 33 33 31 28 31 29 26 23 20 13 14 15 20 20 23 26 28 29 34 35 34 32 35 34 38 38 38 39 42 44 50 47 45 45 45 45 44 44 43 38 34 33
32 30 27 30 31 32 31 29 25 16 11 15 22 19 25 25 25 27 28 34 37 37 37 37 33 36 39 39 43 46 47 49 45 44 43 43 43 43 42 42 38 34 32 29
30 28 22 25 27 32 29 30 29 25 23 15 15 18 24 25 26 28 30 36 38 37 37 39 39 39 41 47 46 46 43 40 40 41 41 40 40 40 39 34 32 30 28 24
35 29 21 20 22 28 23 29 30 29 20 21 21 21 23 25 27 31 36 38 39 38 39 40 40 42 46 42 39 35 33 34 34 38 36 36 36 34 30 28 26 25 25 24
32 25 27 29 30 30 29 27 28 26 27 22 23 24 25 26 28 34 40 41 41 41 42 42 43 45 43 36 32 32 33 35 36 35 33 31 30 30 27 26 25 25 23 21
33 24 29 25 28 30 29 30 29 29 27 27 27 27 28 30 40 40 40 40 40 38 39 42 41 39 33 29 31 34 35 35 37 35 32 30 28 28 28 26 26 24 26 27
31 28 28 22 27 28 25 29 29 29 30 29 28 29 33 39 40 39 35 35 34 32 40 34 26 25 27 28 30 31 32 34 32 30 29 29 27 25 26 26 27 28 28 28
32 30 30 24 26 21 25 32 32 30 30 32 34 38 39 40 39 33 32 29 29 28 27 27 25 25 28 30 32 33 33 33 32 31 31 30 30 31 31 30 29 30 31 29
33 30 30 26 25 24 29 35 33 33 33 38 39 39 39 41 40 36 36 27 25 24 27 25 26 26 27 27 28 29 30 31 32 31 31 32 32 31 30 30 29 25 22 24
37 36 31 29 21 20 28 33 38 38 32 38 40 39 41 39 39 39 36 30 27 26 27 27 27 28 29 30 29 29 30 30 31 32 33 33 33 32 31 30 31 32 32 29
34 35 32 28 26 26 28 30 39 28 29 38 40 40 39 38 39 37 35 32 32 34 34 33 32 32 32 32 32 34 33 32 33 34 33 33 34 33 33 33 32 30 27 21
30 30 30 29 27 22 30 38 34 34 38 39 40 41 38 35 35 36 35 34 34 34 35 35 34 34 36 35 35 33 32 33 33 34 34 34 33 34 33 31 27 20 15 12
29 29 28 28 27 29 31 34 37 37 37 37 37 39 38 34 34 35 35 36 35 34 34 36 35 35 35 36 34 32 33 34 33 33 31 30 26 20 16 14 13 12 13 13
32 32 32 32 34 33 33 34 37 37 36 35 36 39 38 33 32 31 32 34 35 35 35 36 34 32 30 31 33 33 32 28 24 23 21 17 15 15 15 16 14 14 13 12
34 33 32 33 34 35 37 37 37 36 34 34 34 40 39 33 32 31 31 30 29 28 26 24 21 20 19 20 21 20 20 24 24 17 17 18 17 13 13 14 15 16 15 13
35 34 34 33 36 36 36 37 36 35 33 33 37 39 39 37 34 32 32 30 29 28 27 24 20 19 19 19 19 18 18 19 16 16 16 17 15 12 13 13 13 22 20 19

GFSCGP_sfc_dewp_057.txt.gz
Dewpoint
47 41 39 41 40 33 32 31 29 29 30 27 27 28 28 29 30 30 31 32 33 32 32 34 35 36 36 36 37 41 56 61 64 64 65 65 64 65 64 64 61 59 58 57
42 38 41 41 42 38 34 32 31 30 30 27 27 26 27 28 28 28 28 28 29 29 29 30 33 34 35 35 35 37 46 59 61 64 64 64 65 64 64 64 61 59 58 58
37 37 38 37 36 35 33 31 29 28 28 27 26 23 23 24 26 27 27 28 28 28 28 28 29 31 33 34 35 35 37 46 59 62 63 60 60 60 60 60 62 59 58 58
35 35 35 34 32 33 30 29 29 28 26 23 27 18 23 23 23 25 24 24 27 28 28 29 28 29 30 31 32 34 37 40 52 60 62 62 60 60 61 62 62 59 57 57
36 33 34 33 32 31 29 30 28 28 26 22 24 23 21 21 20 20 21 20 21 23 27 29 29 29 29 29 30 31 34 38 44 53 61 62 60 60 58 55 58 53 53 56
33 35 32 31 32 31 31 28 28 28 24 15 22 21 16 18 19 18 22 22 22 22 23 26 30 30 30 31 30 31 34 36 40 48 58 61 61 55 54 53 55 52 51 52
31 31 32 33 30 31 28 25 17 13 13 14 24 23 21 23 25 25 23 23 27 28 28 27 27 33 34 33 34 34 34 34 38 44 51 57 58 55 55 55 55 51 50 49
27 27 30 32 31 29 28 25 18 8 13 18 23 21 20 22 21 21 25 28 31 32 30 30 28 33 34 35 34 35 35 35 36 37 45 53 56 56 54 53 54 53 51 49
24 24 32 32 32 31 29 22 26 21 18 15 19 18 14 22 23 26 28 29 31 35 36 33 32 34 36 36 35 35 36 37 38 39 43 51 53 52 52 50 50 49 46 46
27 25 31 32 34 33 28 29 22 18 8 10 14 17 12 19 22 26 27 28 31 36 37 37 34 33 35 37 37 36 38 39 40 41 48 50 51 51 48 48 46 44 44 43
30 27 33 33 31 30 30 27 25 23 20 14 14 10 20 19 24 26 27 28 32 36 38 38 37 37 35 35 38 38 39 42 44 48 46 46 46 45 45 45 44 42 41 40
31 29 30 31 31 31 30 28 25 17 14 16 20 17 23 25 25 26 28 31 35 38 38 38 38 39 40 40 45 46 46 47 47 44 43 43 43 43 43 42 41 39 41 38
30 26 18 26 29 32 29 30 25 24 20 13 14 16 24 25 25 27 29 34 40 39 39 38 40 40 41 43 41 38 35 38 41 42 41 41 41 42 43 41 38 38 33 30
33 27 21 19 21 27 22 29 28 28 20 20 20 20 22 23 26 27 30 40 41 41 42 41 42 42 45 38 35 33 33 35 37 39 40 41 41 41 39 39 37 32 27 26
31 25 26 27 29 29 27 27 29 25 26 19 22 24 24 26 27 28 40 40 38 39 37 37 42 44 37 34 34 35 35 36 35 34 35 37 37 35 33 31 29 26 24 22
31 25 28 24 28 29 28 29 28 29 29 28 28 27 29 29 29 39 39 35 36 34 30 38 32 31 29 31 32 33 33 33 32 31 30 31 29 28 27 27 26 27 28 30
31 28 26 20 26 27 24 28 29 29 29 28 27 28 29 33 39 40 35 33 31 31 28 26 26 27 29 31 31 32 31 30 30 29 29 27 28 29 29 29 30 31 32 33
30 29 30 25 25 22 24 29 31 29 29 30 30 30 32 39 40 34 33 29 27 26 28 27 27 29 32 33 32 32 33 33 33 32 32 33 33 32 32 32 32 32 33 32
31 30 29 27 24 24 28 34 30 30 32 32 31 33 40 41 39 38 35 27 25 24 26 27 27 28 30 31 32 33 33 34 34 33 33 34 33 33 33 32 32 32 32 32
34 36 30 29 22 19 24 34 37 36 31 36 38 39 39 39 38 39 33 29 27 28 27 28 30 30 30 30 30 30 31 32 33 33 34 33 33 33 32 32 32 32 33 32
34 35 31 26 25 24 27 29 39 28 28 37 38 39 41 39 38 36 32 32 34 33 32 33 33 33 34 34 33 33 33 31 33 34 34 34 34 33 33 32 32 32 32 30
29 29 30 31 27 21 29 37 33 33 37 38 39 40 40 37 36 35 33 33 34 34 34 35 35 35 35 35 33 33 31 33 33 33 33 33 33 35 34 32 31 29 21 16
29 29 27 27 26 28 31 34 35 38 37 37 38 39 37 35 35 35 35 35 33 33 33 35 35 35 36 35 34 32 33 35 34 33 33 33 32 28 20 16 14 13 13 13
32 32 31 31 32 32 32 34 35 37 36 35 35 40 36 34 35 34 36 35 34 34 33 35 34 33 33 34 34 34 34 32 30 29 23 16 15 15 14 15 14 13 12 12
33 32 31 32 33 34 35 37 37 36 35 34 34 39 36 34 33 33 33 32 34 33 33 28 27 24 28 32 31 28 26 25 19 16 17 17 15 13 14 15 13 13 13 12
34 33 32 31 35 36 36 37 37 36 34 33 35 39 37 34 33 33 33 30 29 26 25 23 23 22 22 22 20 21 23 20 17 16 16 15 14 15 16 17 17 23 22 20

GFSCGP_sfc_dewp_060.txt.gz
Dewpoint
47 42 39 39 39 35 33 32 31 30 30 28 28 28 28 28 29 29 32 32 33 34 35 34 34 36 36 37 37 40 53 63 65 65 65 65 64 65 65 64 63 61 59 58
40 35 41 41 40 34 32 31 30 31 30 28 27 27 28 28 28 28 28 28 29 30 31 30 31 33 34 35 36 37 40 54 63 65 65 65 65 64 65 64 63 61 59 59
36 37 44 43 40 37 35 32 30 29 28 27 26 23 23 24 26 26 27 28 28 28 28 29 29 30 32 33 34 35 38 43 59 63 64 61 62 61 62 63 63 61 60 59
37 40 42 40 38 38 33 32 30 28 26 25 26 21 23 22 21 23 24 22 22 23 24 28 29 29 29 30 33 34 36 39 47 61 63 62 62 61 62 63 63 62 59 59
36 36 35 36 34 33 30 31 28 27 26 22 24 22 20 20 19 17 22 23 26 28 26 27 30 30 30 30 30 31 33 38 41 52 61 62 62 62 58 60 61 61 57 58
34 35 34 32 33 31 31 28 28 26 23 14 20 20 13 17 19 22 22 26 30 31 32 32 30 34 34 33 33 32 31 33 38 45 55 61 61 58 55 56 60 57 55 56
34 33 32 33 30 31 28 25 15 11 13 13 24 22 20 23 25 25 24 29 31 34 34 33 34 33 35 35 35 35 35 33 36 41 48 58 60 57 56 57 58 56 54 53
26 27 31 32 30 29 28 25 18 6 13 16 23 21 19 22 22 25 28 29 32 35 37 36 34 35 35 36 36 36 35 35 35 36 42 49 54 56 57 55 56 56 55 55
25 27 32 32 32 30 28 22 25 19 16 14 19 19 16 22 24 27 27 30 30 34 37 38 37 35 36 36 37 37 36 36 37 38 39 42 49 53 54 52 52 51 50 49
27 25 32 32 33 32 28 28 22 18 10 9 12 14 9 19 23 26 26 28 30 34 37 39 39 37 37 37 37 38 37 37 39 42 42 44 47 50 51 48 48 47 46 47
29 27 32 33 31 29 29 28 25 23 19 13 13 7 19 20 24 26 27 29 31 36 38 39 39 38 39 40 43 44 44 45 46 46 45 45 45 46 45 45 44 44 45 44
31 31 29 30 30 31 30 28 24 17 15 19 19 15 21 23 26 26 27 30 37 40 40 40 39 39 40 43 41 38 36 39 42 42 42 44 45 45 44 43 42 41 41 40
30 25 23 27 29 31 29 29 25 23 21 20 15 12 22 26 24 26 28 33 41 41 41 41 40 42 42 39 35 34 34 36 39 40 41 43 43 44 43 41 40 39 37 35
32 26 22 20 21 27 23 29 26 24 17 20 19 19 22 23 24 26 28 39 39 39 36 34 37 41 38 34 34 35 34 35 37 40 41 42 42 41 41 38 36 33 31 30
30 25 26 26 28 28 27 28 28 23 24 20 21 22 24 25 27 28 31 38 36 34 30 29 32 32 32 33 33 34 34 34 34 35 36 36 36 36 35 33 32 32 32 30
30 25 27 24 27 29 28 29 29 29 28 27 27 27 29 29 29 30 39 35 34 32 29 27 27 30 31 32 32 31 31 31 30 30 30 30 30 31 33 32 32 34 32 30
29 27 24 19 26 27 24 28 29 29 29 29 26 28 28 30 33 40 36 32 30 28 29 27 28 30 31 31 31 32 31 31 31 29 29 30 31 32 33 33 33 33 33 33
29 29 28 25 25 20 23 28 30 29 29 30 29 29 30 31 40 35 33 29 27 25 27 27 28 31 33 33 33 34 35 34 33 32 32 32 33 33 33 33 33 34 34 33
31 31 28 25 24 24 28 32 30 29 31 31 30 30 31 39 40 37 31 27 25 26 27 28 29 29 31 32 33 33 33 34 34 34 34 34 33 33 33 33 33 34 33 33
36 35 28 28 22 19 22 33 34 36 34 35 34 33 38 40 37 38 33 28 29 28 28 30 30 30 30 31 32 32 33 34 33 34 34 34 34 33 33 33 32 32 32 32
33 33 29 26 26 22 26 30 36 31 29 36 38 38 40 39 38 36 31 33 33 32 32 34 34 34 34 34 33 33 33 32 34 34 35 34 34 33 33 32 32 32 32 30
30 28 30 30 26 21 27 36 33 34 36 38 37 38 41 37 36 35 33 33 34 34 34 35 35 35 35 34 34 33 32 33 34 34 33 33 33 34 33 32 31 28 22 18
29 29 27 28 26 27 30 34 35 36 36 36 36 37 39 36 36 35 34 34 33 32 33 35 36 35 35 34 34 32 33 35 34 34 33 34 33 28 21 18 14 13 14 14
29 32 30 30 31 31 31 32 33 36 37 36 35 37 37 36 36 36 35 33 33 32 33 34 35 34 33 34 35 35 35 34 33 30 22 16 15 14 14 15 13 12 12 12
32 32 31 31 33 34 36 36 37 37 36 34 34 38 37 36 35 35 35 34 33 34 34 33 31 32 33 33 32 32 30 24 18 17 17 16 15 14 14 12 10 11 10 12
34 33 31 30 33 35 35 37 37 36 35 34 34 37 37 35 34 35 34 34 32 31 26 26 26 28 30 27 24 25 23 19 17 15 14 15 16 17 18 18 19 24 23 24

GFSCGP_sfc_dewp_063.txt.gz
Dewpoint
44 41 38 38 38 33 34 31 32 33 31 29 30 30 29 30 30 29 30 31 32 33 36 37 37 37 39 39 39 40 47 62 66 66 64 64 64 65 65 66 65 63 61 60
41 37 39 40 40 35 33 31 31 30 30 29 27 27 28 29 30 30 29 30 30 30 29 30 33 35 36 37 39 40 41 49 64 65 64 64 65 65 65 65 65 64 62 61
37 37 42 42 39 36 33 31 30 29 28 27 26 25 24 24 24 25 25 26 26 26 25 25 28 32 36 36 36 38 40 43 56 64 65 64 65 64 64 64 64 64 63 61
38 41 40 39 38 37 35 34 31 28 28 27 26 22 25 22 21 24 27 29 30 30 30 29 32 31 33 34 36 37 39 40 46 61 64 63 61 61 62 63 64 64 63 62
36 39 38 35 35 38 35 36 29 28 26 25 24 23 21 20 19 23 26 30 32 34 34 33 33 36 34 37 36 36 36 38 40 50 61 63 62 63 63 63 63 63 62 62
36 39 39 36 39 37 32 28 27 26 24 21 20 20 15 18 20 23 26 31 33 36 36 36 36 37 37 40 40 41 36 34 37 42 53 62 62 62 62 62 62 63 61 61
35 35 35 35 31 31 29 28 21 18 20 17 24 22 19 21 25 25 28 30 33 37 38 38 37 38 39 40 41 40 38 37 37 39 42 51 61 62 61 61 61 61 58 58
29 28 33 33 32 31 28 29 22 12 14 15 23 21 18 22 22 26 29 30 33 36 38 40 40 38 39 41 41 39 38 38 38 39 39 43 50 58 60 60 60 60 60 59
26 29 32 32 32 31 28 26 24 19 18 17 19 20 19 23 26 27 27 30 33 36 38 40 40 40 39 40 40 42 42 41 40 40 42 42 43 48 55 58 58 59 58 56
28 29 33 32 33 31 29 28 24 21 13 14 11 13 13 22 24 26 27 29 32 37 39 40 41 40 39 40 43 44 43 44 46 47 47 47 48 48 50 53 54 54 52 52
29 28 32 32 31 28 29 28 25 23 20 14 11 7 17 23 25 26 27 29 34 41 41 41 40 41 41 43 40 37 37 41 43 44 45 46 47 47 48 49 49 49 48 48
31 30 29 30 31 31 29 27 23 20 19 20 20 14 20 22 26 26 27 29 40 41 41 38 38 41 43 39 36 35 36 39 41 43 44 45 46 46 47 46 45 45 46 45
29 26 25 27 29 30 30 28 25 24 24 21 16 13 21 25 26 26 27 30 40 39 34 35 39 41 37 35 35 35 35 36 39 42 43 44 45 44 44 42 42 42 40 39
31 26 24 21 22 28 25 29 26 25 23 21 21 18 21 23 25 26 28 37 38 34 32 31 32 33 34 34 34 34 33 34 36 39 40 40 40 39 38 37 35 34 32 30
30 26 26 26 29 28 27 29 26 23 24 23 22 22 23 24 26 28 30 37 36 33 31 29 29 32 32 33 31 31 31 31 32 31 32 34 34 33 32 32 32 32 31 30
30 27 27 25 28 29 28 28 29 27 27 25 25 26 28 29 29 30 37 36 34 31 30 29 28 30 31 31 31 31 32 31 30 31 31 32 32 33 34 34 34 34 35 36
29 28 25 21 27 28 25 28 28 29 29 29 27 28 29 29 31 39 37 34 30 27 29 28 29 32 32 32 33 33 33 32 32 32 31 32 33 33 34 34 35 35 35 36
28 28 28 24 25 21 22 28 30 29 29 30 30 30 30 30 38 35 33 30 27 27 27 27 29 32 32 33 34 34 34 34 34 34 33 33 33 33 34 34 33 33 34 34
31 31 28 24 24 22 30 31 29 29 32 30 30 30 31 34 40 38 30 27 25 27 28 29 30 30 31 32 33 34 34 34 34 34 34 34 34 34 34 33 33 34 33 32
35 32 27 25 20 18 22 33 34 34 34 36 32 34 35 40 38 39 31 28 28 29 29 30 30 31 32 33 33 34 34 34 33 34 34 35 35 34 33 33 32 32 32 32
32 32 27 26 22 23 25 29 32 31 33 36 38 38 39 39 39 35 31 32 32 32 33 34 34 34 33 33 34 33 33 33 34 35 35 34 34 34 34 33 33 32 31 30
29 28 28 29 24 19 27 33 34 35 35 36 37 39 41 38 35 32 33 33 34 34 34 35 34 35 34 34 34 33 32 34 34 34 34 33 34 35 34 32 28 24 21 18
28 27 26 26 25 28 30 33 35 34 33 35 37 37 40 37 36 34 33 34 32 32 34 35 34 34 34 34 34 34 34 36 35 34 34 32 28 23 19 14 14 14 14 14
29 31 29 30 31 30 31 32 33 35 37 36 35 36 38 37 36 35 34 33 32 32 32 34 34 34 33 35 35 35 35 34 32 28 18 15 14 14 14 14 12 12 12 11
31 32 31 30 32 34 36 36 38 38 37 36 34 36 38 36 36 35 34 33 33 33 33 34 34 34 32 34 34 34 32 26 18 16 16 16 14 11 11 11 10 10 10 12
33 31 31 30 33 34 34 36 38 38 37 36 34 36 38 36 36 36 35 34 34 34 32 30 33 33 33 32 31 29 22 19 17 14 14 16 17 18 20 20 20 25 25 24

GFSCGP_sfc_dewp_066.txt.gz
Dewpoint
42 41 38 40 37 29 26 30 28 31 31 35 33 32 32 33 33 32 31 30 30 31 33 35 36 37 39 39 40 40 41 49 58 65 65 65 64 65 65 66 65 64 62 61
40 37 37 39 38 33 31 30 28 31 33 30 30 30 31 31 32 31 30 30 30 31 30 30 29 31 33 36 38 41 40 42 48 58 64 64 64 65 65 66 65 65 64 63
36 38 40 39 39 35 32 27 27 28 29 29 28 28 29 25 24 25 25 27 28 29 28 29 30 30 34 36 36 38 40 41 43 51 57 62 63 66 65 65 65 65 64 65
37 40 39 37 39 37 35 33 32 29 29 26 27 19 24 21 25 27 30 32 33 33 32 33 35 34 35 35 37 37 38 39 40 45 53 58 59 60 61 63 64 65 64 64
35 37 36 34 38 39 37 33 31 31 29 28 26 24 21 22 25 28 32 35 36 36 36 36 38 38 39 42 41 39 36 37 39 40 48 56 58 58 60 62 62 63 64 64
38 42 39 37 39 38 36 30 28 28 28 28 24 23 17 17 21 28 32 34 37 38 38 38 39 41 42 44 43 43 39 36 36 40 43 51 55 57 60 61 61 62 63 63
35 36 39 39 35 38 35 35 30 28 27 22 23 23 18 22 23 29 32 35 38 40 40 40 40 40 42 44 45 42 40 38 38 39 39 42 50 56 58 59 60 61 61 62
32 29 35 37 33 31 32 30 26 19 19 15 24 19 18 22 23 28 30 32 37 40 41 42 42 42 41 43 44 45 45 42 39 40 39 40 44 47 55 59 59 59 60 61
31 32 36 37 34 31 29 31 24 25 21 20 17 21 21 24 25 27 29 32 37 40 41 42 42 42 41 42 44 45 43 44 45 46 45 43 43 44 47 52 57 58 59 60
30 31 33 31 33 30 30 27 26 31 21 16 13 14 17 24 26 28 30 31 35 41 41 41 40 42 43 44 43 41 41 42 45 46 46 46 48 49 50 50 51 52 54 56
30 30 32 32 31 29 28 29 26 24 22 16 9 6 19 24 27 26 28 30 36 40 40 39 40 41 44 41 40 39 39 41 43 44 46 47 48 48 49 50 50 50 51 51
31 31 31 30 30 31 29 27 24 28 24 24 23 13 20 26 25 26 26 30 37 41 37 40 42 43 40 38 38 37 38 39 41 43 46 47 47 48 48 48 48 48 48 48
29 29 27 27 28 30 30 29 25 26 29 27 20 14 22 24 24 26 27 31 38 37 36 38 38 37 37 37 36 36 35 37 39 42 44 44 44 44 43 43 43 42 43 41
32 27 29 24 23 29 32 29 28 33 29 23 23 18 21 24 24 28 31 34 38 36 35 35 35 36 35 35 34 33 32 34 36 37 39 39 38 38 37 36 33 31 30 29
30 30 28 26 28 28 29 30 28 30 29 31 21 21 21 23 27 31 33 37 38 35 34 33 33 34 34 33 32 32 32 33 34 34 36 36 35 34 33 33 33 33 32 32
31 32 29 28 28 28 29 29 29 28 27 26 25 25 26 28 29 30 38 38 36 33 32 31 31 32 32 33 32 33 33 32 33 34 34 34 34 35 35 35 36 36 37 36
29 30 29 27 27 27 27 28 29 29 29 28 27 27 28 28 29 34 38 37 34 30 31 30 31 32 33 33 33 33 32 33 33 32 33 33 34 34 35 35 35 35 35 35
29 29 29 26 25 20 24 28 30 29 28 30 29 29 29 30 31 37 36 35 31 29 30 30 31 32 33 34 34 34 34 34 34 33 33 34 34 34 34 35 34 33 34 33
31 29 28 25 23 23 31 30 29 30 34 31 29 30 31 32 39 39 33 30 28 28 29 30 31 32 33 33 34 34 34 34 34 34 34 34 34 35 35 34 34 34 34 33
32 31 28 29 22 18 27 34 35 33 35 36 32 33 36 39 38 40 33 28 28 29 30 30 30 31 32 33 34 34 34 34 34 35 35 36 35 35 34 34 34 33 34 33
30 31 27 25 25 22 25 27 31 31 35 37 36 36 38 38 38 37 30 30 31 31 32 33 33 32 33 34 34 34 34 34 36 36 36 36 36 35 34 33 33 33 33 32
27 27 27 27 24 22 28 34 32 36 36 34 36 37 39 40 35 33 33 33 32 33 33 33 34 34 34 35 35 35 34 35 35 35 34 35 35 35 34 31 29 25 23 20
27 28 24 25 25 28 30 33 34 34 33 35 37 37 39 39 35 34 33 34 33 33 33 33 32 33 33 34 36 34 35 36 36 35 34 33 31 22 15 14 14 14 13 12
32 32 29 30 30 30 30 33 35 35 37 37 37 36 39 38 37 35 34 34 33 33 33 33 33 33 33 35 36 36 36 35 33 29 25 18 14 13 13 14 13 12 10 7
31 32 32 31 32 33 35 36 37 38 38 37 36 35 37 38 37 35 35 34 33 32 33 33 34 33 34 36 36 35 34 32 26 18 15 15 14 9 9 10 8 7 11 12
33 30 29 26 30 33 33 36 38 38 39 40 37 35 39 38 38 36 35 34 34 33 34 34 34 33 33 34 34 33 29 26 17 14 14 14 14 15 18 19 20 26 25 25

GFSCGP_sfc_dewp_069.txt.gz
Dewpoint
45 40 35 38 36 33 26 26 24 26 33 32 30 28 29 29 33 31 29 28 28 28 29 31 33 35 37 38 39 40 41 44 54 59 65 66 66 67 66 65 63 63 61 61
38 36 38 40 36 34 28 23 24 27 29 32 29 28 28 31 31 31 30 27 26 26 27 31 32 33 34 36 38 40 40 41 43 52 62 64 64 64 65 67 66 65 64 63
33 34 36 40 38 36 36 26 24 25 30 31 27 26 28 29 30 29 29 29 29 30 29 29 29 31 34 35 36 38 40 41 42 45 51 63 63 64 65 65 65 64 65 65
32 39 34 37 38 39 32 28 25 26 28 21 28 14 23 25 25 25 26 28 30 31 31 32 34 34 36 37 38 39 39 40 41 43 44 50 58 59 61 62 63 63 64 65
36 38 38 37 37 39 36 34 30 30 27 27 27 24 23 23 24 25 29 32 34 34 34 36 38 39 40 43 43 41 38 38 38 40 43 47 52 57 58 58 59 61 64 65
38 40 38 37 39 40 33 32 32 31 30 30 25 23 20 21 23 27 30 33 35 36 36 37 40 41 43 45 44 44 40 36 37 39 41 44 50 54 57 57 58 59 61 64
36 36 38 38 35 38 36 35 31 30 28 23 24 23 19 21 24 28 30 33 37 39 39 39 40 40 42 44 46 44 42 39 39 39 39 40 45 51 55 56 57 57 60 62
33 29 34 38 37 34 36 36 33 24 22 20 22 22 20 22 24 30 33 35 38 39 40 41 42 43 42 43 45 45 44 44 43 42 41 40 42 43 46 52 55 57 57 59
32 32 37 38 37 37 35 33 27 23 21 19 17 19 22 23 24 29 30 33 38 40 41 42 42 43 43 44 44 43 42 43 45 45 45 44 42 43 44 47 51 54 56 58
30 31 36 38 37 32 33 31 27 33 21 17 14 15 17 20 24 27 30 32 36 40 41 40 40 41 43 43 42 42 41 42 44 45 46 46 47 48 49 49 49 50 51 52
31 30 33 33 35 32 30 29 27 26 24 18 11 9 21 23 26 29 30 31 35 39 40 40 41 42 42 41 40 39 40 41 42 44 46 47 47 47 48 49 49 49 49 50
31 31 30 30 30 31 29 28 26 29 25 25 25 15 22 25 27 27 29 31 36 40 39 41 43 41 40 39 39 38 38 39 41 43 45 45 45 46 46 45 46 46 47 47
30 30 28 27 28 30 29 28 26 26 32 29 21 16 23 26 26 26 27 31 36 39 38 39 39 38 37 37 36 36 35 37 39 41 42 41 41 40 39 38 37 38 38 37
33 28 30 26 25 30 34 29 28 32 30 23 23 17 21 25 25 25 30 33 37 38 37 37 37 37 36 35 35 34 34 35 36 39 39 38 37 37 36 35 34 33 32 31
29 29 29 26 27 27 29 30 29 31 29 32 20 19 20 23 24 27 33 36 39 37 36 35 36 36 35 34 34 34 34 35 35 36 37 37 37 36 35 35 35 34 34 33
30 32 29 30 27 27 29 28 29 28 27 25 24 23 24 24 29 31 34 39 38 36 34 33 34 34 34 34 34 34 34 34 34 35 35 36 36 36 36 36 36 36 37 37
28 30 29 27 27 27 27 28 28 29 28 27 26 26 28 28 29 31 36 38 37 34 34 33 33 34 34 34 34 34 34 34 34 33 34 35 35 35 35 35 35 35 35 36
28 27 29 25 25 22 25 28 29 28 28 29 28 28 28 30 31 34 36 38 35 32 32 32 33 34 34 35 35 34 34 34 34 33 34 35 35 35 36 35 34 34 34 34
29 27 27 25 22 23 29 29 28 29 32 30 29 29 31 34 38 38 37 35 32 31 31 32 33 33 34 34 35 35 34 35 35 34 34 35 35 35 35 34 34 35 34 33
30 29 27 28 24 18 30 35 34 33 34 34 32 33 35 38 36 40 35 30 29 30 32 32 32 32 33 34 34 34 34 34 35 35 35 35 35 33 34 34 33 33 34 34
28 29 26 25 24 23 27 29 31 31 35 36 34 35 35 36 38 37 32 30 31 32 32 32 32 32 33 34 35 35 35 34 36 36 36 35 36 34 34 34 34 35 34 33
25 24 24 25 23 22 34 34 28 36 36 36 37 37 38 39 36 34 33 32 32 32 33 33 33 34 34 34 35 35 34 36 36 36 35 35 35 34 34 34 31 27 25 21
25 26 24 25 25 30 30 33 32 33 35 36 37 38 38 39 36 35 34 34 34 33 33 34 33 33 33 33 35 34 35 36 36 35 35 34 32 25 18 16 16 14 13 11
29 31 27 29 28 29 29 32 37 35 37 38 38 36 37 38 38 36 35 34 34 33 33 33 32 32 32 33 35 36 36 35 34 32 30 21 14 14 14 16 13 11 9 8
30 32 29 29 30 32 33 34 38 37 38 38 37 37 36 38 38 36 35 35 33 33 33 33 32 32 32 33 35 35 35 33 30 22 16 15 15 12 10 11 11 8 16 19
30 29 29 26 30 30 34 37 37 37 38 39 39 38 37 38 39 37 36 35 34 33 33 33 34 33 33 36 35 34 34 31 21 15 16 15 14 14 19 20 21 27 26 25

GFSCGP_sfc_dewp_072.txt.gz
Dewpoint
43 40 37 37 35 36 36 32 28 29 29 34 33 33 32 30 32 32 31 29 28 29 30 31 31 32 35 39 41 42 43 48 60 65 65 65 66 65 66 65 63 62 61 59
38 36 38 36 36 36 35 30 29 28 32 32 31 31 30 31 30 32 32 30 29 28 28 29 32 34 34 36 38 40 41 43 45 53 65 65 65 65 65 64 66 66 64 62
35 35 37 38 35 34 33 32 32 26 31 30 28 27 28 29 29 30 32 31 30 30 30 30 30 32 35 34 36 39 40 41 42 44 52 64 64 63 63 64 65 65 65 65
37 36 37 37 37 35 32 34 34 28 28 26 29 21 25 28 30 31 29 27 28 30 32 33 35 36 38 41 41 40 39 40 40 43 44 52 62 61 63 64 64 63 64 64
35 36 37 37 37 40 36 40 33 33 28 26 27 24 24 27 26 26 25 29 33 33 34 37 38 40 42 44 43 42 39 38 38 39 41 44 45 53 60 60 62 62 63 63
38 40 39 38 39 38 40 37 38 34 31 28 26 24 21 22 23 24 29 33 34 34 36 39 40 43 45 46 45 43 40 38 37 38 40 41 43 46 53 57 56 57 59 63
35 36 39 38 38 39 37 34 30 28 27 22 26 25 23 23 25 28 31 34 37 38 38 39 40 41 43 45 46 45 45 42 41 40 39 39 41 45 49 53 56 57 58 59
30 27 36 38 36 34 34 36 31 22 21 20 23 22 20 24 27 30 33 37 39 39 41 42 43 42 42 44 45 43 43 44 45 46 45 43 41 44 45 46 50 55 56 57
29 29 37 38 38 38 36 33 35 27 22 21 21 21 22 23 29 32 33 35 39 40 41 41 41 43 43 44 43 42 42 44 45 45 46 46 47 47 48 48 47 50 54 55
32 30 36 37 39 38 37 35 29 32 23 19 17 18 19 21 26 30 31 34 39 40 41 40 41 42 43 42 41 40 41 42 43 45 46 47 47 48 48 49 49 49 49 50
32 33 35 37 36 35 35 34 29 27 25 22 15 14 21 22 25 27 31 33 37 40 39 40 42 43 41 40 39 39 39 41 42 44 46 46 47 47 48 47 47 47 48 48
33 31 31 31 31 32 30 31 29 25 22 26 25 16 22 24 27 30 31 32 38 40 39 42 42 40 39 38 37 36 38 39 41 43 43 42 42 41 39 38 39 41 40 38
31 30 26 27 30 31 30 30 28 29 32 28 22 17 25 26 26 27 29 32 38 39 39 41 39 38 37 36 35 35 35 36 38 40 39 39 38 37 35 34 34 32 32 31
35 29 27 22 27 31 27 29 29 31 26 26 24 19 24 25 26 25 29 32 38 38 38 37 37 37 36 35 35 34 34 35 37 38 38 37 36 35 35 35 34 34 33 33
32 26 28 27 27 29 31 30 30 25 28 22 23 21 21 25 26 25 33 35 38 37 36 37 36 36 35 34 34 34 35 35 36 37 37 36 36 36 36 36 36 36 35 35
30 27 29 27 27 28 28 29 29 29 28 26 25 24 23 24 25 31 33 38 39 38 36 34 35 34 34 34 34 34 34 34 35 35 36 36 36 36 36 36 35 35 36 37
29 29 27 23 27 27 24 28 29 29 28 27 25 26 29 29 30 31 35 39 39 36 35 33 34 34 34 34 34 34 34 34 34 34 35 35 35 35 35 35 34 35 33 34
28 28 29 24 25 20 26 28 30 29 29 29 29 28 29 30 32 33 36 38 37 34 34 33 34 34 34 35 35 34 35 34 35 34 35 35 35 35 35 35 34 34 34 33
29 28 27 24 22 23 29 29 29 28 29 30 29 30 30 35 38 36 37 36 34 32 32 33 34 34 35 35 35 34 35 35 34 34 35 35 35 35 34 34 34 34 33 32
30 30 27 29 23 20 32 32 32 32 33 32 30 31 35 38 36 39 33 30 30 31 32 33 33 34 34 35 35 35 35 35 35 35 35 34 34 35 34 34 32 33 34 33
28 29 26 25 24 24 34 34 32 32 34 35 35 36 36 37 38 36 32 31 31 33 32 32 32 33 34 35 36 35 35 34 36 36 34 34 34 34 34 33 33 31 29 27
26 25 24 26 24 20 34 32 30 37 37 37 38 38 38 38 35 33 32 32 33 33 33 33 34 35 35 36 36 35 33 35 36 36 35 35 35 34 33 31 28 28 26 22
26 26 25 24 25 30 34 32 33 33 36 37 37 38 38 39 37 35 34 34 33 33 33 34 34 34 34 34 36 34 35 36 36 35 35 34 33 33 32 23 20 17 14 12
29 31 28 29 29 30 31 35 36 36 37 38 38 37 38 38 37 36 35 34 35 34 33 33 33 33 32 33 34 36 36 36 35 34 33 30 17 15 15 16 13 12 10 9
31 31 30 28 30 31 32 33 37 37 39 38 38 38 37 38 39 36 36 35 34 33 33 33 32 33 32 34 35 36 36 35 33 29 19 16 17 14 14 23 16 17 22 21
31 30 29 27 31 31 36 37 38 37 38 37 38 38 37 38 39 37 36 36 34 34 33 33 32 32 32 34 35 35 35 33 23 16 17 16 13 12 20 22 24 27 26 25

GFSCGP_sfc_dewp_075.txt.gz
Dewpoint
41 38 36 36 34 34 33 34 33 34 34 34 33 33 34 33 31 31 31 30 30 30 29 29 31 33 34 35 41 46 56 65 65 65 63 63 64 64 65 65 64 61 59 58
36 35 38 39 35 36 35 32 31 30 33 35 33 33 34 34 32 31 32 32 31 30 30 30 32 33 34 34 37 39 40 44 60 65 65 64 64 64 64 64 65 66 65 61
33 36 41 37 35 35 36 33 32 30 31 32 30 29 32 33 32 32 32 33 31 29 30 30 33 35 36 38 38 38 39 40 41 46 64 63 64 62 62 63 64 64 65 64
33 34 37 36 34 35 34 34 35 34 30 30 28 23 25 29 31 29 31 31 29 29 31 35 37 38 40 42 42 40 39 38 38 39 45 62 62 62 62 62 63 63 63 63
31 35 37 37 35 36 34 40 38 36 35 27 28 23 22 26 28 29 30 27 28 31 35 37 38 41 43 43 43 42 38 37 37 37 39 42 47 53 60 62 62 63 62 63
38 40 39 38 39 39 38 37 37 36 35 29 27 24 20 25 27 27 26 30 33 35 38 39 41 44 45 46 45 45 39 40 40 38 37 39 40 42 45 53 58 60 61 61
36 36 39 40 37 38 37 34 29 27 28 21 27 24 21 24 26 26 30 33 34 35 38 39 41 43 44 45 44 44 45 45 45 45 44 41 39 41 45 48 53 56 57 57
30 28 36 38 36 34 35 34 30 24 20 22 25 24 24 23 26 32 34 36 37 39 40 42 42 42 43 44 43 42 44 44 45 45 46 47 47 45 46 46 48 53 55 57
28 30 37 38 38 37 36 33 36 28 24 21 22 21 21 26 32 34 36 38 39 41 42 42 42 43 43 42 41 41 42 43 44 46 46 47 47 48 48 49 50 50 51 53
32 29 36 37 39 38 38 35 31 29 23 19 19 19 20 22 30 33 35 37 40 41 40 40 42 42 41 40 40 40 41 42 43 46 47 47 47 48 48 47 47 48 48 49
33 30 34 37 35 33 35 35 34 31 30 22 15 15 20 22 30 30 32 37 40 41 40 41 42 41 40 39 38 38 40 41 42 44 43 42 40 39 39 40 42 42 40 41
33 33 31 33 36 36 36 35 31 24 24 25 22 19 22 23 29 29 31 36 40 39 40 42 40 39 38 37 36 36 37 39 41 41 39 38 37 35 34 33 32 32 32 32
31 29 25 28 30 31 29 33 32 29 30 24 22 18 26 27 29 31 32 37 39 39 41 41 39 37 36 35 35 35 35 38 39 38 36 36 35 35 34 33 33 32 32 31
34 30 23 21 25 29 26 29 28 25 20 24 22 21 25 26 26 27 31 35 39 38 39 39 37 36 35 35 35 34 35 37 38 37 36 36 35 35 35 35 34 33 33 33
30 25 26 27 28 30 30 29 29 22 26 22 23 22 25 25 25 25 28 33 39 38 37 37 37 36 35 34 34 34 35 36 37 37 36 36 36 36 36 36 36 37 37 37
31 26 27 24 27 27 27 29 30 28 27 27 26 24 23 26 26 27 32 36 38 37 37 36 36 35 34 34 34 34 34 35 36 36 36 36 36 36 36 35 36 35 35 36
29 27 24 20 27 27 23 27 29 30 29 27 24 25 28 25 27 32 35 39 39 38 35 35 34 34 34 34 34 33 34 34 35 35 35 35 35 35 35 35 34 34 34 34
28 28 28 22 24 19 23 29 30 30 30 30 29 28 28 30 32 34 37 39 39 36 35 34 34 34 35 35 34 34 35 35 35 35 35 35 36 35 35 34 34 34 33 33
31 28 26 22 21 23 28 29 29 28 28 30 29 29 30 36 37 37 36 36 37 34 33 34 34 34 35 35 35 35 34 34 35 35 35 36 36 35 35 34 33 33 33 32
30 29 26 27 20 20 31 30 32 32 31 33 30 30 32 38 34 37 32 31 32 32 34 34 34 34 34 35 35 35 34 34 35 35 35 35 36 35 34 33 33 33 33 32
27 27 23 23 22 24 34 34 32 31 30 35 34 35 37 37 37 37 31 31 32 33 33 33 33 34 35 36 36 35 35 35 36 35 34 35 35 34 34 33 33 31 25 25
25 27 26 25 24 20 31 31 29 35 37 37 38 38 38 37 34 32 32 32 33 33 33 33 34 35 36 37 36 35 34 36 35 35 34 34 35 35 33 31 28 28 26 22
25 25 23 24 24 29 35 33 34 37 36 37 37 38 39 38 36 34 33 33 33 33 33 34 34 34 35 36 37 34 35 36 35 35 34 34 34 32 31 28 26 23 19 15
30 30 27 27 29 29 32 35 36 36 37 38 37 37 38 39 37 35 34 34 34 34 33 34 34 32 32 33 35 36 36 36 35 34 34 32 31 30 28 20 17 13 11 10
30 31 29 28 29 30 31 37 38 38 38 38 39 37 36 38 38 36 35 35 34 33 33 33 33 32 32 32 35 36 36 35 34 33 32 26 19 16 20 20 11 17 21 14
31 30 29 29 31 33 36 37 37 37 37 36 37 37 38 37 39 37 36 35 35 34 33 32 32 32 32 33 34 36 36 35 33 28 18 17 16 13 22 24 24 26 26 26

GFSCGP_sfc_dewp_078.txt.gz
Dewpoint
40 37 35 37 36 33 33 33 33 34 35 36 34 33 33 34 32 31 33 34 33 32 31 31 32 36 39 46 60 63 64 65 64 64 63 63 63 64 64 63 61 59 58 58
35 33 38 38 36 35 33 33 32 32 35 36 34 33 34 34 33 31 31 32 32 30 29 31 33 34 35 37 40 45 49 60 64 64 64 64 63 63 64 64 64 63 61 59
31 31 37 40 35 34 35 32 31 30 31 34 34 33 33 34 35 33 32 32 32 31 30 32 33 35 37 37 37 38 39 40 46 60 64 63 63 62 62 62 63 64 64 63
32 33 36 37 35 34 33 37 35 35 31 28 31 27 29 33 33 34 32 32 32 30 31 34 36 38 40 41 41 39 38 38 38 40 55 62 63 62 61 61 62 62 63 63
27 32 35 35 35 35 34 38 35 37 34 28 27 26 25 25 30 32 33 32 31 29 34 36 38 41 42 43 42 42 37 37 37 37 40 53 57 59 59 60 61 61 61 62
32 39 39 37 40 38 39 38 37 38 37 29 28 27 24 22 24 28 32 31 29 33 37 39 42 44 45 45 45 42 44 45 44 40 38 39 40 41 43 47 55 60 61 61
33 37 40 41 37 39 36 34 27 27 28 22 27 26 26 23 25 27 29 30 34 37 38 41 43 44 45 44 43 44 45 45 45 46 46 43 40 41 43 46 51 54 56 57
30 27 37 39 37 36 35 30 21 16 21 21 27 24 25 24 25 27 29 33 35 37 38 40 42 43 44 43 42 44 44 44 45 46 46 47 48 48 48 47 50 53 55 57
28 30 38 38 39 36 36 33 35 24 22 18 23 24 22 29 32 33 35 36 37 39 41 42 42 43 42 41 41 42 43 43 45 46 47 47 47 48 47 47 48 49 50 52
31 29 35 38 39 38 37 36 31 31 24 18 20 20 22 27 31 34 36 38 40 41 41 42 43 41 40 40 40 41 42 43 44 45 45 45 45 45 45 45 45 45 45 48
33 30 33 35 35 34 36 34 34 30 26 19 16 18 21 25 32 34 37 39 40 40 40 41 42 40 39 38 38 40 40 42 43 41 39 37 36 35 35 36 36 36 36 39
33 32 29 30 35 35 35 33 32 21 25 20 19 20 22 23 31 34 35 40 40 40 40 42 40 39 37 36 36 37 39 40 40 38 37 36 35 34 33 32 32 32 32 32
31 30 27 30 33 35 35 36 34 29 24 18 18 19 26 28 30 32 33 39 40 40 42 40 39 37 36 35 35 36 37 39 38 36 35 35 34 34 33 33 33 33 33 33
35 29 23 22 23 29 27 32 34 27 18 21 21 20 25 28 29 31 35 39 39 40 41 39 38 36 35 35 35 35 36 38 37 36 36 35 35 35 35 35 35 35 35 35
28 24 26 27 30 29 28 28 28 24 24 22 22 23 25 27 29 30 33 38 39 38 40 38 37 36 34 35 34 35 36 37 37 36 36 36 36 36 36 36 36 36 36 36
31 27 25 23 27 28 27 29 29 27 26 26 26 25 26 28 26 26 28 34 38 38 38 38 37 36 34 34 34 34 35 36 37 36 36 36 36 36 36 36 35 35 36 36
29 27 24 20 26 26 22 27 29 29 29 27 24 25 26 27 26 27 30 33 37 38 37 37 36 35 34 34 34 33 34 35 36 35 35 35 35 35 35 34 34 34 34 35
28 28 26 21 23 19 20 29 30 30 30 29 28 28 28 27 29 32 36 36 38 38 36 36 35 34 34 35 34 34 34 35 35 35 35 36 35 35 34 34 34 33 33 34
30 28 26 22 21 21 26 29 29 29 28 31 29 29 32 34 35 36 37 38 39 38 36 35 35 35 35 34 34 34 34 35 35 35 36 36 36 35 34 33 33 33 33 33
30 29 26 23 19 19 26 30 31 33 29 32 30 30 34 36 31 33 34 34 34 34 34 35 35 35 35 35 35 34 34 34 34 35 36 36 36 35 34 33 33 33 30 27
25 27 24 23 20 24 27 34 34 29 26 34 31 31 36 35 34 37 32 31 33 34 34 35 35 35 35 36 36 35 35 35 36 35 35 36 35 35 34 33 33 31 24 25
24 24 24 24 22 17 32 30 31 33 37 37 37 37 37 37 34 33 32 32 33 33 34 34 34 35 36 37 36 35 35 36 35 35 35 35 34 34 33 33 27 27 26 24
24 25 24 24 23 27 32 32 34 38 37 37 38 38 39 36 35 33 33 33 33 33 33 34 34 34 36 37 36 35 35 35 35 34 34 34 34 32 31 28 26 25 21 19
28 30 27 27 27 29 33 34 35 35 37 38 37 37 40 38 38 35 34 33 33 33 33 34 34 33 33 35 36 36 36 35 35 33 33 33 32 31 28 27 24 19 16 13
28 30 28 28 29 30 31 35 37 38 38 38 39 38 37 38 38 36 35 34 34 33 34 34 33 32 32 33 34 36 36 36 35 34 33 32 30 29 25 19 15 12 12 13
30 29 29 28 30 30 34 37 38 37 37 36 36 36 38 38 38 38 36 35 34 34 34 34 33 32 32 33 34 36 36 35 34 33 31 29 22 17 20 17 22 25 27 25

GFSCGP_sfc_dewp_081.txt.gz
Dewpoint
39 37 34 37 37 32 34 32 32 34 36 36 34 34 34 34 33 34 35 39 34 34 34 32 32 37 50 57 61 63 63 64 64 63 62 62 62 63 63 61 60 59 60 60
35 33 36 38 37 34 33 32 32 33 35 35 35 35 34 34 34 33 31 33 33 34 31 31 32 33 38 38 53 60 62 63 64 63 63 63 63 63 64 64 62 61 59 59
29 31 37 39 36 34 33 31 32 30 32 34 32 32 34 35 35 35 33 32 32 33 30 32 33 34 36 36 38 43 47 51 62 63 63 62 62 62 62 62 63 64 63 61
30 32 37 36 35 36 33 34 33 33 30 27 32 25 29 33 34 34 35 34 33 32 30 32 35 37 39 40 40 39 38 38 39 48 61 62 63 61 61 61 62 62 63 63
28 30 35 34 36 36 35 38 36 36 31 26 26 26 28 26 30 32 34 34 33 32 31 33 36 40 41 42 42 39 37 38 37 37 42 57 60 60 60 60 60 61 61 62
32 36 37 37 39 38 40 37 38 37 34 27 27 28 27 25 25 29 32 34 33 31 34 36 41 43 44 44 42 44 45 45 44 40 38 41 52 53 52 50 54 57 59 60
33 34 39 40 35 39 38 34 28 27 27 23 27 27 28 28 24 26 26 31 31 32 36 40 43 44 44 43 44 45 45 45 46 46 46 44 40 40 41 43 46 50 54 56
28 27 36 38 37 36 33 30 21 16 22 23 27 25 26 28 28 27 26 30 33 36 39 42 43 44 43 42 44 44 44 45 45 46 46 47 48 48 48 48 50 52 54 56
29 30 38 39 39 37 36 28 32 23 20 17 23 25 24 25 28 29 31 34 36 38 40 42 43 44 42 41 42 42 43 44 46 46 46 46 46 47 47 47 48 49 50 52
30 30 36 38 39 38 34 36 28 31 13 16 19 20 22 24 27 32 33 34 36 40 41 42 43 41 41 40 41 42 43 44 44 43 43 42 42 43 43 43 43 43 45 48
32 31 33 36 36 34 35 34 33 29 25 18 16 17 22 22 28 32 34 38 39 41 41 42 41 40 39 39 40 40 42 43 40 39 37 36 35 34 34 34 34 35 36 39
33 32 30 32 36 36 34 33 32 21 26 24 16 19 24 23 27 35 37 40 41 40 41 42 40 38 37 37 37 38 40 40 38 37 36 35 34 33 33 32 32 32 32 33
33 30 28 28 32 35 34 33 32 28 24 18 17 20 25 28 31 36 38 40 40 40 41 40 39 37 36 35 36 37 39 38 37 36 35 34 34 33 33 33 33 34 34 34
34 29 24 21 23 32 32 33 34 32 26 22 20 23 22 27 30 33 38 40 39 40 41 40 38 37 35 35 35 36 38 37 36 36 35 35 35 35 35 36 36 36 35 35
28 26 26 27 29 29 29 29 33 31 29 23 24 22 22 26 30 32 36 39 39 40 41 39 38 36 35 35 34 35 37 37 37 36 36 36 36 36 36 35 36 36 36 35
30 25 25 24 27 28 27 29 32 33 31 28 26 25 26 27 29 31 34 39 39 39 41 39 38 36 34 34 34 35 37 37 37 36 36 36 36 36 36 36 36 36 36 36
28 27 23 17 26 26 21 26 29 29 28 28 25 26 26 27 27 30 31 37 39 39 38 39 38 36 35 34 34 34 36 36 36 36 35 36 36 35 35 35 35 34 35 36
28 26 26 22 22 16 18 29 29 29 29 29 28 27 27 27 28 28 30 32 35 38 38 38 37 36 35 34 34 34 35 36 35 35 35 35 35 35 35 34 34 34 34 34
29 28 26 22 20 20 23 28 29 28 27 31 29 29 31 33 34 34 37 37 34 38 38 37 36 35 35 34 34 34 35 35 35 35 35 36 36 35 34 33 33 33 33 33
29 29 25 22 18 17 24 31 30 31 26 33 31 30 33 34 29 32 36 35 37 37 36 35 35 35 34 34 34 34 34 35 35 35 36 36 36 35 34 33 33 33 32 31
26 27 26 23 19 23 25 33 33 25 24 34 32 31 34 34 32 34 33 32 34 34 35 35 35 35 35 35 34 34 34 35 36 36 36 36 36 35 34 33 33 30 27 25
24 23 23 25 24 16 31 32 28 31 37 37 35 34 36 37 36 34 33 32 33 34 35 35 35 36 36 36 35 35 35 36 36 36 36 35 35 34 34 32 30 27 26 24
24 24 25 23 22 25 30 32 32 38 37 38 38 38 38 36 35 34 33 32 33 34 34 34 35 35 35 36 36 35 36 35 35 35 34 34 34 33 33 30 27 25 24 23
27 29 27 27 27 28 31 35 35 35 37 37 37 38 40 38 37 36 34 33 33 33 33 34 34 33 33 34 36 36 36 35 34 34 34 34 32 32 31 29 27 23 20 18
28 29 28 28 29 29 31 35 37 37 38 38 38 37 37 38 39 37 36 34 34 33 33 33 33 32 32 33 35 36 36 35 34 33 33 33 32 32 29 26 23 19 17 16
30 30 28 28 30 29 30 35 38 38 37 37 37 36 37 37 38 38 37 36 34 33 34 34 33 33 33 33 34 35 36 35 35 34 33 32 31 29 26 20 16 23 21 25

GFSCGP_sfc_dewp_084.txt.gz
Dewpoint
35 34 30 35 38 31 31 33 32 34 36 35 34 34 34 37 44 44 47 48 45 37 35 35 34 44 58 60 62 63 63 64 64 63 62 62 63 63 61 60 61 61 62 61
33 30 33 37 38 36 29 31 32 34 36 35 35 34 35 34 36 37 42 44 41 38 36 33 31 31 39 53 58 60 62 63 64 64 63 63 62 63 63 63 61 61 60 60
29 31 37 37 37 36 30 29 31 30 34 33 32 32 34 36 35 34 34 38 39 38 37 32 32 33 34 38 44 55 60 62 63 63 63 62 62 61 61 62 62 62 61 60
32 36 35 36 34 36 31 31 32 31 30 29 31 25 28 34 35 35 35 33 33 36 33 31 33 35 36 37 38 39 41 43 48 61 62 61 61 61 61 61 62 62 62 62
29 31 34 33 35 37 34 34 34 32 30 27 26 26 28 28 32 34 34 35 35 34 32 31 34 37 40 41 40 38 38 38 37 38 47 59 60 61 60 60 60 60 61 62
32 36 34 35 36 39 39 37 36 35 31 23 26 27 25 27 26 27 32 33 35 35 33 32 37 42 43 42 42 44 44 45 44 40 39 40 50 56 56 56 56 58 59 60
32 34 38 38 34 40 39 32 29 27 27 21 26 26 28 29 26 26 27 31 34 34 32 35 41 43 43 43 44 44 45 45 46 46 46 44 41 40 42 45 46 47 51 55
25 26 35 38 35 36 36 30 20 15 19 22 27 24 26 30 30 30 27 27 29 32 34 37 42 43 42 43 44 44 45 45 46 46 46 47 47 47 47 47 49 51 53 54
27 30 37 37 39 39 35 31 28 22 18 18 23 24 25 26 26 27 28 29 31 34 38 41 43 43 42 43 43 43 44 45 45 45 46 45 46 46 46 46 47 48 48 52
31 29 35 36 39 38 35 35 26 27 14 16 18 17 21 23 24 27 30 32 35 38 41 42 43 41 41 41 42 43 43 43 42 42 42 40 40 41 41 40 40 42 44 46
34 31 34 35 34 34 34 31 31 28 23 17 15 18 22 23 22 24 30 34 37 40 41 42 41 40 40 40 41 42 43 41 39 38 36 35 34 34 34 34 34 35 36 37
35 33 29 33 37 36 34 32 31 22 23 22 16 21 25 24 24 27 33 37 39 40 41 41 40 38 38 39 39 40 41 39 38 36 35 34 34 33 33 33 33 33 33 34
33 30 27 29 31 35 33 33 31 27 25 24 18 21 24 27 28 33 36 38 40 40 41 40 38 37 37 37 37 39 39 37 36 36 35 34 34 34 33 34 34 34 35 35
34 29 25 22 23 30 31 32 32 25 18 22 21 23 26 25 27 32 36 38 39 40 41 39 38 37 36 35 36 38 38 37 36 36 35 35 35 35 35 35 35 35 35 35
30 26 26 26 28 31 30 30 31 27 27 23 23 24 26 25 25 31 37 40 39 40 40 39 38 37 35 35 35 37 37 36 36 36 35 35 35 35 35 35 35 35 35 35
30 27 26 24 29 28 28 29 32 31 30 29 28 26 27 27 30 32 36 39 39 40 41 40 39 37 35 34 34 36 37 37 37 36 35 36 36 36 35 36 36 36 36 35
28 26 23 18 26 25 20 25 30 31 31 31 28 29 29 26 28 30 33 39 39 39 40 40 39 37 35 34 34 35 37 37 36 36 36 36 36 36 35 35 35 35 36 36
27 25 25 23 22 15 18 29 29 30 30 31 30 28 27 27 28 29 32 35 38 39 39 40 39 37 36 35 34 35 36 36 36 35 35 36 36 35 35 35 34 35 35 35
29 28 25 21 20 20 24 28 28 28 26 30 30 30 29 32 32 31 31 32 35 37 39 39 39 37 35 35 34 34 35 35 35 35 35 35 36 35 35 34 34 34 34 33
28 28 25 22 18 15 22 31 31 30 25 32 31 31 29 33 28 30 36 37 38 38 38 37 36 35 35 34 34 34 35 35 34 35 36 36 36 35 34 34 33 33 33 32
26 28 24 25 21 23 24 29 32 25 23 34 32 31 32 33 31 33 34 33 35 35 35 36 35 35 35 35 35 35 35 34 35 36 36 36 36 35 34 34 33 32 31 28
24 22 23 26 25 17 26 31 28 29 36 37 34 32 34 35 35 34 33 33 34 34 35 35 35 35 35 35 34 34 33 36 36 36 36 36 35 35 34 33 31 30 27 25
23 24 24 24 24 25 27 32 34 37 37 37 38 36 37 36 35 34 33 33 33 34 34 35 35 35 35 35 34 33 34 36 36 36 35 35 34 34 32 30 29 27 26 24
27 28 26 26 27 27 28 33 35 36 37 37 38 39 39 37 36 36 34 33 33 33 33 34 34 35 35 34 35 35 36 35 35 35 34 34 33 33 31 30 28 26 24 23
28 29 28 27 28 29 30 34 36 36 37 37 38 38 37 38 39 38 37 36 34 33 33 33 34 34 34 33 34 35 36 35 34 34 34 33 32 32 30 28 27 24 22 21
30 29 28 27 30 29 29 34 37 38 37 37 36 36 36 37 37 38 38 37 35 34 33 33 34 33 33 33 35 36 35 35 34 33 33 33 32 31 31 27 23 29 25 26

GFSCGP_sfc_dewp_087.txt.gz
Dewpoint
36 33 32 35 36 34 31 33 32 33 37 36 35 35 35 41 44 43 45 47 45 45 46 39 37 46 60 62 63 65 65 65 64 64 64 64 64 65 64 63 64 64 64 64
32 29 34 35 37 37 31 32 32 34 36 37 35 34 36 36 43 44 44 45 44 44 44 39 38 34 37 57 61 63 64 65 65 65 64 64 64 65 66 65 63 63 63 64
27 32 32 36 34 34 32 32 32 31 35 34 34 34 35 36 36 39 41 45 43 42 42 41 36 36 37 39 52 60 62 63 65 65 64 63 63 63 64 64 64 63 62 62
32 36 33 35 35 35 30 32 32 34 32 29 32 26 30 35 35 35 37 37 42 42 41 35 34 35 37 38 41 45 56 62 63 64 64 63 64 63 63 64 64 64 63 62
30 34 34 33 34 35 35 31 32 31 30 29 29 29 28 29 33 35 35 35 35 37 38 37 36 37 38 42 42 41 41 42 43 55 62 63 63 63 63 63 63 63 64 64
30 36 34 34 35 36 36 35 34 34 30 26 26 28 26 27 28 33 35 36 36 36 35 35 36 41 42 43 41 44 44 44 41 41 42 51 58 60 60 61 60 61 61 62
33 32 38 36 34 35 34 32 28 26 25 21 26 28 27 29 29 28 30 33 35 37 37 36 37 41 43 43 45 45 45 46 46 45 45 43 41 42 47 49 51 50 52 56
24 23 33 37 34 33 34 30 24 18 20 22 28 26 26 29 31 29 30 28 30 36 36 35 38 42 43 44 45 45 45 46 46 47 47 48 48 47 48 48 50 52 54 55
27 29 35 36 37 36 36 28 27 23 20 22 24 24 24 27 27 28 28 30 30 30 34 36 40 42 43 44 44 45 45 46 46 46 46 46 47 47 47 48 49 50 50 52
32 28 34 37 38 39 36 34 28 26 17 18 19 20 20 23 24 25 27 30 31 35 37 41 43 42 43 43 43 45 45 44 45 44 43 42 41 42 41 41 42 44 45 46
35 32 32 35 33 34 35 34 30 28 25 19 17 17 22 24 23 22 24 30 33 37 41 42 41 41 41 42 43 44 43 42 40 39 38 37 36 36 36 36 37 38 38 39
34 33 29 31 36 38 36 32 29 24 25 19 20 20 23 23 25 26 27 34 37 40 42 42 40 40 40 40 41 42 41 40 38 37 36 35 35 35 35 35 35 35 36 36
34 31 28 29 31 36 35 33 29 27 27 25 22 21 24 26 27 31 34 37 39 41 41 40 39 39 39 39 40 41 40 38 37 36 35 35 35 35 35 35 35 36 36 36
36 30 26 21 22 30 31 32 30 27 24 25 24 24 26 27 27 27 35 38 39 40 41 39 38 38 38 38 39 39 38 37 37 36 35 35 35 35 35 36 36 36 36 36
33 30 27 28 28 31 31 31 31 25 26 24 23 24 25 27 27 26 32 39 39 40 40 40 39 37 36 36 37 38 38 37 36 36 36 36 36 36 36 36 36 36 36 35
31 28 26 26 29 29 28 30 31 31 30 29 28 28 27 27 28 30 34 39 39 40 41 40 39 38 36 35 35 38 37 37 37 36 36 36 36 36 36 36 36 35 36 36
29 28 25 20 26 25 19 25 29 31 31 30 28 28 28 28 28 29 32 39 39 40 41 41 40 39 37 35 35 37 37 37 36 36 36 36 36 36 36 36 36 36 36 37
27 25 26 24 22 15 17 28 29 30 31 33 32 31 30 30 29 28 31 36 39 40 40 41 41 39 38 36 35 36 37 37 37 36 36 36 36 36 35 35 35 36 37 36
29 28 26 23 21 20 24 28 28 27 26 30 32 33 31 31 32 31 31 34 38 40 40 41 42 40 37 36 35 36 36 36 36 36 36 36 36 36 35 35 35 35 35 34
28 28 25 24 19 15 20 31 30 30 26 30 31 31 31 32 29 31 35 35 35 36 38 39 40 38 37 35 35 35 35 35 35 36 36 36 36 36 35 35 34 34 34 33
25 28 25 23 21 22 24 26 32 25 24 34 33 32 31 31 31 33 34 34 35 36 36 37 37 37 36 35 35 35 35 36 37 36 37 37 36 36 35 34 34 33 32 30
24 22 23 26 23 17 25 32 29 29 36 38 37 32 33 36 36 34 34 34 35 35 36 36 36 36 36 36 35 35 35 36 37 37 37 36 36 36 35 34 33 31 29 27
23 24 23 24 24 26 26 32 33 34 37 38 38 37 36 36 36 35 34 34 34 35 35 35 36 35 35 36 35 35 35 36 36 36 36 35 35 35 34 32 30 29 26 25
26 27 25 26 26 27 28 29 33 36 38 37 38 38 38 37 36 35 35 34 34 34 34 35 35 35 35 35 35 34 35 36 35 35 35 35 34 33 32 31 30 28 26 24
28 29 28 27 28 29 29 31 35 38 38 37 38 38 38 39 38 38 37 36 35 34 33 34 34 34 35 35 35 35 36 35 35 35 35 34 33 33 31 30 29 28 26 25
30 29 27 26 29 29 30 34 37 37 38 37 36 36 36 37 37 38 38 38 36 35 34 33 34 34 34 34 34 35 36 35 34 34 34 33 33 32 31 29 29 32 30 30

GFSCGP_sfc_dewp_090.txt.gz
Dewpoint
36 36 32 35 36 35 24 25 24 27 36 36 33 32 34 35 38 36 35 39 40 40 40 43 42 42 61 63 63 64 64 66 67 67 66 66 67 67 66 65 66 65 65 64
33 31 32 31 34 37 34 24 28 26 37 36 32 32 34 35 36 36 35 34 37 42 41 42 43 38 51 61 63 64 64 64 66 66 66 66 67 67 68 68 66 65 65 65
31 29 31 33 37 34 32 24 26 29 35 35 33 32 32 33 36 36 38 38 37 42 41 41 42 43 42 46 58 62 63 64 66 66 65 65 65 65 66 66 66 66 65 65
31 36 32 35 33 35 31 26 30 30 29 27 34 21 28 31 34 35 36 39 40 43 42 41 41 41 41 40 42 49 61 63 65 66 65 64 64 64 65 65 66 66 64 63
29 35 34 35 33 36 35 33 30 31 29 29 31 28 23 31 31 34 35 36 38 40 40 41 41 41 39 43 43 45 49 59 63 65 65 65 65 65 65 65 64 65 65 65
31 37 36 33 37 37 37 33 33 32 32 28 23 26 19 24 27 31 33 35 37 37 38 40 41 40 41 44 44 45 45 46 48 57 62 64 65 64 63 64 63 64 64 64
29 32 36 35 35 36 34 33 29 27 27 20 23 27 22 26 29 28 29 32 36 37 38 38 39 40 42 43 44 44 44 44 43 43 44 47 54 56 57 57 57 57 57 59
25 24 33 35 33 34 34 34 26 16 16 15 27 24 20 26 27 29 30 30 32 36 38 38 38 40 42 44 44 43 44 45 44 45 45 46 45 44 45 46 46 48 51 54
28 29 35 34 35 36 35 33 28 26 24 20 21 24 26 26 28 29 30 30 31 32 35 37 39 40 41 43 44 44 44 45 46 46 47 47 47 48 48 49 51 51 52 52
34 29 31 37 37 36 34 37 30 33 23 16 21 20 11 23 24 24 24 28 30 31 32 33 37 39 42 43 44 45 45 45 46 46 46 45 45 45 45 46 47 48 48 49
33 33 33 36 33 32 35 35 30 29 28 18 17 16 23 22 24 25 25 27 29 33 35 35 38 41 43 44 44 45 44 45 44 43 43 43 42 41 42 42 42 43 43 44
30 34 29 33 35 34 36 32 29 30 27 25 25 18 22 24 27 28 29 33 35 37 39 40 40 41 42 43 43 43 43 42 42 41 40 40 40 40 40 39 39 39 40 40
34 33 29 31 34 36 34 34 30 29 31 28 22 19 24 25 27 28 31 34 37 39 41 41 41 41 41 42 42 42 42 41 39 39 39 38 38 38 38 38 38 38 39 39
38 31 28 24 24 31 33 33 31 34 32 26 26 22 24 25 27 27 28 35 38 40 41 41 40 40 41 41 42 41 40 40 39 39 38 38 38 38 37 37 37 37 38 38
35 32 28 29 29 30 31 32 31 33 31 31 24 25 24 25 26 27 30 35 38 40 41 41 40 40 40 40 40 40 40 39 39 38 38 38 37 37 37 37 37 37 37 37
36 31 28 28 29 30 29 31 32 31 30 28 27 26 27 28 28 28 29 35 37 39 41 41 41 40 39 39 39 40 39 39 39 38 38 38 37 37 38 38 37 37 37 37
31 31 28 26 26 25 22 24 30 31 31 30 29 28 29 28 28 29 31 34 38 38 40 41 41 41 40 39 39 38 38 38 38 38 37 37 37 37 38 37 37 37 37 38
28 26 27 24 23 13 19 27 29 29 30 32 31 31 31 31 32 31 30 30 35 39 40 41 42 42 41 39 38 37 38 38 38 37 37 37 38 37 37 37 37 38 38 38
29 28 26 23 20 20 27 29 28 27 27 30 31 31 32 33 33 33 32 31 32 38 40 41 42 42 42 40 38 37 37 38 38 37 38 38 38 37 37 37 37 37 37 36
29 29 27 26 20 13 25 30 31 30 29 33 33 32 32 32 30 29 35 36 33 36 41 42 43 42 41 40 38 37 37 37 37 38 38 37 38 37 37 37 36 35 36 35
27 28 27 23 22 20 25 30 32 26 29 34 36 33 32 31 32 35 35 36 36 38 38 39 40 40 41 40 38 38 37 38 39 38 38 38 38 38 37 37 35 35 34 33
23 23 23 25 22 18 26 32 29 31 35 37 37 33 33 35 36 35 35 36 36 37 37 38 39 39 39 39 38 38 39 39 39 38 38 38 38 37 36 35 34 33 31 30
24 25 23 24 22 26 27 33 33 34 36 38 38 36 35 37 37 36 36 35 35 36 36 36 37 37 37 38 37 37 38 37 37 37 37 37 37 36 35 34 32 31 29 27
27 27 25 26 27 28 29 30 31 35 38 38 39 38 38 37 37 36 36 36 35 35 35 36 36 36 36 36 36 36 36 36 36 35 36 36 35 35 34 33 31 30 28 27
29 29 28 27 29 30 31 32 33 37 39 38 38 38 39 39 39 38 38 38 36 35 34 35 35 35 35 35 35 35 35 36 35 35 35 35 35 35 33 32 31 30 30 29
30 29 27 26 30 30 30 36 36 37 38 38 37 37 37 37 38 38 38 38 38 37 35 35 35 36 35 35 35 36 36 36 35 35 35 35 34 34 32 31 31 34 33 33

GFSCGP_sfc_dewp_093.txt.gz
Dewpoint
36 34 33 35 35 31 34 27 21 20 30 31 32 30 29 34 35 35 33 33 34 37 40 41 44 56 59 61 61 62 64 66 67 68 68 67 66 67 67 67 66 65 63 63
34 31 31 33 34 37 36 31 24 20 31 32 31 30 30 32 34 34 33 32 33 36 38 41 43 47 59 60 62 62 61 63 66 67 67 67 67 68 68 68 66 66 66 66
30 29 30 31 36 35 34 30 26 20 31 33 31 29 29 31 32 34 33 33 32 33 37 39 42 44 57 60 61 62 61 61 64 66 67 66 67 67 67 67 67 67 67 67
31 31 31 34 35 34 32 29 29 25 29 24 30 23 25 28 30 31 33 33 34 34 38 40 42 44 45 47 57 61 62 63 65 65 65 65 64 63 65 66 67 66 67 66
32 32 30 32 33 34 35 37 27 30 27 25 27 24 20 25 27 30 31 32 33 36 40 41 43 45 45 46 47 50 59 62 64 65 65 65 64 65 65 66 65 65 66 66
34 38 35 34 33 34 37 35 35 31 30 29 24 22 15 24 25 28 29 31 32 35 40 41 43 44 44 48 48 49 49 55 61 64 64 64 63 63 64 64 64 65 65 66
32 35 38 38 35 36 36 34 30 27 27 19 20 23 20 23 25 26 29 30 32 35 38 40 42 42 42 46 47 46 45 46 49 55 59 62 64 64 63 63 63 63 63 63
26 26 35 37 35 35 34 34 29 20 21 18 23 19 20 22 24 28 29 29 31 34 35 37 39 43 42 44 46 45 46 45 44 46 48 47 47 47 51 49 49 50 51 54
26 29 36 33 34 35 35 32 31 26 19 18 19 18 23 25 26 28 29 30 31 33 35 36 38 39 41 44 45 44 45 46 46 46 46 46 46 47 48 50 50 50 51 52
35 28 30 35 34 35 34 36 29 33 21 16 16 12 16 23 24 26 27 29 30 31 32 33 37 39 40 42 44 45 44 45 46 46 46 46 46 46 47 48 49 49 50 50
32 33 32 33 31 32 34 34 34 29 29 17 17 14 22 23 24 25 25 26 27 30 32 32 33 37 40 42 44 44 44 45 45 45 44 44 43 43 44 44 44 44 45 46
34 34 30 33 35 32 34 33 29 29 25 27 26 19 24 26 28 28 28 33 33 34 35 35 35 39 42 43 43 43 44 44 43 43 42 42 42 42 41 41 41 41 41 42
35 33 29 31 34 36 33 34 35 28 34 30 24 19 23 27 27 27 28 32 35 37 39 38 39 40 41 42 42 43 43 42 41 41 41 41 41 40 40 39 39 39 40 40
39 36 32 27 27 31 33 33 31 33 33 23 24 21 23 24 26 26 28 31 35 38 39 39 39 40 41 42 42 42 41 41 40 40 40 40 39 39 39 38 38 38 38 39
38 34 29 28 29 29 32 32 31 34 31 33 24 24 22 23 26 26 28 32 35 38 39 39 39 40 40 41 41 41 41 40 40 40 40 39 39 38 38 38 38 38 38 38
36 31 28 30 29 29 29 30 31 30 29 28 27 27 28 28 28 27 27 31 34 37 39 40 40 40 40 40 41 41 40 40 40 39 39 39 38 38 39 38 38 38 38 38
31 30 29 27 26 25 25 28 30 30 30 30 29 29 29 29 28 29 29 31 33 36 39 40 40 40 40 40 40 40 40 39 39 39 38 38 38 38 38 38 38 38 38 39
28 26 27 22 22 17 22 26 28 29 28 30 30 30 30 30 31 32 32 30 31 35 38 40 41 41 41 41 40 40 39 38 39 38 38 38 38 38 39 39 39 39 39 39
30 27 25 23 17 20 27 29 27 27 28 31 31 31 31 32 33 33 33 33 32 32 38 39 41 42 42 41 40 39 39 39 39 38 38 38 38 38 38 38 39 38 38 37
29 30 27 25 20 13 25 28 31 30 28 34 34 33 32 32 31 32 35 36 34 34 40 41 42 43 43 42 40 39 38 38 39 39 39 38 39 39 39 38 38 37 38 36
25 26 25 23 22 20 25 30 31 27 33 36 36 33 32 31 33 35 35 36 37 38 38 39 42 43 43 42 41 40 40 40 41 40 39 39 39 39 39 39 38 36 36 35
22 22 22 24 22 18 27 32 29 32 35 37 38 33 33 35 37 36 36 37 38 38 38 40 40 41 41 41 40 41 41 42 41 40 39 39 39 38 38 37 36 35 34 33
23 25 24 24 23 27 27 29 31 34 34 38 38 36 35 36 37 37 37 37 36 37 37 38 39 39 39 40 40 40 41 40 39 38 38 38 38 37 36 35 34 33 32 30
27 28 25 26 27 28 29 31 32 32 37 38 39 38 39 38 38 38 38 37 37 36 36 37 37 37 37 37 38 38 38 37 37 36 37 37 36 35 35 34 33 32 30 29
30 29 27 26 28 30 32 34 33 36 39 38 39 39 40 40 39 39 39 38 37 37 36 36 36 36 36 36 36 36 36 36 36 36 36 36 36 35 35 34 32 32 31 31
30 29 28 31 30 30 30 32 37 37 38 38 38 37 38 38 38 38 38 38 38 37 37 36 36 36 37 36 36 36 36 36 36 35 36 36 35 35 34 33 33 37 35 36

GFSCGP_sfc_dewp_096.txt.gz
Dewpoint
36 33 30 32 34 36 33 29 27 26 28 29 32 32 31 30 32 33 35 36 36 37 39 43 48 57 61 61 62 64 65 66 67 67 66 65 65 66 66 65 64 63 63 63
31 27 28 33 34 37 35 35 27 28 30 30 32 32 31 30 34 34 34 34 33 35 38 40 47 54 59 60 61 64 65 66 66 66 67 66 65 65 65 66 66 66 65 65
29 28 30 31 33 35 33 32 31 32 30 34 30 31 31 29 33 34 35 34 33 34 35 39 43 49 58 60 61 63 63 64 67 67 66 65 65 65 65 65 66 66 66 66
29 28 32 32 35 36 30 32 31 29 31 32 35 28 35 34 31 33 33 33 33 33 34 37 43 48 57 60 61 62 61 63 65 66 65 63 63 62 63 64 65 65 66 65
30 32 30 34 36 35 32 36 35 36 31 28 30 27 30 32 27 29 31 33 34 34 35 38 42 45 45 50 54 60 62 63 64 64 64 63 62 61 61 63 63 64 65 65
32 37 38 33 36 35 37 35 35 36 34 28 30 24 18 22 25 28 30 31 33 33 35 39 46 47 46 48 48 49 58 61 63 63 62 60 61 60 61 62 62 63 64 65
35 35 37 37 35 37 36 34 28 27 26 25 28 24 20 22 25 27 28 31 32 32 36 41 44 45 46 47 49 51 50 51 57 60 62 61 58 59 58 60 60 58 58 59
26 24 34 37 36 34 34 34 28 17 19 18 24 29 21 23 26 28 29 30 31 33 37 41 43 43 45 47 48 47 47 46 49 51 53 55 58 58 56 55 55 56 57 57
27 28 35 37 37 36 34 31 35 30 23 22 20 18 19 26 27 28 28 29 30 33 35 39 40 43 44 46 46 46 46 47 47 48 46 45 46 47 48 49 50 50 51 51
32 27 31 34 34 36 34 35 30 32 23 23 18 16 18 24 24 27 28 29 30 31 32 33 38 40 44 44 45 45 46 46 47 47 46 46 46 47 48 49 49 49 50 50
31 31 32 32 30 30 32 30 34 32 29 21 17 17 24 24 26 25 26 27 30 31 32 32 34 37 43 44 44 44 45 46 46 46 45 45 45 44 44 44 44 44 44 45
35 35 27 29 32 32 32 30 32 30 26 29 28 20 26 27 27 28 31 32 33 34 34 34 34 40 42 43 44 44 45 45 44 44 43 43 42 42 42 41 41 41 41 42
36 33 28 30 34 35 32 32 34 33 32 29 28 20 27 27 27 27 29 34 35 36 37 37 38 41 42 43 43 44 43 42 42 42 41 41 41 41 40 40 39 40 40 40
39 35 31 28 28 31 29 31 33 33 30 25 31 22 23 25 26 29 29 33 37 38 39 38 39 40 41 42 42 42 42 41 41 41 40 40 40 39 39 39 38 38 39 39
37 33 34 29 29 31 31 32 32 30 31 28 26 25 25 26 26 26 29 32 36 38 39 39 39 40 41 42 42 41 41 40 40 40 40 39 39 39 38 38 38 38 38 38
37 33 30 28 29 30 30 32 31 31 30 28 28 28 28 28 28 29 30 32 34 38 39 39 40 40 40 41 41 41 40 40 40 40 39 39 38 38 38 38 38 38 38 38
33 35 29 29 27 27 26 29 31 31 31 31 29 30 31 30 30 30 31 31 33 36 39 40 40 40 40 41 41 40 40 40 39 39 39 39 38 39 39 38 38 38 38 38
29 28 27 23 23 18 23 26 29 30 30 30 30 30 31 31 31 32 32 32 30 35 38 40 41 41 41 41 41 40 40 39 40 39 38 39 39 39 39 38 38 37 37 38
30 29 26 24 19 22 26 28 27 28 29 32 31 32 32 32 34 34 35 35 33 32 36 40 41 41 42 40 40 40 39 39 40 39 38 39 39 39 38 37 37 38 38 36
29 30 28 25 21 17 26 29 31 30 28 34 35 34 32 32 31 33 36 36 37 37 39 41 42 43 42 41 40 39 39 38 39 39 39 39 39 39 38 37 38 36 37 35
26 26 24 25 23 22 28 30 32 25 32 37 37 33 32 33 34 35 36 37 37 38 39 40 42 43 43 42 40 39 39 39 40 40 39 39 39 38 37 36 37 36 35 35
22 23 23 25 22 19 31 32 30 33 37 38 38 33 34 37 37 37 37 37 38 37 39 41 41 40 41 41 40 40 39 40 40 39 39 39 38 38 38 37 36 35 35 34
24 25 25 25 25 27 28 28 29 31 31 38 38 36 37 37 37 37 37 37 37 36 37 38 39 39 39 40 40 39 39 40 39 38 38 37 38 37 36 36 35 34 33 32
28 28 25 26 28 28 31 32 32 32 38 39 39 39 39 38 38 39 39 38 37 37 36 37 37 37 37 38 38 39 39 39 38 37 37 37 36 36 35 35 34 33 32 31
30 30 28 27 30 32 32 33 36 37 39 39 39 39 41 40 38 39 39 38 37 37 36 36 36 36 36 36 36 36 37 37 36 36 36 37 36 36 35 35 33 33 32 32
30 30 30 33 31 29 30 32 37 37 38 39 38 38 38 38 38 38 38 38 38 37 37 37 36 36 37 36 36 35 36 36 36 35 36 36 35 35 35 34 33 36 35 35

GFSCGP_sfc_dewp_099.txt.gz
Dewpoint
34 30 25 33 33 34 32 32 31 28 30 37 39 36 36 39 45 45 43 43 37 42 43 46 55 59 63 64 65 65 65 66 66 66 65 65 65 66 66 65 64 63 62 61
28 26 28 34 33 33 35 33 29 29 28 29 31 33 33 31 32 36 38 37 36 36 39 44 53 59 61 62 64 64 65 66 66 66 66 65 64 64 65 66 65 65 64 63
25 26 27 31 33 32 33 34 30 28 31 32 31 32 34 33 32 35 35 35 34 34 36 44 51 57 59 60 62 64 65 65 65 66 65 64 64 64 64 64 65 65 66 66
28 32 28 31 33 34 32 37 33 32 33 29 36 27 32 33 32 33 33 34 34 33 35 44 49 54 58 60 61 63 64 65 66 65 65 63 62 62 63 64 65 65 65 65
28 32 30 34 34 35 34 37 35 34 33 30 34 32 30 34 31 32 33 33 34 33 34 41 45 52 58 60 59 61 62 64 65 65 63 62 61 60 62 62 63 63 64 64
31 35 37 34 36 37 37 37 37 36 35 25 32 31 20 30 31 31 31 33 33 34 34 40 44 49 50 52 51 56 60 62 63 62 61 60 58 59 60 60 61 62 63 64
33 35 38 37 35 36 36 34 28 26 26 22 30 28 23 26 29 30 29 31 33 34 34 40 45 45 46 47 48 52 56 58 60 59 58 58 58 58 58 59 60 58 58 59
19 25 34 37 34 31 34 33 24 21 22 20 28 24 25 25 26 29 29 31 32 33 33 43 45 45 45 46 47 48 51 52 56 58 58 58 58 58 57 56 55 55 56 57
23 28 37 36 36 36 34 30 35 29 26 20 25 23 20 26 27 27 29 30 32 32 34 42 44 44 45 46 47 45 47 47 50 51 47 48 50 51 49 49 51 52 52 52
30 27 31 35 35 35 34 34 30 29 21 19 18 16 16 24 25 27 29 29 30 32 35 41 43 43 45 46 46 45 45 46 47 47 47 47 47 48 49 50 49 50 50 50
32 28 31 32 30 28 30 29 33 33 27 21 16 17 25 25 25 26 27 29 30 31 32 33 38 43 44 44 44 44 45 45 46 46 46 46 46 46 47 46 46 45 45 46
35 32 25 27 36 33 31 29 33 25 26 24 20 19 27 27 27 30 31 32 33 34 33 33 41 43 43 44 44 45 45 46 45 45 44 44 45 45 43 42 42 43 42 42
34 33 24 27 33 34 32 33 34 34 30 26 25 21 27 27 26 29 33 34 35 36 36 37 41 42 43 43 44 45 44 44 43 43 42 42 42 41 40 40 40 40 40 41
39 33 29 22 24 30 28 31 33 29 24 30 30 24 25 26 27 29 31 35 37 37 38 38 41 42 43 43 43 43 42 42 41 41 41 41 40 39 39 39 39 39 39 39
37 32 32 32 31 32 31 31 33 30 30 29 30 25 27 26 26 27 30 36 37 38 38 38 39 40 42 42 42 41 41 41 41 40 40 39 39 38 38 38 38 38 38 38
35 30 31 26 29 31 31 32 33 32 31 30 29 28 30 28 29 29 30 33 37 38 39 39 39 40 41 42 41 41 40 40 40 40 39 39 38 38 38 38 38 38 38 38
33 33 28 24 26 26 26 29 32 31 31 30 28 30 31 30 30 31 31 31 34 38 39 39 40 40 41 41 41 40 40 40 40 39 39 38 38 38 38 38 38 38 37 37
31 28 27 23 22 18 23 26 30 31 30 30 29 30 31 31 32 34 34 32 31 33 39 40 40 40 41 41 41 40 40 40 40 39 39 38 39 38 38 38 37 36 36 36
34 29 26 22 20 22 26 28 28 27 30 32 32 33 33 33 33 34 36 36 34 33 39 40 41 41 41 41 41 40 39 39 39 38 38 39 39 38 38 37 36 36 38 37
29 30 27 24 20 17 26 29 31 30 28 36 35 32 31 32 31 33 36 36 37 38 39 40 42 42 41 40 40 39 39 39 39 39 38 39 39 38 37 36 36 36 37 36
26 26 23 24 22 22 28 30 31 23 28 38 35 32 34 33 34 35 37 38 38 38 40 41 42 42 41 40 40 39 39 38 39 40 39 39 39 38 37 35 35 37 36 35
22 22 22 23 22 18 31 32 30 32 35 38 36 33 36 36 37 37 37 37 37 37 39 40 40 40 40 41 40 39 39 39 40 39 39 38 37 38 37 35 36 36 35 35
23 25 26 25 26 27 27 27 30 30 31 38 36 37 37 37 37 37 36 36 36 36 37 38 38 38 39 39 40 38 38 39 39 38 37 37 37 37 36 36 35 35 35 34
31 29 25 26 31 31 33 35 35 37 38 39 39 39 38 38 39 39 38 37 37 36 36 37 37 37 36 37 38 39 39 39 38 37 36 36 36 36 36 36 35 34 33 33
30 30 28 31 31 31 31 34 37 37 38 38 39 40 40 41 40 39 39 38 37 37 37 36 36 36 36 36 36 38 38 38 37 37 37 37 37 37 35 35 34 34 33 33
30 29 30 30 33 33 32 33 38 38 38 39 39 38 39 38 38 38 38 38 38 37 38 38 37 36 36 36 35 35 36 36 36 36 36 37 36 36 35 34 34 36 36 36

GFSCGP_sfc_dewp_102.txt.gz
Dewpoint
33 25 23 31 33 34 33 33 31 31 36 39 38 36 44 47 47 46 48 47 47 45 48 51 57 62 63 64 65 65 66 66 66 66 65 65 64 65 65 64 62 61 60 60
25 23 30 29 35 34 34 31 32 33 33 37 37 36 39 46 45 46 46 47 46 43 43 47 55 60 63 64 64 64 65 66 66 66 65 65 64 64 65 66 65 64 63 62
24 26 28 28 34 32 33 31 31 32 35 36 35 35 38 40 43 45 47 47 44 38 41 44 53 58 61 62 63 64 65 65 66 66 65 64 64 64 64 64 65 66 65 65
26 31 31 29 33 34 29 35 33 32 33 31 36 28 34 38 35 36 41 45 41 37 36 43 49 56 59 61 62 63 64 65 65 65 65 64 64 62 63 64 64 65 65 65
21 30 31 32 30 34 34 38 34 33 32 30 34 28 29 33 32 31 32 35 35 34 34 42 47 56 59 59 61 62 63 63 64 64 64 63 61 62 62 63 63 63 64 64
31 35 36 36 36 36 38 37 36 36 33 24 31 29 24 30 30 31 32 33 34 34 34 39 47 53 57 57 57 59 61 62 63 63 61 61 60 59 60 60 60 62 63 63
31 33 38 37 35 35 36 34 27 26 26 20 33 32 29 28 31 31 31 32 34 34 34 39 44 51 53 54 55 58 60 60 60 60 60 59 59 59 59 60 60 59 59 59
26 25 35 36 33 29 33 32 27 21 19 24 31 27 25 26 27 33 33 32 33 34 34 40 45 48 50 52 52 55 57 59 58 57 57 56 57 57 57 58 58 58 56 56
24 29 36 36 36 35 33 30 35 26 24 22 27 25 22 26 27 28 30 30 31 33 34 42 45 46 46 47 49 54 55 55 56 56 56 55 55 55 54 52 53 53 53 54
30 26 32 34 35 34 34 35 26 26 20 17 20 17 18 23 26 28 29 29 30 32 33 41 44 45 45 45 46 46 50 52 53 53 53 53 52 51 50 50 50 50 50 51
32 26 28 31 28 29 31 30 31 31 24 18 15 16 24 25 25 26 27 30 30 32 34 40 44 44 45 45 45 45 45 46 48 48 48 48 48 48 49 49 48 48 48 48
34 28 24 25 34 33 30 28 32 20 23 21 16 20 25 27 29 30 31 33 34 32 32 37 42 43 44 44 44 44 45 45 46 45 46 45 46 45 45 45 44 44 43 43
33 30 23 22 31 32 31 32 33 31 26 23 15 20 27 28 27 31 33 35 35 36 37 41 42 43 43 43 44 45 45 45 45 44 43 43 42 42 41 40 41 41 41 41
39 33 25 16 21 28 27 31 33 26 20 25 23 27 24 25 27 29 33 36 37 37 37 40 42 43 43 43 44 44 43 43 43 42 42 41 41 40 39 39 39 39 40 39
37 30 32 31 31 31 29 29 32 25 31 30 30 29 27 26 27 27 31 36 37 38 38 40 41 42 43 43 43 42 42 42 41 41 41 40 39 39 38 38 38 38 38 38
34 29 29 26 28 31 30 31 32 32 30 33 33 30 31 30 30 30 32 36 37 38 38 38 40 41 42 42 42 41 41 41 41 40 39 39 38 38 38 38 38 38 38 38
33 30 28 23 26 26 23 31 31 31 31 30 28 29 31 30 30 31 31 31 34 38 39 39 39 40 42 42 41 41 40 40 40 39 39 38 38 38 38 38 38 37 36 36
31 28 27 21 21 17 23 26 31 30 29 30 29 30 31 32 34 35 35 34 32 33 39 40 40 41 42 42 41 40 40 40 40 39 38 38 38 38 38 37 36 35 35 35
34 29 26 21 20 21 27 29 28 27 30 32 32 33 32 32 34 34 36 36 37 37 39 40 41 41 41 41 41 40 40 40 39 39 38 38 38 38 37 36 35 35 35 34
31 30 26 24 19 17 26 29 30 29 29 36 34 31 31 32 30 33 36 37 37 38 39 41 42 41 41 41 40 40 39 39 39 38 38 38 39 38 37 36 35 33 35 37
25 26 23 23 23 22 28 30 31 21 26 37 33 32 34 33 33 35 37 38 37 38 40 41 42 41 41 41 40 40 39 39 39 39 39 39 38 38 37 35 36 34 35 36
23 21 22 23 21 18 31 31 29 31 34 38 34 34 36 36 36 37 36 36 37 37 38 40 40 40 40 40 40 40 39 39 40 40 39 38 38 38 36 35 35 34 36 35
23 25 25 24 24 27 31 29 33 31 31 38 36 36 37 37 37 36 36 36 36 36 37 38 38 38 39 39 40 39 39 39 39 38 38 37 36 36 36 36 34 35 35 35
30 30 25 26 31 32 33 35 36 37 38 39 40 39 38 37 38 38 37 37 36 36 36 36 36 36 36 37 38 39 39 39 38 37 36 35 35 35 36 36 36 35 34 34
29 30 29 29 30 31 31 33 37 37 38 38 39 41 40 41 40 39 38 37 37 37 37 36 36 36 36 36 36 38 38 38 37 36 36 37 37 38 36 36 35 35 34 34
29 28 29 29 32 32 34 37 37 37 37 38 38 38 39 40 38 38 37 37 37 36 36 36 36 36 36 35 35 35 36 36 36 36 36 37 37 37 36 35 35 37 37 37

GFSCGP_sfc_dewp_105.txt.gz
Dewpoint
32 24 21 26 34 33 33 32 30 33 39 39 37 36 39 42 42 47 47 45 46 46 46 49 61 63 64 64 66 66 66 66 66 66 65 64 63 62 62 61 60 58 57 58
24 21 29 29 34 33 33 32 30 34 36 38 38 36 39 42 42 47 47 46 46 46 44 44 54 61 64 64 64 65 65 66 66 66 66 65 64 64 64 64 63 61 61 60
23 24 28 27 34 32 32 31 32 31 38 38 37 37 39 43 44 46 47 47 47 46 45 42 50 58 61 62 63 65 65 66 66 66 65 64 64 63 64 64 64 64 63 63
25 30 31 28 34 32 29 33 33 33 34 31 37 29 36 39 41 43 45 46 46 46 45 41 46 55 59 61 63 64 64 65 65 65 64 63 63 62 63 64 64 64 65 65
20 30 31 31 31 34 33 35 33 34 35 34 34 28 29 37 37 40 41 45 47 47 45 41 42 54 58 60 61 62 63 63 63 64 64 63 61 62 62 63 63 63 64 64
29 34 34 35 35 37 37 36 34 36 34 23 31 28 25 33 32 34 37 43 46 47 44 38 42 51 56 57 58 60 61 62 63 63 62 62 61 60 60 61 61 61 63 63
30 33 36 37 34 35 34 31 26 24 24 21 32 29 25 30 31 31 33 34 42 41 35 35 45 52 55 56 57 58 59 60 62 61 61 60 60 60 60 60 59 59 60 60
25 24 35 36 33 31 32 33 19 17 19 24 33 26 25 28 28 31 32 32 33 34 34 36 43 50 54 55 55 57 58 60 61 60 59 58 59 59 59 59 59 59 58 57
25 25 36 35 36 35 32 29 35 23 22 22 27 27 22 25 27 27 32 32 32 34 34 35 42 48 52 53 53 56 57 59 58 57 57 57 56 57 56 55 55 55 54 55
29 23 31 34 34 33 34 35 29 22 12 19 22 19 18 24 24 28 30 31 32 32 34 35 42 46 50 52 51 53 54 55 55 55 55 55 55 54 53 52 52 52 51 52
31 23 25 30 28 26 29 27 32 30 23 18 17 17 23 26 26 27 29 29 31 31 32 35 42 45 46 46 48 49 51 52 53 53 51 51 51 50 49 50 49 49 49 49
32 25 19 24 31 34 30 28 30 22 22 22 16 22 25 27 30 31 32 33 34 33 33 37 43 44 45 45 45 45 46 49 49 49 49 48 48 47 46 46 45 45 44 45
34 27 15 18 28 31 30 31 32 29 25 26 14 21 26 27 28 32 33 34 36 36 39 41 42 43 44 44 44 44 45 45 45 45 46 45 44 43 42 42 42 42 41 42
39 34 23 15 21 27 27 30 31 22 18 26 22 24 25 25 27 28 33 36 37 37 38 41 41 41 42 43 44 44 44 44 44 44 43 42 42 41 40 40 40 40 40 40
36 31 34 32 30 30 29 29 30 22 26 21 29 28 27 28 27 28 30 36 37 38 38 40 41 41 42 43 43 43 43 43 43 42 41 41 40 39 39 38 39 39 39 39
35 29 29 24 28 30 29 30 30 31 32 32 31 29 32 31 32 31 31 34 36 38 38 39 41 41 41 42 42 42 42 41 41 41 40 39 39 38 38 38 38 38 37 37
32 28 25 20 24 27 22 26 30 31 31 32 29 31 31 30 31 32 33 32 31 33 39 39 40 41 42 42 42 41 41 41 40 40 39 38 38 38 38 37 37 36 36 36
30 27 26 22 20 16 22 27 31 30 30 30 29 30 32 32 34 35 35 35 33 34 38 39 40 40 42 42 42 41 40 40 40 39 38 38 38 38 37 37 36 35 35 34
32 29 25 21 19 20 26 29 31 28 30 34 32 32 31 32 34 34 36 36 36 37 38 39 41 41 42 42 41 40 40 40 39 39 38 38 38 38 37 36 34 34 34 34
32 30 25 23 18 17 25 28 29 30 29 36 33 31 32 32 29 32 36 37 37 38 40 41 42 41 42 41 41 40 39 39 39 39 39 38 38 37 36 35 34 34 34 34
25 25 22 23 20 22 25 31 31 22 23 37 33 32 33 32 32 35 37 37 37 38 39 41 41 41 41 41 41 40 39 39 39 39 39 38 38 37 36 34 36 35 33 33
23 21 22 23 21 17 28 31 28 29 35 38 35 34 35 35 36 36 36 36 36 37 38 39 39 40 40 41 41 40 39 40 40 39 39 38 38 38 36 35 35 33 35 36
23 24 25 23 23 29 33 32 35 36 31 37 35 35 37 36 36 36 36 36 36 36 36 37 38 38 38 39 40 39 39 39 39 38 37 37 36 36 35 34 35 36 36 35
28 29 25 27 30 30 32 34 36 37 37 37 38 38 38 36 37 37 37 36 36 36 36 36 36 36 36 37 39 39 39 39 38 37 36 36 35 35 35 36 36 36 35 35
28 29 28 28 28 29 32 34 35 37 38 38 39 40 40 40 39 39 37 37 37 37 37 37 36 36 35 35 36 37 38 38 37 37 36 36 36 36 35 36 36 35 35 35
28 28 28 29 31 31 33 35 36 36 36 37 38 38 40 41 40 38 37 37 36 34 34 35 36 35 35 35 34 35 35 36 36 36 36 36 37 35 36 35 35 38 38 37

GFSCGP_sfc_dewp_108.txt.gz
Dewpoint
30 24 19 24 28 33 31 29 29 31 37 35 37 35 36 42 40 42 46 46 47 50 50 53 62 63 63 65 66 67 67 67 66 66 64 64 63 61 60 59 59 58 58 59
24 21 25 30 29 33 32 29 31 33 36 36 37 36 40 40 41 42 45 46 46 48 49 48 59 63 63 63 65 66 66 66 66 66 65 64 64 63 63 62 60 59 58 59
23 24 28 29 29 31 31 30 32 32 37 39 38 36 39 41 43 44 45 46 46 47 47 47 55 60 62 63 64 65 65 66 66 65 65 64 63 63 62 62 62 62 62 60
25 28 30 30 30 33 26 34 36 34 33 31 36 28 37 40 41 43 44 45 46 46 45 43 46 56 60 62 63 64 65 66 66 66 65 63 63 62 63 63 63 64 64 62
19 29 29 31 33 35 33 36 34 35 32 35 33 27 34 39 38 39 41 44 46 46 46 44 43 50 57 61 62 63 63 64 65 65 64 62 63 64 64 63 63 64 64 64
27 33 32 33 37 36 36 36 34 34 31 24 32 26 28 35 36 38 39 44 45 45 45 44 39 42 55 58 61 62 63 63 64 64 64 63 62 62 62 62 63 63 63 63
30 31 35 37 34 35 33 27 23 19 19 22 30 27 24 35 35 37 36 41 45 44 46 42 37 48 54 57 58 60 61 61 62 63 62 62 61 62 61 61 62 61 61 62
25 24 35 36 34 31 32 27 20 17 20 24 31 25 25 28 32 36 37 37 45 43 45 38 36 44 51 55 56 58 59 60 61 61 60 61 60 60 60 60 60 60 59 59
25 26 35 34 35 35 33 29 33 24 21 19 25 24 22 26 26 28 31 36 36 37 35 35 36 43 51 54 56 57 57 59 60 60 58 58 57 58 58 57 57 56 56 56
29 16 29 33 35 36 35 36 25 24 16 19 22 19 20 25 26 27 30 32 33 33 34 35 37 43 50 53 53 55 56 58 57 55 56 55 55 55 55 55 54 53 53 53
29 22 23 28 29 29 31 30 30 28 24 20 18 19 24 26 27 28 31 31 31 31 32 34 36 44 47 49 50 52 53 54 54 53 52 53 52 51 51 51 50 49 49 50
30 25 21 27 30 35 30 28 31 21 22 21 19 22 25 27 31 32 33 35 34 35 38 39 36 43 45 47 48 49 49 51 50 50 50 49 49 49 48 47 46 47 46 46
34 25 10 15 22 29 29 31 32 27 25 26 19 22 27 27 29 33 34 35 36 37 39 41 42 43 44 45 45 45 46 47 47 48 47 47 46 45 44 44 43 43 43 43
37 32 22 18 24 26 25 29 31 21 20 25 23 24 26 26 27 28 34 36 37 37 39 41 41 42 44 44 44 44 43 44 44 45 44 44 43 43 42 41 41 41 41 40
35 29 31 31 30 30 29 29 30 22 25 19 26 26 27 29 29 30 32 36 37 38 38 40 41 41 42 43 44 44 43 43 43 43 42 41 40 40 39 39 39 39 39 39
34 27 28 24 27 30 29 30 29 30 30 30 29 28 31 32 31 31 31 31 33 37 38 39 41 41 41 41 43 43 43 42 43 41 40 39 39 38 38 38 38 38 37 38
32 26 23 19 23 27 21 24 30 31 30 31 27 30 30 30 32 33 34 33 32 34 38 39 39 41 41 42 42 42 41 42 41 40 39 39 38 38 38 37 37 36 36 36
29 26 26 20 19 16 22 29 29 30 30 30 29 31 32 32 34 35 35 35 35 36 37 38 40 40 41 42 41 41 41 40 40 39 38 38 38 37 37 37 36 35 35 35
30 27 25 20 18 19 26 29 34 31 31 34 32 32 31 33 34 34 36 37 36 37 38 40 41 41 41 41 41 40 39 39 39 38 38 38 38 37 36 36 35 35 35 34
31 28 24 23 17 17 23 28 29 31 28 35 32 31 32 32 27 31 36 37 37 38 39 40 41 42 41 41 41 40 39 39 38 38 38 38 38 37 37 36 35 34 34 35
24 24 21 22 19 21 25 30 32 20 20 37 33 32 34 31 32 35 36 36 37 37 38 40 40 40 40 41 41 40 39 38 39 39 39 38 38 37 37 35 36 36 33 33
22 20 21 22 20 17 29 30 25 28 33 36 35 33 34 34 36 36 36 36 36 36 37 38 38 38 39 40 41 39 39 40 40 39 39 38 37 38 36 35 36 33 33 33
22 23 23 23 23 29 32 32 34 36 33 35 34 34 36 36 35 35 35 36 36 36 36 36 37 36 37 40 40 39 38 39 39 39 38 38 37 37 36 35 35 34 34 35
26 27 24 27 29 29 31 32 34 36 35 36 37 37 36 35 37 36 36 35 36 36 36 36 35 35 35 38 39 39 39 39 39 38 37 36 36 35 34 35 35 35 36 35
27 28 26 26 27 28 31 32 34 36 36 37 37 38 37 38 39 38 37 37 36 36 36 36 36 35 35 35 35 36 38 38 38 37 37 36 36 37 35 35 35 35 36 34
28 27 27 27 30 30 31 34 34 34 35 36 37 37 39 41 41 38 36 36 34 33 33 34 34 34 35 33 33 34 35 35 36 36 36 36 36 36 36 34 36 38 38 38

GFSCGP_sfc_dewp_111.txt.gz
Dewpoint
31 28 24 23 26 28 29 28 27 27 29 32 33 29 35 42 41 39 40 42 44 48 49 55 61 63 63 65 66 66 66 66 66 65 64 64 63 64 64 62 61 62 63 64
26 24 26 27 29 29 29 29 28 29 31 32 31 31 36 40 38 39 41 43 43 47 48 54 62 62 63 64 66 66 66 66 66 66 65 65 65 64 64 63 61 60 61 61
25 24 28 28 30 29 29 29 29 30 34 35 34 35 39 39 40 42 43 45 45 47 47 50 60 61 62 63 65 66 66 66 66 66 65 65 65 64 64 63 63 61 60 61
26 27 28 30 31 30 28 34 35 32 34 30 37 28 36 38 38 41 43 44 46 47 46 46 55 60 61 61 64 65 65 64 66 65 64 64 63 63 64 63 63 63 62 61
21 25 28 27 33 35 33 34 35 35 35 33 33 29 35 38 36 39 43 45 46 46 45 44 49 56 59 63 63 64 64 64 63 65 64 63 61 63 63 64 63 63 63 63
28 30 32 32 36 35 36 35 35 34 32 27 32 27 30 35 36 38 41 45 47 45 46 44 43 46 57 61 62 63 62 63 64 64 64 62 61 62 64 64 63 63 64 64
30 32 35 36 33 34 34 27 21 23 23 24 32 27 26 33 37 38 40 44 45 45 45 41 43 49 57 59 61 62 63 62 63 62 61 63 62 63 63 63 63 63 63 63
20 21 34 36 35 32 32 27 23 16 19 25 29 26 23 26 28 36 39 44 46 44 43 40 39 46 54 58 60 61 61 61 63 63 63 62 63 62 63 63 63 63 62 63
25 21 34 34 36 34 33 27 34 24 22 23 25 22 23 26 27 28 32 43 44 43 36 37 38 45 51 55 58 60 61 61 62 62 62 62 62 62 61 62 61 60 60 61
30 20 26 32 35 35 33 35 26 26 18 20 20 21 23 25 27 29 31 36 43 41 39 38 36 42 50 54 56 58 59 59 59 60 60 59 59 60 59 59 58 56 57 58
31 22 24 28 31 31 31 31 30 27 23 21 18 25 25 26 29 31 33 32 39 41 35 37 35 43 49 52 55 56 57 57 56 56 57 57 56 56 56 55 53 52 53 53
32 25 23 27 30 35 30 30 30 23 24 21 23 25 26 28 32 33 34 35 36 40 41 41 40 42 46 50 52 54 55 55 54 54 54 53 53 53 52 50 50 50 49 49
36 26 16 19 23 28 29 31 32 26 27 25 21 23 27 27 28 33 36 36 37 39 40 41 42 43 44 46 49 49 52 52 51 51 51 50 50 49 48 47 47 46 46 45
36 32 24 24 26 29 27 29 30 23 25 25 24 24 27 28 29 31 35 37 37 38 40 41 42 43 44 44 45 45 47 48 48 48 48 47 47 46 45 44 43 43 43 42
33 28 32 30 31 30 30 30 31 27 28 23 27 26 28 29 30 31 31 33 35 37 38 41 42 42 43 43 44 44 44 45 46 45 45 44 43 42 41 41 40 40 40 40
33 25 27 24 30 29 27 29 30 31 30 30 29 29 30 31 32 33 33 32 33 36 39 39 40 42 42 43 43 43 43 43 44 43 42 41 40 40 40 39 39 39 39 39
30 26 23 20 23 26 21 24 30 30 31 30 28 30 31 32 33 34 34 35 35 36 36 38 39 40 42 43 43 43 42 43 42 41 40 39 39 39 39 38 38 38 38 38
28 26 26 21 18 16 21 29 29 31 32 31 31 32 32 33 34 35 36 35 36 36 37 38 40 41 41 42 42 41 42 41 42 40 39 39 39 38 38 38 38 38 38 38
30 27 24 20 18 20 27 28 33 30 32 35 32 30 32 33 33 34 37 37 36 37 38 40 41 41 41 42 41 41 40 40 40 39 39 39 38 38 37 37 37 37 37 37
31 27 24 23 17 17 25 27 30 32 29 35 31 31 32 31 27 30 36 36 36 37 38 39 40 41 41 41 41 40 39 39 39 39 39 39 38 38 38 37 37 36 37 37
24 24 21 23 20 21 24 28 31 20 23 37 33 33 33 31 32 35 36 36 36 37 37 39 39 40 41 41 41 40 39 40 40 40 39 39 39 38 38 37 37 37 37 36
22 20 22 22 20 17 31 30 26 26 33 37 36 34 35 35 36 36 36 36 36 36 36 38 38 38 40 41 41 40 40 40 40 40 39 39 39 38 37 37 38 36 36 36
22 23 23 22 23 28 33 33 35 36 34 36 37 36 36 36 36 36 36 36 36 36 36 36 37 37 39 40 41 40 39 40 40 39 39 38 38 37 36 37 36 35 35 35
26 27 25 27 29 29 32 33 35 36 36 37 38 38 37 36 36 37 36 36 36 36 36 36 35 35 35 36 37 39 39 39 39 38 38 38 37 37 36 37 36 36 36 36
27 28 26 26 27 29 31 33 34 36 36 36 37 39 39 38 38 38 37 37 36 35 36 36 35 35 35 35 35 35 36 39 39 39 38 38 37 38 36 36 36 36 36 37
27 27 27 26 29 29 30 34 34 34 35 36 37 37 38 41 41 38 37 36 34 32 33 34 34 34 34 33 33 33 34 35 35 37 37 37 37 37 37 36 36 38 38 38

GFSCGP_sfc_dewp_114.txt.gz
Dewpoint
32 30 26 22 24 27 26 26 25 22 24 26 33 29 30 40 42 41 43 42 42 42 43 46 52 57 62 62 64 65 66 66 66 65 65 65 63 63 63 64 64 63 62 62
30 26 22 25 25 25 27 25 25 23 25 27 29 30 28 35 39 41 42 41 41 41 42 44 50 60 60 63 64 65 66 66 66 66 65 65 64 63 62 63 63 63 63 64
27 21 24 25 27 28 27 28 26 26 31 30 30 29 30 38 39 39 40 41 43 42 42 45 48 60 61 62 63 64 65 66 66 66 66 65 65 65 63 64 63 62 62 63
26 25 25 25 27 30 28 32 34 34 31 29 30 25 33 35 38 39 41 43 44 43 44 46 48 59 61 62 64 64 66 66 66 66 66 65 64 63 62 64 64 63 61 62
25 23 24 27 27 34 33 35 34 35 32 33 32 31 33 38 37 38 40 42 43 45 45 46 49 59 61 62 61 64 64 65 65 66 65 64 64 65 65 65 64 64 63 62
29 29 30 30 31 35 36 35 35 34 33 29 31 28 33 36 35 37 38 41 43 47 47 46 53 60 60 61 61 62 63 63 64 64 64 63 63 63 63 64 64 64 64 63
29 33 34 36 33 34 35 33 27 26 27 26 34 25 27 29 36 38 39 41 46 47 47 43 48 58 61 60 60 61 62 61 62 62 63 62 62 62 62 63 63 63 63 64
26 25 32 37 35 32 32 32 27 20 23 27 30 26 28 28 29 31 41 43 46 47 45 41 47 55 60 61 61 61 61 60 61 61 62 62 62 62 62 62 63 62 63 63
26 27 33 36 35 35 33 31 35 27 23 23 28 27 28 29 31 31 41 43 45 47 45 40 46 52 59 60 61 61 60 61 61 61 61 61 62 59 61 62 63 62 63 63
30 26 25 31 36 34 35 36 31 31 21 22 24 28 28 28 30 32 40 42 45 46 39 37 44 49 54 59 60 61 62 61 61 61 61 60 60 59 60 61 62 61 61 62
31 25 29 30 32 33 32 31 30 27 25 21 21 27 27 30 33 33 38 44 45 45 43 39 39 47 53 56 59 59 59 60 60 61 61 60 60 60 60 60 60 59 60 60
32 28 28 29 29 34 31 31 30 29 24 25 24 27 27 30 34 35 35 42 45 45 44 42 41 43 51 55 57 57 58 58 59 59 59 59 59 58 58 57 57 57 57 56
34 29 26 25 27 30 29 30 31 27 30 26 25 27 29 31 33 35 36 38 42 43 43 42 42 43 45 51 53 54 56 56 56 57 56 55 56 56 54 53 53 53 52 51
36 30 30 25 27 31 31 30 30 31 30 25 26 26 28 30 31 32 34 37 38 40 41 43 43 43 44 47 48 51 52 53 54 55 54 53 53 53 53 51 50 49 49 48
33 31 30 30 30 30 31 30 29 32 28 30 26 27 29 30 32 32 32 35 37 38 39 40 42 43 44 44 45 48 49 50 51 52 52 51 50 49 49 48 47 45 45 44
32 30 29 28 26 27 27 29 29 29 28 28 28 28 31 32 33 33 33 34 34 35 37 39 40 42 43 43 44 45 47 48 49 49 48 47 45 45 45 44 44 43 42 41
30 29 27 24 24 26 25 28 30 30 30 30 28 30 32 32 33 34 34 34 35 35 36 38 40 41 43 43 44 43 44 44 45 44 44 43 43 42 42 41 41 41 41 41
30 28 27 23 20 18 25 31 31 32 33 32 32 31 32 33 35 36 36 35 35 36 37 39 40 41 41 43 43 43 43 43 43 42 41 41 41 41 40 40 41 41 41 41
32 29 24 21 20 23 26 29 33 31 32 33 30 31 32 34 34 36 37 36 37 37 39 40 41 42 42 43 42 42 42 42 42 41 41 41 40 40 40 40 41 41 41 41
31 28 26 25 19 18 25 28 31 32 29 35 32 32 32 31 27 33 37 36 37 38 39 40 41 41 42 42 42 42 41 41 42 41 41 40 40 40 40 40 40 42 41 40
25 25 24 24 22 22 25 29 31 21 29 37 34 35 34 32 35 36 37 37 37 37 39 40 40 41 42 42 42 42 41 42 41 41 41 41 40 41 40 41 40 40 40 40
22 22 22 24 23 20 31 31 25 31 36 38 36 36 36 36 37 37 37 37 37 37 37 39 40 40 41 43 42 42 42 42 41 41 41 41 41 39 39 40 39 39 39 39
22 23 23 23 23 31 35 35 36 36 37 38 38 37 37 37 37 37 37 37 37 37 36 37 38 38 38 39 40 41 40 41 40 40 40 40 39 39 38 38 38 37 37 37
28 29 26 28 30 32 34 36 38 38 38 39 40 39 38 37 37 38 37 37 37 37 37 37 36 36 35 35 35 36 38 40 39 39 39 39 39 38 37 38 38 37 37 37
28 29 27 28 31 32 33 35 37 37 37 37 38 40 39 38 38 38 38 37 36 36 36 36 36 35 35 35 35 35 35 38 39 40 39 39 38 38 37 37 37 37 37 38
29 29 26 25 30 30 31 35 35 35 35 37 38 38 39 41 40 39 37 36 34 33 34 35 35 35 34 33 33 34 35 35 35 36 37 38 38 38 38 38 38 39 39 39

GFSCGP_sfc_dewp_117.txt.gz
Dewpoint
30 30 26 26 22 23 23 22 22 18 18 18 18 23 33 30 33 33 32 35 35 41 41 43 48 56 59 61 61 64 65 64 65 65 65 64 61 58 57 57 56 57 56 56
28 27 24 21 19 21 21 20 19 19 19 21 23 23 24 29 35 38 38 38 41 40 40 41 46 54 57 60 60 61 65 65 65 64 64 64 64 63 63 62 59 57 56 58
25 23 21 21 22 23 23 23 23 21 25 29 30 26 24 29 33 35 39 39 39 39 40 40 45 53 58 57 61 60 62 65 65 65 65 65 64 64 64 64 64 63 63 63
25 23 22 22 22 25 28 26 32 30 30 26 26 24 28 27 31 35 36 38 40 40 40 41 45 51 58 58 58 62 61 65 65 65 64 64 63 62 62 63 63 63 63 64
26 24 23 25 25 35 30 33 34 34 32 31 29 28 30 28 32 35 37 40 41 42 41 43 46 51 59 59 60 62 63 64 65 65 65 64 63 62 62 64 63 63 63 63
28 29 29 30 30 34 36 35 34 33 32 26 28 29 31 34 36 36 39 41 43 45 45 46 47 51 60 60 61 62 62 63 64 64 64 64 64 64 63 64 63 63 63 63
30 32 33 35 34 34 34 33 28 26 25 25 33 30 33 35 35 40 40 42 46 46 46 46 47 56 59 60 60 59 61 62 62 64 64 63 62 63 64 64 64 63 63 63
27 27 33 38 35 32 32 33 28 21 24 25 26 27 32 35 35 40 40 43 46 45 43 41 49 58 60 59 60 60 60 60 61 61 61 62 62 62 63 63 63 63 63 63
27 28 31 34 36 36 33 32 34 29 30 25 30 33 35 34 37 39 40 43 45 44 42 44 47 58 59 59 59 59 60 60 60 61 60 61 61 61 61 62 62 62 62 63
29 27 27 30 36 36 36 36 30 32 25 23 27 27 28 34 37 39 39 44 45 45 43 43 51 58 59 59 59 60 60 60 60 61 61 60 61 61 61 61 61 61 62 62
30 29 32 33 34 33 34 31 29 28 24 26 22 26 36 34 35 39 40 44 45 44 45 44 51 58 59 60 60 61 61 61 60 61 60 60 60 60 60 60 61 61 61 62
30 30 30 29 29 31 32 31 29 31 24 28 24 28 34 35 37 40 41 44 45 45 44 45 49 55 57 58 58 58 59 60 60 61 60 60 59 59 59 59 60 61 60 61
33 29 29 29 27 29 31 29 29 28 32 27 24 29 30 31 35 38 41 43 44 44 44 43 45 48 52 55 55 56 57 58 59 60 59 58 58 59 58 57 58 59 58 58
36 29 30 26 27 30 32 28 30 34 30 28 30 29 29 30 31 34 37 39 41 43 44 44 43 43 47 50 53 53 54 56 57 57 57 57 57 56 56 55 56 55 55 55
32 29 27 27 29 28 28 28 28 31 28 30 27 28 30 31 31 32 33 35 36 37 41 44 45 43 44 45 49 51 52 53 55 55 54 54 54 53 53 52 53 52 52 50
31 29 28 27 26 27 28 29 29 29 28 28 28 29 32 32 33 33 33 34 34 35 37 39 42 45 44 44 45 48 50 51 52 52 50 50 50 50 49 48 47 48 46 44
30 28 27 25 25 25 23 29 29 30 30 29 29 30 31 32 34 34 34 34 35 36 37 38 40 41 43 43 44 44 46 48 48 48 47 47 47 46 46 46 46 47 45 43
29 28 27 22 21 18 26 32 33 32 32 31 30 30 31 33 35 36 36 35 36 37 38 39 40 42 42 43 43 43 44 44 45 45 46 46 45 45 44 44 43 43 43 43
31 28 24 21 20 23 26 29 32 34 31 30 29 30 30 33 34 36 36 36 37 39 40 40 41 42 42 43 43 43 43 43 43 42 42 43 42 42 41 42 42 42 43 43
29 28 26 24 20 18 24 29 32 32 30 33 32 32 31 30 29 34 37 37 37 39 40 40 41 42 42 42 42 42 42 42 42 42 42 42 42 42 42 44 43 43 42 41
22 23 23 22 21 23 26 30 31 24 31 35 34 34 34 34 35 37 38 38 37 38 39 41 41 42 42 43 43 42 42 42 42 42 42 42 42 42 42 42 42 42 41 41
21 20 19 22 20 21 31 31 27 34 38 36 36 36 36 36 37 38 38 37 38 37 37 40 40 40 40 42 42 42 41 42 42 42 41 42 42 41 41 41 41 41 40 40
20 23 22 24 25 32 34 35 36 35 36 37 37 38 37 37 37 38 37 37 37 37 37 37 38 37 37 38 39 39 39 41 41 40 41 40 40 39 39 39 39 38 39 39
27 28 25 27 30 33 34 37 37 37 38 39 40 38 38 37 38 38 37 37 37 37 37 37 36 36 35 35 36 36 37 41 40 39 39 39 39 39 38 39 39 38 38 38
26 29 26 26 30 32 33 35 37 37 38 38 39 40 38 38 38 38 38 37 36 36 36 36 35 35 34 34 35 35 36 37 39 40 40 40 39 39 38 38 38 38 38 39
28 26 24 21 27 28 30 34 37 36 36 37 38 38 39 40 39 39 38 37 35 34 34 35 35 35 34 33 33 34 34 35 35 35 36 37 38 39 38 38 38 40 41 41